[[{"header":{"parameterUnit":"m.s-1","parameterCategory":1,"la1":30.6,"la2":29.2853,"lo1":-89.7004,"lo2":-87.6739,"dy":0.0162,"dx":0.0183,"nx":112,"ny":82,"refTime":"2024-02-22T06:00:00:Z","depth":0,"parameterNumber":2,"parameterNumberName":"U-component_of_WINDS"},"data":[0.0,0.0,0.0,0.0,0.0,0.0,0.0,0.0,0.0,0.0,0.0,0.0,0.0,0.0,0.0,0.0,0.0,0.0,0.0,0.0,0.0,0.0,0.0,0.0,0.0,0.0,0.0,0.0,0.0,0.0,0.0,0.0,0.0,0.0,0.0,0.0,0.0,0.0,0.0,0.0,0.0,0.0,0.0,0.0,0.0,0.0,0.0,0.0,0.0,0.0,0.0,0.0,0.0,0.0,0.0,0.0,0.0,0.0,0.0,0.0,0.0,0.0,0.0,0.0,0.0,0.0,0.0,0.0,0.0,0.0,0.0,0.0,0.0,0.0,0.0,0.0,0.0,0.0,0.0,0.0,0.0,0.0,0.0,0.0,0.0,0.0,0.0,0.0,0.0,0.0,2.3258,2.3889,2.6107,2.7713,2.8074,2.9468,2.8699,2.4879,0.0,0.0,0.0,0.0,0.0,0.0,0.0,0.0,0.0,0.0,0.0,0.0,0.0,0.0,0.0,0.0,0.0,0.0,0.0,0.0,0.0,0.0,0.0,0.0,0.0,0.0,0.0,0.0,0.0,0.0,0.0,0.0,0.0,0.0,0.0,0.0,0.0,0.0,0.0,0.0,0.0,0.0,0.0,0.0,0.0,0.0,0.0,0.0,0.0,0.0,0.0,0.0,0.0,0.0,0.0,0.0,0.0,0.0,0.0,0.0,0.0,0.0,0.0,0.0,0.0,0.0,0.0,0.0,0.0,0.0,0.0,0.0,0.0,0.0,0.0,0.0,0.0,0.0,0.0,0.0,0.0,0.0,0.0,0.0,0.0,0.0,0.0,0.0,0.0,0.0,0.0,0.0,0.0,0.0,0.0,0.0,0.0,0.0,0.0,0.0,0.0,0.0,0.0,0.0,2.35,2.699,2.7903,2.8797,3.0207,3.0116,2.9136,2.7186,0.0,0.0,0.0,0.0,0.0,0.0,0.0,0.0,0.0,0.0,0.0,0.0,0.0,0.0,0.0,0.0,0.0,0.0,0.0,0.0,0.0,0.0,0.0,0.0,0.0,0.0,0.0,0.0,0.0,0.0,0.0,0.0,0.0,0.0,0.0,0.0,0.0,0.0,0.0,0.0,0.0,0.0,0.0,0.0,0.0,0.0,0.0,0.0,0.0,0.0,0.0,0.0,0.0,0.0,0.0,0.0,0.0,0.0,0.0,0.0,0.0,0.0,0.0,0.0,0.0,0.0,0.0,0.0,0.0,0.0,0.0,0.0,0.0,0.0,0.0,0.0,0.0,0.0,0.0,0.0,0.0,0.0,0.0,0.0,0.0,0.0,0.0,0.0,0.0,0.0,0.0,0.0,0.0,0.0,0.0,0.0,0.0,0.0,0.0,0.0,0.0,0.0,0.0,2.2569,2.4241,2.6563,2.7755,2.8688,2.9439,2.9748,2.9038,2.7014,2.6259,0.0,0.0,0.0,0.0,0.0,0.0,0.0,0.0,0.0,0.0,0.0,0.0,0.0,0.0,0.0,0.0,0.0,0.0,0.0,0.0,0.0,0.0,0.0,0.0,0.0,0.0,0.0,0.0,0.0,0.0,0.0,0.0,0.0,0.0,0.0,0.0,0.0,0.0,0.0,0.0,0.0,0.0,0.0,0.0,0.0,0.0,0.0,0.0,0.0,0.0,0.0,0.0,0.0,0.0,0.0,0.0,0.0,0.0,0.0,0.0,0.0,0.0,0.0,0.0,0.0,0.0,0.0,0.0,0.0,0.0,0.0,0.0,0.0,0.0,0.0,0.0,0.0,0.0,0.0,0.0,0.0,0.0,0.0,0.0,0.0,0.0,0.0,0.0,0.0,0.0,0.0,0.0,0.0,0.0,0.0,0.0,0.0,0.0,0.0,0.0,0.0,0.0,2.3906,2.5373,2.6191,2.768,2.8652,2.8652,2.9152,2.8626,2.6616,2.6333,0.0,0.0,0.0,0.0,0.0,0.0,0.0,0.0,0.0,0.0,0.0,0.0,0.0,0.0,0.0,0.0,0.0,0.0,0.0,0.0,0.0,0.0,0.0,0.0,0.0,0.0,0.0,0.0,0.0,0.0,0.0,0.0,0.0,0.0,0.0,0.0,0.0,0.0,0.0,0.0,0.0,0.0,0.0,0.0,0.0,0.0,0.0,0.0,0.0,0.0,0.0,0.0,0.0,0.0,0.0,0.0,0.0,0.0,0.0,0.0,0.0,0.0,0.0,0.0,0.0,0.0,0.0,0.0,0.0,0.0,0.0,0.0,0.0,0.0,0.0,0.0,0.0,0.0,0.0,0.0,0.0,0.0,0.0,0.0,0.0,0.0,0.0,0.0,0.0,0.0,0.0,0.0,0.0,0.0,0.0,0.0,0.0,0.0,0.0,0.0,0.0,0.0,2.5225,2.7046,2.7864,2.8756,2.9334,2.9334,2.8646,2.7886,2.7092,2.6461,0.0,0.0,0.0,0.0,0.0,0.0,0.0,0.0,0.0,0.0,0.0,0.0,0.0,0.0,0.0,0.0,0.0,0.0,0.0,0.0,0.0,0.0,0.0,0.0,0.0,0.0,0.0,0.0,0.0,0.0,0.0,0.0,0.0,0.0,0.0,0.0,0.0,0.0,0.0,0.0,0.0,0.0,0.0,0.0,0.0,0.0,0.0,0.0,0.0,0.0,0.0,0.0,0.0,0.0,0.0,0.0,0.0,0.0,0.0,0.0,0.0,0.0,0.0,0.0,0.0,0.0,0.0,0.0,0.0,0.0,0.0,0.0,0.0,0.0,0.0,0.0,0.0,0.0,0.0,0.0,0.0,0.0,0.0,0.0,0.0,0.0,0.0,0.0,0.0,0.0,0.0,0.0,0.0,0.0,0.0,0.0,0.0,0.0,0.0,0.0,0.0,0.0,2.4928,2.6656,2.7956,2.8886,2.9407,2.9407,2.9109,2.8388,2.7171,0.0,0.0,0.0,0.0,0.0,0.0,0.0,0.0,0.0,0.0,0.0,0.0,0.0,0.0,0.0,0.0,0.0,0.0,0.0,0.0,0.0,0.0,0.0,0.0,0.0,0.0,0.0,0.0,0.0,0.0,0.0,0.0,0.0,0.0,0.0,0.0,0.0,0.0,0.0,0.0,0.0,0.0,0.0,0.0,0.0,0.0,0.0,0.0,0.0,0.0,0.0,0.0,0.0,0.0,0.0,0.0,0.0,0.0,0.0,0.0,0.0,0.0,0.0,0.0,0.0,0.0,0.0,0.0,0.0,0.0,0.0,0.0,0.0,0.0,0.0,0.0,0.0,0.0,0.0,0.0,0.0,0.0,0.0,0.0,0.0,0.0,0.0,0.0,0.0,0.0,0.0,0.0,0.0,0.0,0.0,0.0,0.0,0.0,0.0,0.0,0.0,0.0,2.3442,2.5281,2.699,2.8384,2.9054,2.9407,2.9407,2.9165,2.8424,2.7119,0.0,0.0,0.0,0.0,0.0,0.0,0.0,0.0,0.0,0.0,0.0,0.0,0.0,0.0,0.0,0.0,0.0,0.0,0.0,0.0,0.0,0.0,0.0,0.0,0.0,0.0,0.0,0.0,0.0,0.0,0.0,0.0,0.0,0.0,0.0,0.0,0.0,0.0,0.0,0.0,0.0,0.0,0.0,0.0,0.0,0.0,0.0,0.0,0.0,0.0,0.0,0.0,0.0,0.0,0.0,0.0,0.0,0.0,0.0,0.0,0.0,0.0,0.0,0.0,0.0,0.0,0.0,0.0,0.0,0.0,0.0,0.0,0.0,0.0,0.0,0.0,0.0,0.0,0.0,0.0,0.0,0.0,0.0,0.0,0.0,0.0,0.0,0.0,0.0,0.0,0.0,0.0,0.0,0.0,0.0,0.0,0.0,0.0,0.0,0.0,0.0,0.0,2.4407,2.6619,2.844,2.9314,2.9407,2.9407,2.9407,2.8626,2.7771,0.0,0.0,0.0,0.0,0.0,0.0,0.0,0.0,0.0,0.0,0.0,0.0,0.0,0.0,0.0,0.0,0.0,0.0,0.0,0.0,0.0,0.0,0.0,0.0,0.0,0.0,0.0,0.0,0.0,0.0,0.0,0.0,0.0,0.0,0.0,0.0,0.0,0.0,0.0,0.0,0.0,0.0,0.0,0.0,0.0,0.0,0.0,0.0,0.0,0.0,0.0,0.0,0.0,0.0,0.0,0.0,0.0,0.0,0.0,0.0,0.0,0.0,0.0,0.0,0.0,0.0,0.0,0.0,0.0,0.0,0.0,0.0,0.0,0.0,0.0,0.0,0.0,0.0,0.0,0.0,0.0,0.0,0.0,0.0,0.0,0.0,0.0,0.0,0.0,0.0,0.0,0.0,0.0,0.0,0.0,0.0,0.0,0.0,0.0,0.0,0.0,0.0,0.0,2.5169,2.6972,2.844,2.9314,2.9407,2.9407,2.9407,2.9165,2.8422,2.699,0.0,0.0,0.0,0.0,0.0,0.0,0.0,0.0,0.0,0.0,0.0,0.0,0.0,0.0,0.0,0.0,0.0,0.0,0.0,0.0,0.0,0.0,0.0,0.0,0.0,0.0,0.0,0.0,0.0,0.0,0.0,0.0,0.0,0.0,0.0,0.0,0.0,0.0,0.0,0.0,0.0,0.0,0.0,0.0,0.0,0.0,0.0,0.0,0.0,0.0,0.0,0.0,0.0,0.0,0.0,0.0,0.0,0.0,0.0,0.0,0.0,0.0,0.0,0.0,0.0,0.0,0.0,0.0,0.0,0.0,0.0,0.0,0.0,0.0,0.0,0.0,0.0,0.0,0.0,0.0,0.0,0.0,0.0,0.0,0.0,0.0,0.0,0.0,0.0,0.0,0.0,0.0,0.0,0.0,0.0,0.0,0.0,0.0,0.0,0.0,0.0,0.0,2.5578,2.7418,2.8831,2.9351,2.9407,2.9407,2.9407,2.9704,2.9165,2.7492,0.0,0.0,0.0,0.0,0.0,0.0,0.0,0.0,0.0,0.0,0.0,0.0,0.0,0.0,0.0,0.0,0.0,0.0,0.0,0.0,0.0,0.0,0.0,0.0,0.0,0.0,0.0,0.0,0.0,0.0,0.0,0.0,0.0,0.0,0.0,0.0,0.0,0.0,0.0,0.0,0.0,0.0,0.0,0.0,0.0,0.0,0.0,0.0,0.0,0.0,0.0,0.0,0.0,0.0,0.0,0.0,0.0,0.0,0.0,0.0,0.0,0.0,0.0,0.0,0.0,0.0,0.0,0.0,0.0,0.0,0.0,0.0,0.0,0.0,0.0,0.0,0.0,0.0,0.0,0.0,0.0,0.0,0.0,0.0,0.0,0.0,0.0,0.0,0.0,0.0,0.0,0.0,0.0,0.0,0.0,0.0,0.0,0.0,0.0,0.0,0.0,0.0,2.5801,2.792,2.9407,2.9407,2.9481,2.9518,2.9518,3.0262,3.0039,2.842,0.0,0.0,0.0,0.0,0.0,0.0,0.0,0.0,0.0,0.0,0.0,0.0,0.0,0.0,0.0,0.0,0.0,0.0,0.0,0.0,0.0,0.0,0.0,0.0,0.0,0.0,0.0,0.0,0.0,0.0,0.0,0.0,0.0,0.0,0.0,0.0,0.0,0.0,0.0,0.0,0.0,0.0,0.0,0.0,0.0,0.0,0.0,0.0,0.0,0.0,0.0,0.0,0.0,0.0,0.0,0.0,0.0,0.0,0.0,0.0,2.1991,2.1442,0.0,0.0,0.0,0.0,0.0,0.0,0.0,0.0,0.0,0.0,0.0,0.0,0.0,0.0,0.0,0.0,0.0,0.0,0.0,0.0,0.0,0.0,0.0,0.0,0.0,0.0,0.0,0.0,0.0,0.0,0.0,0.0,0.0,0.0,0.0,0.0,0.0,0.0,0.0,0.0,2.6563,2.8273,2.9407,2.9407,2.9983,3.0355,3.0355,3.1098,3.1114,3.0132,3.0076,0.0,0.0,0.0,0.0,0.0,0.0,0.0,0.0,0.0,0.0,0.0,0.0,0.0,0.0,0.0,0.0,0.0,0.0,0.0,0.0,0.0,0.0,0.0,0.0,0.0,0.0,0.0,0.0,0.0,0.0,0.0,0.0,0.0,0.0,0.0,0.0,0.0,0.0,0.0,0.0,0.0,0.0,0.0,0.0,0.0,0.0,0.0,0.0,0.0,0.0,0.0,0.0,0.0,0.0,0.0,0.0,0.0,0.0,0.0,2.2354,2.223,0.0,0.0,0.0,0.0,0.0,0.0,0.0,0.0,0.0,0.0,0.0,0.0,0.0,0.0,0.0,0.0,0.0,0.0,0.0,0.0,0.0,0.0,0.0,0.0,0.0,0.0,0.0,0.0,0.0,0.0,0.0,0.0,0.0,0.0,0.0,0.0,0.0,0.0,0.0,0.0,2.7994,2.9556,3.0559,3.0559,3.0931,3.1191,3.1191,3.1894,3.2024,3.1225,3.1191,0.0,0.0,0.0,0.0,0.0,0.0,0.0,0.0,0.0,0.0,0.0,0.0,0.0,0.0,0.0,0.0,0.0,0.0,0.0,0.0,0.0,0.0,0.0,0.0,0.0,0.0,0.0,0.0,0.0,0.0,0.0,0.0,0.0,0.0,0.0,0.0,0.0,0.0,0.0,0.0,0.0,0.0,0.0,0.0,0.0,0.0,0.0,0.0,0.0,0.0,0.0,0.0,0.0,2.3419,2.3454,2.3331,2.3535,2.3581,2.3457,2.3346,2.3583,2.3914,2.2581,0.0,0.0,0.0,0.0,0.0,0.0,0.0,0.0,0.0,0.0,0.0,0.0,0.0,0.0,0.0,0.0,0.0,0.0,0.0,0.0,0.0,0.0,0.0,0.0,2.9834,2.9444,2.805,0.0,0.0,0.0,0.0,0.0,0.0,0.0,0.0,0.0,0.0,0.0,2.9518,3.0894,3.1782,3.1782,3.1912,3.2005,3.2005,3.2748,3.2915,3.2247,3.221,3.1912,0.0,0.0,0.0,0.0,0.0,0.0,0.0,0.0,0.0,0.0,0.0,0.0,0.0,0.0,0.0,0.0,0.0,0.0,0.0,0.0,0.0,0.0,0.0,0.0,0.0,0.0,0.0,0.0,0.0,0.0,0.0,0.0,2.194,2.2796,0.0,0.0,0.0,0.0,0.0,0.0,0.0,0.0,0.0,0.0,0.0,0.0,0.0,2.3072,2.3774,2.3829,2.4225,2.4986,2.5695,2.5964,2.5857,2.6613,2.6923,2.6807,2.6062,0.0,2.4834,2.4619,0.0,0.0,0.0,0.0,0.0,0.0,0.0,0.0,0.0,0.0,0.0,0.0,0.0,0.0,0.0,0.0,0.0,0.0,0.0,0.0,0.0,0.0,3.0225,3.1247,3.1489,3.1411,0.0,3.0076,2.9054,2.8942,2.8924,0.0,0.0,0.0,0.0,0.0,0.0,0.0,3.0429,3.1247,3.1782,3.1782,3.2414,3.2841,3.2841,3.3566,3.3993,3.3881,3.3881,3.3844,3.3733,3.3045,0.0,0.0,0.0,0.0,0.0,0.0,0.0,0.0,0.0,0.0,0.0,0.0,0.0,0.0,0.0,0.0,0.0,0.0,0.0,0.0,0.0,0.0,0.0,0.0,0.0,0.0,0.0,0.0,0.0,2.1791,2.2593,2.3469,2.3116,2.2656,0.0,0.0,0.0,0.0,0.0,0.0,0.0,0.0,0.0,2.3554,2.4047,2.4703,2.5541,2.5918,2.6277,2.665,2.6967,2.7071,2.6982,2.7446,2.7618,2.7575,2.7706,2.7554,2.7105,2.61,2.5715,2.5672,0.0,0.0,0.0,0.0,2.4182,2.4674,2.5427,2.6473,2.7433,2.7056,0.0,0.0,0.0,0.0,0.0,0.0,0.0,0.0,0.0,0.0,3.0909,3.2172,3.247,3.26,3.3045,3.26,3.1689,0.0,3.0076,2.9816,2.8979,0.0,0.0,0.0,0.0,3.1429,3.1875,3.2637,3.3138,3.3138,3.3454,3.3658,3.3658,3.3993,3.4197,3.4197,3.4197,3.442,3.4903,3.4587,3.4569,0.0,0.0,0.0,0.0,0.0,0.0,0.0,0.0,0.0,0.0,0.0,0.0,0.0,0.0,0.0,0.0,0.0,0.0,0.0,0.0,0.0,0.0,0.0,0.0,0.0,0.0,0.0,0.0,2.2277,2.3129,2.3995,2.3697,2.3351,0.0,0.0,0.0,0.0,0.0,0.0,2.3416,2.3482,2.3974,2.4957,2.562,2.6245,2.6858,2.7357,2.7605,2.7611,2.7788,2.7961,2.815,2.8517,2.8779,2.8976,2.9627,2.992,2.9751,2.7714,2.692,2.6936,2.6403,2.5844,2.5332,2.556,2.6034,2.6603,2.6986,2.8045,2.919,2.919,2.8837,2.8502,2.8877,0.0,0.0,0.0,0.0,2.9953,3.0708,3.1061,3.1559,3.2971,3.3305,3.3473,3.4067,3.4197,3.3658,0.0,3.1504,3.1284,3.0466,0.0,0.0,0.0,0.0,3.2618,3.3231,3.3826,3.4197,3.4197,3.4401,3.4531,3.4531,3.4717,3.4829,3.4829,3.4829,3.5126,3.5776,3.5795,3.5887,3.6092,0.0,0.0,0.0,0.0,0.0,0.0,0.0,0.0,0.0,0.0,0.0,0.0,0.0,0.0,0.0,0.0,0.0,0.0,0.0,0.0,0.0,0.0,0.0,0.0,0.0,0.0,0.0,0.0,0.0,2.3995,2.4736,0.0,0.0,0.0,0.0,2.2793,2.2782,2.3485,2.5101,2.5178,2.5866,2.7383,2.7478,2.7412,2.7275,2.7308,2.7318,2.7336,2.8222,2.908,2.9924,3.0868,3.1755,3.253,3.2454,3.2492,3.2407,2.9827,2.8684,2.8427,2.6816,2.6186,2.6242,2.7077,2.7399,2.7646,2.9185,3.0166,3.079,3.079,3.1218,3.1603,3.0816,3.0574,0.0,0.0,3.0008,3.0727,3.1522,3.2302,3.3083,3.3937,3.4141,3.4141,3.4179,3.4197,3.416,0.0,3.4011,3.3751,3.2953,0.0,3.3714,3.299,3.3547,3.4086,3.4123,3.416,3.4197,3.4197,3.494,3.5423,3.5423,3.6129,3.6556,3.6556,3.6556,3.6593,3.663,3.663,3.7002,3.7764,3.6278,0.0,0.0,0.0,0.0,0.0,0.0,0.0,0.0,0.0,0.0,0.0,0.0,0.0,0.0,0.0,0.0,0.0,0.0,0.0,0.0,0.0,0.0,0.0,0.0,0.0,0.0,0.0,0.0,2.4716,2.4678,0.0,2.4851,2.487,2.4736,2.4428,2.5447,2.6332,2.6948,2.6967,2.7171,2.758,2.8134,2.8332,2.813,2.8698,2.8998,2.9026,2.9376,2.9745,3.0147,3.0996,3.1594,3.1996,3.242,3.2333,3.1828,3.0886,3.0479,3.0319,2.9064,2.8578,2.8616,2.8938,2.902,2.9141,3.0239,3.0678,3.0859,3.132,3.1648,3.1905,3.2128,3.2184,3.224,3.246,3.2697,3.2971,3.3268,3.3547,3.3844,3.4123,3.4197,3.4197,3.4197,3.4099,3.4049,3.4173,3.4197,3.408,3.3654,3.392,3.429,3.4569,3.4847,3.5219,3.5739,3.5795,3.5795,3.5795,3.6073,3.6259,3.6259,3.6538,3.6686,3.6686,3.6686,3.6928,3.7448,3.7466,3.7838,3.8655,3.8098,3.7448,0.0,0.0,0.0,0.0,0.0,0.0,0.0,0.0,0.0,0.0,0.0,0.0,0.0,0.0,0.0,0.0,0.0,0.0,0.0,0.0,0.0,0.0,0.0,0.0,0.0,0.0,2.4274,2.5986,2.5717,2.5697,2.6505,2.6351,2.6178,2.6178,2.7174,2.7919,2.8207,2.8427,2.8586,2.8681,2.9535,2.9772,2.9334,3.0219,3.0551,3.038,3.0746,3.1081,3.1386,3.1649,3.2103,3.2691,3.2893,3.2806,3.2528,3.2279,3.1977,3.1583,3.0376,2.9888,2.9888,2.9855,3.0047,3.0428,3.1431,3.1692,3.168,3.2367,3.26,3.2692,3.3231,3.3398,3.351,3.4048,3.4197,3.4197,3.4197,3.4197,3.4197,3.4197,3.4148,3.4124,3.4197,3.4271,3.4352,3.4481,3.4284,3.3981,3.3654,3.3938,3.429,3.4606,3.4884,3.5237,3.5776,3.611,3.6296,3.6296,3.6779,3.7095,3.7095,3.7095,3.7206,3.7485,3.7243,3.7466,3.8265,3.8042,3.8154,3.8674,3.8432,3.7894,3.7095,0.0,0.0,0.0,0.0,0.0,0.0,0.0,0.0,0.0,0.0,0.0,0.0,0.0,0.0,0.0,0.0,0.0,0.0,0.0,0.0,0.0,0.0,0.0,2.4014,2.4851,2.6043,2.7775,2.7948,2.8255,2.9063,2.8409,2.7948,2.7967,2.7809,2.8095,2.8954,2.957,3.0165,3.0809,3.1672,3.169,3.0846,3.1692,3.1789,3.1153,3.2206,3.3026,3.3633,3.3012,3.3547,3.4904,3.407,3.4092,3.466,3.3961,3.3091,3.2072,3.0536,2.9926,2.9926,2.9861,3.0445,3.1463,3.2821,3.3304,3.3412,3.4008,3.4197,3.4197,3.4197,3.4197,3.4197,3.4197,3.4197,3.4197,3.4197,3.4197,3.4197,3.4197,3.4067,3.3983,3.4185,3.4715,3.5128,3.5128,3.4502,3.3781,3.3226,3.3751,3.4011,3.325,3.3807,0.0,3.4346,3.5089,3.559,3.5572,3.6983,3.7931,3.7894,3.7912,3.8265,3.9045,3.8377,3.8284,3.9064,3.8339,3.7949,3.7968,3.7188,3.7169,3.7968,0.0,0.0,0.0,0.0,0.0,0.0,0.0,0.0,0.0,0.0,0.0,0.0,0.0,0.0,0.0,0.0,0.0,0.0,0.0,0.0,0.0,2.41,2.4697,2.4947,2.6255,2.7813,2.9506,2.914,2.9102,2.9967,2.9193,2.8868,2.9448,2.9893,3.0503,3.1322,3.1535,3.1637,3.1728,3.2128,3.2128,3.1749,3.2255,3.2359,3.2046,3.2438,3.2651,3.271,3.2997,3.3431,3.3923,3.412,3.3684,3.2842,3.2732,3.1826,3.0506,3.0762,3.0852,3.0835,3.0712,3.1506,3.2699,3.2982,3.3455,3.3976,3.4147,3.4197,3.4197,3.4197,3.4197,3.4197,3.4197,3.4197,3.4197,3.4197,3.4099,3.4023,3.4173,3.4493,3.4858,3.5101,3.5621,3.604,3.5975,3.5669,3.5439,3.5459,3.5596,3.5855,3.6205,3.6445,0.0,3.7442,3.7859,3.7894,3.7299,3.8154,3.8525,3.7949,3.8432,3.8859,3.9082,3.8897,3.8859,3.9082,3.8897,3.9064,3.9695,3.8859,3.8859,0.0,0.0,0.0,0.0,0.0,0.0,0.0,0.0,0.0,0.0,0.0,0.0,0.0,0.0,0.0,0.0,0.0,0.0,0.0,0.0,0.0,0.0,2.589,2.7159,2.789,2.8544,2.9698,3.1756,3.1218,3.1025,3.191,3.1124,3.0718,3.1111,3.1466,3.1804,3.2204,3.2466,3.2613,3.2611,3.307,3.3167,3.2844,3.3365,3.3435,3.3039,3.3399,3.3275,3.2732,3.3122,3.3116,3.2812,3.3216,3.3063,3.2486,3.269,3.2145,0.0,0.0,0.0,0.0,0.0,3.2477,3.3246,3.3515,3.3902,3.4269,3.4221,3.4197,3.4197,3.4197,3.4197,3.4197,3.4197,3.4197,3.4173,3.4099,3.4308,3.4585,3.4592,3.5124,3.568,3.5806,3.6316,3.6743,3.6659,3.6833,0.0,3.7345,3.6699,3.6201,3.6462,3.6785,3.7219,3.7849,3.8313,3.8414,3.7949,3.8618,3.9064,3.8952,3.9027,0.0,0.0,0.0,3.964,3.964,3.9593,0.0,0.0,0.0,3.95,4.0401,0.0,0.0,0.0,3.9361,3.9045,0.0,0.0,0.0,0.0,0.0,0.0,0.0,0.0,0.0,0.0,0.0,0.0,0.0,0.0,0.0,0.0,2.7794,3.0006,3.1725,3.1302,3.1679,3.393,3.3526,3.3353,3.4122,3.3384,3.2804,3.2714,3.2572,3.2487,3.2475,3.2922,0.0,0.0,0.0,3.4413,3.398,3.4584,3.4584,3.398,3.4679,3.445,3.3417,3.3604,3.316,3.2232,3.2437,3.2825,3.3292,3.3537,3.3577,3.3321,3.1844,3.1243,3.1412,3.2893,3.339,3.3415,3.412,0.0,0.0,3.4245,3.4197,3.4197,3.4197,3.4271,3.4346,3.4346,3.4401,3.4451,3.4249,3.4899,3.5558,3.5319,3.5911,3.649,3.6425,3.6923,3.7307,3.7207,3.784,3.8415,3.8621,3.7272,3.6006,3.5542,3.6113,3.6657,3.684,3.757,3.8024,3.8024,0.0,0.0,4.0308,3.9723,3.9983,4.1468,4.0892,4.0502,4.0502,4.0407,4.0063,3.95,3.9443,3.987,4.081,4.1516,4.221,4.289,4.068,4.0067,0.0,0.0,0.0,0.0,0.0,0.0,0.0,0.0,0.0,0.0,0.0,0.0,0.0,0.0,0.0,2.8192,2.9975,3.177,3.3407,3.3525,3.3641,3.4141,3.4045,3.4007,3.418,3.3181,3.2759,3.3371,3.3083,3.3459,3.4772,3.4483,3.4525,3.5075,3.4932,3.4716,3.4465,3.4756,3.4756,3.4465,3.5251,0.0,3.4064,3.5423,3.5566,3.481,3.5485,3.5485,3.5021,3.5123,3.517,3.4979,3.3452,3.2814,3.2879,3.3852,3.4097,3.4041,3.4189,3.4245,3.4221,3.4221,3.4197,3.4197,3.4197,3.468,0.0,3.5237,3.572,3.6203,3.6152,3.6202,3.6251,3.6366,3.673,3.7094,3.7253,3.7747,3.8081,3.7884,3.7977,3.8018,3.7845,3.7899,3.7885,3.7771,3.8083,3.8254,3.8026,3.8512,3.885,3.8795,3.9507,4.0044,4.0211,4.0614,4.1009,4.1342,4.1213,4.1139,4.1139,4.1089,4.136,4.2001,4.189,4.231,4.3299,4.336,4.3463,4.3688,4.325,4.3132,0.0,0.0,0.0,0.0,0.0,0.0,0.0,0.0,0.0,0.0,0.0,2.5312,2.5332,0.0,2.9332,3.0208,3.1783,3.3478,3.5119,3.5,3.476,3.476,3.4807,3.4793,3.4668,3.4146,3.3882,3.409,3.3902,3.4116,3.4816,3.4969,3.504,3.504,3.5246,3.5166,3.4751,3.4751,3.4689,3.4602,3.5315,3.5136,3.4253,3.5943,3.6017,3.4884,3.5739,3.5869,3.5541,3.5982,3.6149,3.6081,3.5291,3.4974,3.5001,3.5392,3.5256,3.4847,3.4847,3.4847,3.4847,3.4847,3.4847,3.4922,3.533,3.546,3.5572,3.598,3.6389,3.666,3.6581,3.685,3.7137,3.6961,3.747,3.7937,3.7794,3.7994,3.8119,3.7845,3.7792,3.7918,3.8331,3.8632,3.8803,3.8803,3.8904,3.9115,3.9449,3.9666,3.9745,3.9713,4.0143,4.0611,4.1015,4.1972,4.2567,4.2567,4.2567,4.2567,4.2567,4.2484,4.2719,4.3241,4.3125,4.3342,4.3897,4.3818,4.3837,4.3851,4.3865,4.3897,0.0,0.0,0.0,0.0,0.0,0.0,0.0,0.0,2.5072,2.587,2.686,2.7572,2.7572,2.9594,3.145,3.1987,3.3623,3.5258,3.6431,3.6124,3.5707,3.5468,3.5431,3.532,3.5122,3.507,3.5002,3.483,3.4802,3.482,3.4928,3.5324,3.5384,3.5023,3.5537,3.555,3.5036,3.4999,3.5004,3.5023,3.5653,3.5516,3.4736,3.6408,3.6333,3.4959,3.5832,3.6185,3.624,3.6891,3.7169,3.7169,3.7169,3.7169,3.7132,3.6816,3.6278,3.572,3.572,3.572,3.572,3.572,3.572,3.585,3.65,3.6352,3.6092,3.6742,3.7039,3.7143,3.698,3.7516,3.7998,3.7601,3.8083,3.8528,3.8086,3.7949,3.7845,3.7649,3.7719,3.8096,3.896,3.9193,3.9301,3.9409,3.9481,3.9768,4.0437,4.0474,4.0492,4.0637,4.0816,4.1283,4.2137,4.3128,4.3738,4.3738,4.3738,4.3738,4.3738,4.3634,4.3634,4.3753,4.3634,4.3634,4.3804,4.3771,4.3771,4.3753,4.3771,4.3771,2.1262,2.1304,2.1713,2.244,2.3228,2.4254,0.0,0.0,2.7698,2.8506,2.9936,3.1046,3.1034,3.3081,3.4515,3.3838,3.5841,3.7258,3.6602,3.7146,3.7192,3.6141,3.5455,3.5069,3.5105,3.4773,3.4883,3.5615,3.5501,3.6031,3.7411,3.639,3.5984,3.644,3.6045,3.5693,3.5448,3.6131,3.6477,3.6477,3.727,3.7206,3.6482,3.8079,3.8339,3.7522,3.8339,3.8692,3.8692,3.8785,3.8822,3.8822,3.8822,3.8822,3.8655,3.7225,3.663,3.6556,3.6556,3.6556,3.6556,3.6556,3.6556,3.6575,3.6668,3.7132,3.7652,3.7745,3.8284,3.8841,3.8795,3.8746,3.8674,3.8645,3.836,3.8086,3.8018,3.781,3.7649,3.7631,3.8183,3.8701,3.8827,3.9245,3.9711,4.0093,4.0382,4.0419,4.005,4.0219,4.0745,4.156,4.1669,4.2121,4.3243,4.3458,4.3532,4.3532,4.3532,4.3532,4.3532,4.3532,4.3566,4.3615,4.3566,4.3618,4.3804,4.36,4.3548,4.3615,4.3566,4.3652,2.2379,2.2634,2.3183,0.0,2.5913,2.6871,2.9063,2.9852,3.0333,3.1141,3.2231,3.305,3.305,3.4664,3.5883,0.0,3.675,3.7649,3.7254,3.701,3.6482,3.5515,3.4486,3.4043,3.4574,3.4483,3.4498,3.471,3.515,3.5684,3.635,3.6742,3.6868,3.6652,3.6875,3.6752,3.6185,3.6519,3.6686,3.6705,3.7522,3.7708,3.7429,3.8581,3.8915,3.8618,3.8952,3.9101,3.9101,3.9101,3.9101,3.9101,3.9101,3.9101,3.9027,3.8339,3.7801,3.7392,3.7392,3.7392,3.7392,3.7392,3.7392,3.7485,3.7949,3.7986,3.7986,3.8469,3.8841,3.9073,3.895,3.9195,3.9265,3.8524,3.886,3.9157,3.86,3.8704,3.8933,3.8933,3.9218,3.9554,3.9917,4.0134,4.0488,4.0996,4.074,4.0655,4.1014,4.0967,4.1055,4.1581,4.1617,4.1904,4.2696,4.2732,4.2846,4.3142,4.3142,4.3268,4.3479,4.3497,4.3513,4.3548,4.3513,4.3532,4.3618,4.3532,4.3513,4.3548,4.3513,4.3532,2.3067,0.0,0.0,2.721,2.8248,2.9198,3.1506,3.2218,3.2545,3.3109,3.3711,3.412,3.4079,3.5224,3.6093,3.5851,3.708,3.7866,3.7336,3.6787,3.6025,3.4848,3.3687,3.3213,3.3783,3.3849,3.4011,3.4338,3.5161,3.5734,3.5955,3.7091,3.7489,3.6915,3.7516,3.7588,3.7013,3.7243,3.7355,3.7355,3.7949,3.8228,3.8247,3.8822,3.9101,3.9101,3.9101,3.9101,3.9101,3.9101,3.9231,3.9454,3.9454,3.9454,3.9491,3.9714,3.912,3.8228,3.8228,3.8228,3.8228,3.8228,3.8395,3.8637,3.899,3.9027,3.899,3.9361,3.9565,3.9645,3.9515,3.9717,3.9798,3.8864,3.9428,3.9982,3.9256,3.9539,3.9914,3.9914,4.0014,4.0273,4.0719,4.0877,4.1085,4.1516,4.0981,4.0823,4.1587,4.1463,4.1328,4.1472,4.1604,4.1821,4.2157,4.2198,4.2338,4.2673,4.2711,4.292,4.3304,4.3339,4.3375,4.3497,4.3497,4.3497,4.3497,4.3497,4.3497,4.3497,4.3497,4.3497,2.2741,0.0,2.4493,2.7823,2.9505,3.0775,3.2487,3.3526,3.4122,3.4063,3.4115,3.4153,3.404,3.473,3.5055,3.4213,3.6814,3.8289,3.6406,3.6862,3.6568,3.447,3.3506,3.2906,0.0,3.2709,3.3467,3.5124,3.6011,3.6805,3.7599,3.7691,3.7691,3.7673,3.7748,3.7803,3.7785,3.8609,3.9027,3.9027,3.9045,3.9064,3.9064,3.9082,3.9101,3.9101,3.9101,3.9101,3.9101,3.9101,3.9602,4.0346,4.0346,4.0346,4.0457,4.1237,4.0476,3.9064,3.9064,3.9064,3.9064,3.9064,3.964,4.016,3.9342,4.0215,4.133,4.0568,4.0725,4.113,4.113,4.0716,4.0293,4.0239,4.0052,3.9896,3.9878,3.9896,3.9914,3.9914,4.0379,4.0766,4.0784,4.0999,4.1265,4.1542,4.118,4.0977,4.1209,4.1356,4.1472,4.1472,4.1906,4.2198,4.2198,4.2198,4.2216,4.2198,4.2198,4.2418,4.2882,4.292,4.3105,4.3479,4.3497,4.3497,4.3497,4.3497,4.3497,4.3497,4.3497,4.3497,2.3529,2.531,2.739,2.9699,3.1524,3.3044,3.4279,3.4807,3.4878,3.4236,3.3665,3.3081,3.2455,3.2579,3.3043,3.3869,3.5737,3.6863,3.6178,3.6591,3.5853,3.2947,3.2686,0.0,0.0,0.0,0.0,3.4963,3.5892,3.672,3.7529,3.8122,3.8446,3.8446,3.8504,3.8533,3.8533,3.882,3.8979,3.8979,3.9007,3.9064,3.9101,3.9101,3.9101,3.9101,3.9101,3.9435,3.9955,3.9955,4.0438,4.12,4.12,4.12,4.1219,4.1497,4.1237,4.0754,4.0754,4.0754,4.0754,4.0754,4.0958,4.1126,4.0847,4.1144,4.1505,4.1077,4.1064,4.1107,4.0702,4.0836,4.0923,4.0213,4.0796,4.1301,4.0623,4.1047,4.1403,4.1071,4.1283,4.1417,4.1139,4.1126,4.1163,4.1152,4.1088,4.1088,4.0995,4.1041,4.1071,4.1071,4.1255,4.1346,4.1346,4.1346,4.1578,4.2157,4.2198,4.2537,4.3268,4.3304,4.3375,4.3497,4.3497,4.3497,4.3497,4.3497,4.3754,4.4305,4.4305,4.458,2.4479,2.658,2.8839,3.1242,3.2822,3.4039,3.5063,3.509,3.464,3.381,3.2716,3.1634,3.077,3.0609,3.104,3.242,3.3838,3.4851,3.5075,3.5506,3.4977,3.2784,3.2808,3.2944,0.0,0.0,0.0,3.4917,3.634,3.7257,3.7477,3.886,3.9369,3.878,3.9098,3.9146,3.8881,3.8881,3.891,3.891,3.8921,3.8979,3.9017,3.9017,3.9045,3.9045,3.9045,3.9389,3.9955,4.0271,4.0866,4.1627,4.1924,4.2017,4.2054,4.2352,4.2277,4.198,4.1702,4.159,4.159,4.159,4.1776,4.198,4.1683,4.192,4.2236,4.1751,4.1699,4.1663,4.1252,4.1461,4.1615,4.0917,4.1457,4.1979,4.1339,4.1623,4.1952,4.1648,4.1631,4.1552,4.1255,4.1117,4.1041,4.0918,4.0995,4.1041,4.0935,4.0888,4.0888,4.0888,4.0888,4.0888,4.0888,4.0888,4.1134,4.1709,4.1753,4.2032,4.2752,4.279,4.301,4.3413,4.3432,4.3577,4.3868,4.4035,4.4309,4.4649,4.4819,4.5093,2.5455,2.7224,2.8866,3.2203,3.3216,3.3677,3.4729,3.4304,3.3478,3.2814,3.1328,2.9877,0.0,0.0,2.9142,3.0037,3.1445,3.2675,3.3325,3.3971,3.4235,0.0,0.0,0.0,0.0,0.0,0.0,3.5174,0.0,3.8377,3.7672,3.9827,4.0396,3.8817,3.9595,3.9676,3.8847,3.8907,3.8966,3.8966,3.891,3.8929,3.8966,3.8929,3.8921,3.8997,3.8979,3.9073,3.9287,4.0123,4.0958,4.1794,4.2556,4.2853,4.2946,4.3726,4.3522,4.2742,4.198,4.172,4.172,4.172,4.224,4.2723,4.1943,4.2593,4.3431,4.2643,4.2558,4.2711,4.2673,4.2494,4.2287,4.2287,4.2061,4.1874,4.1892,4.1719,4.1604,4.156,4.1363,4.1163,4.1163,4.1059,4.0888,4.0888,4.0888,4.0888,4.0888,4.0888,4.0888,4.0888,4.0888,4.0888,4.0888,4.0888,4.0935,4.0918,4.097,4.1186,4.1587,4.1622,4.2194,4.3351,4.3369,4.3743,4.4484,4.4952,4.497,4.4581,4.5047,4.5024,2.6093,2.7871,2.9405,3.0655,3.1485,3.2224,3.2991,3.254,3.1749,3.1082,2.9492,2.796,0.0,0.0,0.0,2.9429,3.1581,0.0,3.4689,3.5906,0.0,3.4853,0.0,3.5495,3.5027,3.6688,0.0,0.0,3.834,3.8872,3.9258,4.0451,4.0653,3.9625,4.0377,4.0446,3.9619,3.9651,3.9663,3.9725,3.9098,3.9165,3.976,3.9169,3.891,3.8939,3.8997,3.9711,4.0908,4.1171,4.211,4.341,4.3615,4.3689,4.3726,4.3912,4.3875,4.3652,4.3466,4.3392,4.3392,4.3392,4.3522,4.3621,4.3208,4.3332,4.3474,4.2796,4.2663,4.2634,4.2454,4.2187,4.2019,4.2019,4.1849,4.1631,4.1436,4.1498,4.1515,4.1152,4.1012,4.0965,4.0965,4.0918,4.0888,4.0888,4.0888,4.0888,4.0888,4.0888,4.0888,4.0888,4.0888,4.0888,4.0888,4.0888,4.1041,4.1328,4.1932,4.2412,4.2843,4.3429,4.3881,4.4163,4.4163,4.427,4.4484,4.4614,4.4918,4.5427,4.5858,4.6349,2.7211,2.9016,3.0453,3.0951,3.1433,3.1684,3.128,3.0807,2.9988,2.8241,2.731,0.0,2.5702,0.0,0.0,0.0,0.0,0.0,3.4048,3.5495,3.6321,0.0,3.6835,0.0,3.7165,3.8414,3.9368,0.0,4.0084,4.0322,4.0414,4.1515,4.1625,4.0469,4.1222,4.124,4.0432,4.0432,4.0464,4.0478,4.0018,4.0068,4.0504,4.0062,3.989,3.9902,3.9933,4.0529,4.1447,4.1841,4.2526,4.3378,4.3812,4.3961,4.3942,4.3726,4.3882,4.4107,4.3756,4.3815,4.4088,4.4003,4.3923,4.3795,4.3664,4.3355,4.2995,4.2655,4.2396,4.2192,4.2019,4.1892,4.1762,4.1762,4.1587,4.1408,4.1255,4.1272,4.1198,4.0965,4.0888,4.0888,4.0888,4.0888,4.0888,4.0888,4.0888,4.0888,4.0888,4.0888,4.0888,4.0888,4.0888,4.0888,4.0888,4.1181,4.1497,4.1696,4.2492,4.3004,4.3248,4.3669,4.4074,4.4407,4.4407,4.4583,4.4869,4.5152,4.5382,4.5598,4.6049,4.6417,2.8328,2.9948,3.1176,3.1629,3.1781,3.1372,2.9641,2.9152,2.8278,2.5514,0.0,2.5515,2.4933,2.5405,2.6441,2.8128,0.0,3.0287,3.2696,3.4271,3.5752,3.7294,3.8303,3.9129,3.9827,4.0084,4.0506,4.1222,4.2011,4.2121,4.1313,4.2671,4.2855,4.1479,4.1992,4.1974,4.1277,4.1277,4.1277,4.1277,4.1167,4.1167,4.1277,4.1167,4.1126,4.1172,4.1204,4.1291,4.1501,4.2202,4.2553,4.2751,4.3555,4.3883,4.3832,4.3481,4.3816,4.4364,4.3524,4.3725,4.4346,4.4073,4.3869,4.364,4.3529,4.3013,4.2481,4.2333,4.1959,4.1604,4.1604,4.163,4.1683,4.1577,4.1433,4.1285,4.118,4.1041,4.0888,4.0888,4.0888,4.0888,4.0888,4.0888,4.0888,4.0888,4.0888,4.0888,4.0888,4.0888,4.0888,4.0888,4.0974,4.1026,4.1026,4.1716,4.2147,4.2147,4.2888,4.337,4.337,4.3423,4.3768,4.4423,4.4423,4.4751,4.5423,4.5854,4.5854,4.5423,4.5955,4.5955,2.8422,2.9195,2.942,2.9382,2.9603,2.9485,2.8297,2.7613,0.0,0.0,2.5153,2.4813,2.5354,2.5595,2.6433,2.8544,0.0,0.0,0.0,0.0,3.6431,0.0,0.0,0.0,0.0,4.1093,0.0,0.0,4.2837,4.2928,4.2139,4.2983,4.3369,4.3075,4.2561,4.2231,4.2084,4.2084,4.2084,4.2084,4.1423,4.146,4.2066,4.1405,4.1111,4.1111,4.119,0.0,4.223,4.2424,4.2936,4.3601,4.373,4.3837,4.3826,4.3962,4.44,4.4812,4.4218,4.4543,4.5112,4.4229,4.4021,4.3944,4.3178,4.3008,4.286,4.1982,4.1675,4.1604,4.1604,4.1943,4.2073,4.1411,4.1556,4.1708,4.1103,4.0918,4.0888,4.0888,4.0888,4.0888,4.0888,4.0888,4.0888,4.0888,4.0888,4.0888,4.0888,4.0888,4.0888,4.0888,4.144,4.1802,4.1802,4.2509,4.2957,4.2957,4.3664,4.4096,4.4096,4.4699,4.5096,4.5234,4.5234,4.5285,4.5423,4.5459,4.5476,4.5423,4.5955,4.6137,2.8073,2.9319,3.0046,2.9346,2.9439,2.9076,2.6771,0.0,0.0,0.0,2.4059,2.4414,2.4801,0.0,0.0,0.0,0.0,0.0,0.0,0.0,0.0,0.0,0.0,0.0,0.0,4.1222,4.2029,4.2855,4.3277,4.3314,4.2947,4.3277,4.3497,4.3497,4.313,4.291,4.291,4.291,4.291,4.291,4.2525,4.2543,4.291,4.2525,4.2359,4.2341,4.2375,4.261,4.2959,4.2993,4.3284,4.3652,4.3667,4.3566,4.3412,4.3697,4.4258,4.4794,4.4466,4.4926,4.5513,4.4839,4.4177,4.367,4.3601,4.2896,4.2113,4.2048,4.1928,4.1818,4.1818,4.2315,4.2618,4.1804,4.1518,4.1319,4.0957,4.1181,4.1457,4.1457,4.1785,4.2127,4.2127,4.1733,4.1457,4.1457,4.1457,4.1457,4.1457,4.1819,4.1971,4.1509,4.1767,4.2147,4.2561,4.3302,4.3801,4.3801,4.4458,4.4872,4.4872,4.5234,4.5423,4.5423,4.5423,4.5423,4.5423,4.5423,4.5423,4.5423,4.5667,4.5803,2.78,2.9453,3.0641,2.9643,2.9535,2.8855,2.5707,2.5535,0.0,0.0,2.314,2.4071,2.4253,0.0,0.0,0.0,0.0,0.0,0.0,0.0,0.0,0.0,0.0,0.0,0.0,4.1277,0.0,4.3387,4.3497,4.3497,4.3497,4.3497,4.3497,4.3497,4.3497,4.3497,4.3497,4.3497,4.3497,4.3497,4.3497,4.3497,4.3497,4.3497,4.3497,4.3497,4.341,4.341,4.3479,4.341,4.341,4.3497,4.3628,4.3487,4.3246,4.3686,4.4293,4.4897,4.4662,4.5107,4.5748,4.5318,4.4378,4.3386,4.3873,4.2745,4.1482,4.2124,4.2137,4.2026,4.2199,4.2748,4.3059,4.2388,4.1785,4.1371,4.1371,4.1836,4.225,4.225,4.28,4.3214,4.3214,4.2664,4.225,4.225,4.225,4.225,4.225,4.2834,4.3042,4.2526,4.2475,4.2733,4.3404,4.4096,4.4527,4.4527,4.5096,4.5423,4.5423,4.5423,4.5423,4.5423,4.5423,4.5423,4.5423,4.5423,4.5423,4.5423,4.5596,4.5682,2.792,2.9017,2.9397,2.913,2.8801,2.7987,2.5778,0.0,0.0,2.362,2.337,2.3692,2.4449,0.0,0.0,0.0,0.0,0.0,0.0,0.0,0.0,0.0,0.0,0.0,0.0,4.1772,4.2543,4.3424,4.3497,4.3497,4.3497,4.3497,4.3497,4.3497,4.3497,4.3497,4.3497,4.3497,4.3497,4.3497,4.3497,4.3497,4.3497,4.3497,4.3497,4.3479,4.3105,4.3142,0.0,4.3123,4.3178,4.3518,4.3851,4.3932,4.3996,4.4572,4.5128,4.5517,4.5059,4.5444,4.6038,4.5211,4.4407,4.3623,4.3092,4.2463,4.1937,4.2023,4.204,4.2147,4.2921,4.3162,4.3197,4.3128,4.3059,4.3007,4.3007,4.3059,4.3111,4.3111,4.3162,4.3214,4.3214,4.3162,4.3111,4.3111,4.3111,4.3111,4.3111,4.318,4.3456,4.3992,4.4061,4.4096,4.4165,4.4872,4.532,4.532,4.5389,4.5423,4.5423,4.5423,4.5423,4.5423,4.5423,4.5423,4.5423,4.5423,4.5423,4.5441,4.6165,4.6493,2.557,2.7153,2.8305,2.8678,2.8455,2.7545,2.5195,0.0,0.0,2.3124,2.3093,2.3499,2.3825,2.3844,0.0,0.0,0.0,0.0,0.0,0.0,0.0,0.0,0.0,0.0,0.0,0.0,4.2121,4.3387,4.3497,4.3497,4.3497,4.3497,4.3497,4.3497,4.3497,4.3497,4.3497,4.3497,4.3497,4.3497,4.3497,4.3497,4.3497,4.3497,4.3375,4.3142,4.3232,4.3214,0.0,4.3232,4.347,4.3796,4.3953,4.3953,4.3953,4.4636,4.507,4.5329,4.5585,4.5923,4.6133,4.5817,4.496,4.4121,4.4327,4.3605,4.2785,4.3233,4.3354,4.344,4.3751,4.3837,4.3837,4.3837,4.3492,4.3214,4.3214,4.3577,4.3837,4.3837,4.4216,4.4527,4.4527,4.4147,4.3837,4.3837,4.3837,4.3837,4.3837,4.4251,4.4647,4.4941,4.4544,4.4458,4.4923,4.5251,4.5423,4.5423,4.5423,4.5423,4.5423,4.5423,4.5423,4.5423,4.5423,4.5423,4.5423,4.5423,4.5665,4.6148,4.6458,4.6855,2.3145,2.4846,2.6276,2.7205,2.6866,2.5847,0.0,0.0,0.0,2.2347,2.2647,2.3153,2.3153,2.3382,2.3558,0.0,0.0,2.539,0.0,0.0,0.0,0.0,0.0,3.7577,0.0,4.1258,4.2286,4.3406,4.3497,4.3497,4.3497,4.3497,4.3497,4.3497,4.3497,4.3444,4.3339,4.3444,4.3444,4.3339,4.3444,4.3497,4.3497,4.3375,4.316,4.292,4.305,4.3014,0.0,4.3452,4.3779,4.402,4.4119,4.4153,4.416,4.4558,4.4907,4.5187,4.5745,4.5938,4.5938,4.5938,4.5336,4.4716,4.5251,4.4371,4.337,4.4061,4.444,4.4578,4.4337,4.444,4.4561,4.4337,4.4234,4.4199,4.4199,4.4768,4.5303,4.5303,4.5734,4.6096,4.6096,4.5648,4.5303,4.5303,4.5303,4.5216,4.4992,4.5441,4.5682,4.5458,4.4941,4.4837,4.5389,4.5423,4.5423,4.5423,4.5423,4.5423,4.5423,4.5423,4.5544,4.5768,4.5768,4.5889,4.6096,4.6096,4.6389,4.6941,4.7165,4.7665,2.1159,2.2247,2.3001,2.4408,2.3533,2.2297,0.0,0.0,0.0,2.1524,2.2064,2.2605,2.2605,2.2842,2.302,2.302,0.0,0.0,0.0,0.0,0.0,0.0,0.0,3.5556,3.8456,4.1607,4.3461,4.3497,4.3497,0.0,4.3497,4.3497,4.3497,4.3497,4.3497,4.3304,4.292,4.3304,4.3304,4.292,4.3304,4.3497,4.3497,4.3087,4.2882,4.2882,4.2418,4.2458,0.0,4.3751,4.4077,4.4035,4.4366,4.467,4.483,4.4454,4.4768,4.5423,4.5423,4.5423,4.5423,4.5423,4.5423,4.5406,4.5423,4.4371,4.337,4.4061,4.482,4.5234,4.4475,4.4837,4.5216,4.4458,4.5458,4.6562,4.6562,4.7148,4.7683,4.7683,4.7683,4.77,4.77,4.7683,4.7683,4.7683,4.7683,4.7424,4.6682,4.6596,4.6286,4.551,4.5371,4.5406,4.5423,4.5423,4.5423,4.5423,4.5423,4.5423,4.5423,4.5423,4.5786,4.6579,4.6596,4.6958,4.77,4.77,4.77,4.7717,4.8459,4.9217,1.8833,1.9906,2.087,2.2476,2.2148,2.1214,2.0471,0.0,0.0,2.0524,2.1319,2.2243,2.247,2.2747,2.2935,2.2935,2.308,0.0,0.0,0.0,0.0,0.0,3.5981,3.8503,0.0,0.0,4.2736,4.2811,4.3178,4.3393,4.3322,4.2995,4.3032,4.3497,4.3124,4.3032,4.3233,4.3032,4.3032,4.3233,4.3123,4.3087,4.3069,4.2634,4.2418,4.2418,4.2595,4.2577,4.253,4.3599,4.3948,4.3899,4.4541,4.4953,4.5234,4.5113,4.5216,4.5423,4.5423,4.5423,4.5423,4.5423,4.5423,4.5423,4.5423,4.5096,4.4768,4.4992,4.5234,4.5372,4.513,4.5648,4.6165,4.5924,4.6631,4.7372,4.7372,4.7562,4.7717,4.7717,4.7717,4.7717,4.7717,4.7717,4.7717,4.7717,4.7717,4.7631,4.7389,4.7372,4.7269,4.701,4.6993,4.6562,4.551,4.5924,4.6234,4.6234,4.6234,4.6458,4.6975,4.651,4.6596,4.7355,4.7372,4.7476,4.7717,4.7717,4.7976,4.8493,4.9269,4.9769,0.0,1.76,1.8401,2.0022,1.9939,0.0,0.0,0.0,0.0,0.0,2.0715,2.1765,2.2337,2.2605,2.2721,2.2721,2.279,0.0,0.0,0.0,0.0,0.0,0.0,0.0,0.0,4.1035,4.2414,4.2487,4.3032,4.3214,4.2939,4.2657,4.26,4.2847,4.2541,4.2519,4.2844,4.2693,4.2693,4.2882,4.2788,4.2693,4.2519,4.2015,4.1785,4.1803,4.2098,4.2234,0.0,4.3227,4.381,4.41,4.434,4.4796,4.5283,4.5043,4.5182,4.5423,4.5423,4.5423,4.5423,4.5423,4.5423,4.5372,4.5079,4.5199,4.5423,4.5423,4.5648,4.5872,4.5872,4.6441,4.7027,4.7027,4.7596,4.8131,4.8131,4.8372,4.8579,4.8579,4.8579,4.8579,4.8579,4.8579,4.8579,4.8579,4.8579,4.8476,4.8165,4.8131,4.8027,4.7751,4.7717,4.732,4.6372,4.6751,4.7027,4.7027,4.7027,4.7234,4.77,4.7269,4.7372,4.8114,4.8131,4.8269,4.8579,4.8579,4.8821,4.9269,4.9769,5.0011,0.0,1.5416,1.5835,1.7225,1.7179,1.6864,0.0,0.0,0.0,0.0,0.0,2.1117,2.2141,2.2349,2.2349,2.2349,2.2372,0.0,0.0,0.0,0.0,0.0,3.4546,0.0,3.7108,4.0328,4.2393,4.2315,4.281,4.2921,4.2372,4.2368,4.2185,4.1768,4.1725,4.1743,4.1924,4.2262,4.2284,4.2032,4.2284,4.2226,4.1895,4.1348,4.1076,0.0,4.1076,4.154,4.2236,4.2775,4.3553,4.4347,4.3969,4.4366,4.5108,4.4561,4.4751,4.5371,4.5371,4.5371,4.5371,4.5371,4.5371,4.5233,4.4578,4.4854,4.5388,4.5492,4.6044,4.6613,4.6665,4.7234,4.7786,4.7786,4.8372,4.8907,4.8907,4.9493,5.0011,5.0011,5.0011,5.0011,5.0011,5.0011,5.0011,5.0011,5.0011,4.9735,4.8993,4.8907,4.8648,4.7958,4.7872,4.7872,4.7872,4.782,4.7786,4.7786,4.7786,4.782,4.7872,4.782,4.8148,4.889,4.8907,4.9269,5.0011,5.0011,5.0011,5.0011,5.0011,5.0011,1.2969,0.0,1.4713,1.5241,1.548,1.5712,0.0,0.0,0.0,0.0,0.0,2.036,2.1362,2.1781,2.1945,2.1945,2.2605,2.3473,2.4462,0.0,0.0,3.1829,3.5465,3.7725,3.7366,3.9931,4.123,4.0403,4.1736,4.2109,4.0937,4.1077,4.1139,4.1065,4.0689,4.1047,4.2257,4.1639,4.1621,4.2297,4.17,4.1375,4.1303,4.0849,4.0802,4.1076,4.1076,4.1226,4.1487,4.2748,4.3239,4.3203,4.425,4.4814,4.5015,4.4898,4.4949,4.5086,4.5194,4.5194,4.5086,4.5194,4.5247,4.5213,4.5147,4.5285,4.5544,4.6148,4.6458,4.6734,4.732,4.801,4.8562,4.8562,4.9166,4.9735,4.9735,4.9873,5.0011,5.0011,5.0011,5.0011,5.0011,5.0011,5.0011,5.0011,5.0011,4.9942,4.9752,4.9735,4.9666,4.9493,4.9476,4.9476,4.9476,4.8924,4.8562,4.8562,4.8562,4.8838,4.9441,4.889,4.8924,4.9717,4.9735,4.9821,5.0011,5.0011,4.9935,4.9784,4.9935,4.9935,1.1959,1.2916,1.3901,1.4356,1.4718,1.5027,1.5477,0.0,0.0,0.0,0.0,0.0,2.1035,2.1462,0.0,2.2212,2.3093,0.0,0.0,0.0,0.0,3.2752,3.563,3.7663,0.0,3.9608,4.0455,4.021,4.0998,4.1213,4.0637,4.0718,4.0707,4.0483,4.0221,4.0611,4.1648,4.1139,4.1168,4.176,4.123,4.0879,4.0707,4.0451,4.0451,4.0642,4.0642,4.1037,4.1675,4.2205,4.2843,4.3603,4.4187,4.4579,4.494,4.4995,4.4978,4.5032,4.5086,4.5086,4.4981,4.4692,4.4849,4.5125,4.4799,4.523,4.592,4.6421,4.6855,4.7286,4.8027,4.8786,4.9373,4.9373,4.9683,5.0011,5.0011,5.0011,5.0011,5.0011,5.0011,5.0011,5.0011,5.0287,5.0511,5.0511,5.0511,5.0511,5.0511,5.0218,5.0011,5.0011,5.0011,5.0011,5.0011,4.9614,4.9373,4.9373,4.9373,4.9562,4.9993,4.9522,4.943,4.9842,4.9935,5.0011,5.0011,5.0011,4.9935,4.9708,4.9784,4.9784,1.1394,1.2187,1.3182,1.398,1.4438,1.478,0.0,0.0,0.0,0.0,0.0,0.0,0.0,0.0,0.0,0.0,0.0,0.0,2.7956,3.0176,3.1952,3.3102,3.5436,0.0,3.8548,3.9299,3.991,4.05,4.0287,4.0227,4.05,4.0431,4.0309,4.0121,3.9969,4.0201,4.0707,4.0707,4.0802,4.099,4.0802,4.0531,4.0255,4.0138,4.007,4.007,0.0,0.0,4.1914,4.1525,4.2506,4.4253,4.3956,4.4232,4.4776,4.4886,4.4923,4.4923,4.4923,4.4923,4.4875,4.426,4.4519,4.5037,4.4434,4.5169,4.6323,4.6763,4.7351,4.8006,4.8747,4.9436,4.9935,4.9935,5.0011,5.0011,5.0011,5.0011,5.0011,5.0011,5.0011,5.0045,5.0149,5.0597,5.0976,5.1097,5.1011,5.0942,5.0942,5.039,5.0011,5.0011,5.0011,5.0011,5.0011,5.0011,5.0011,5.0011,5.0011,5.0011,5.0011,4.9801,4.9708,4.9708,4.986,4.9935,4.9935,4.9935,4.986,4.9649,4.9649,4.959,1.118,1.1627,1.227,1.3331,1.4318,1.5134,0.0,0.0,0.0,0.0,0.0,0.0,0.0,0.0,0.0,0.0,0.0,2.8803,0.0,0.0,3.2916,3.251,0.0,3.7567,3.7161,3.8682,3.9564,3.9287,3.9026,3.9015,3.9253,3.871,3.8899,4.0087,3.9478,3.9494,4.0204,4.0221,4.0402,4.0849,4.0402,4.0171,4.0121,4.0138,4.007,4.007,0.0,4.0206,4.051,4.1644,4.2337,4.276,4.3999,4.4524,4.4626,4.4626,4.4682,4.4682,4.4682,4.4737,4.4814,4.4712,4.4746,4.4988,4.5572,4.5935,4.6379,4.7734,4.8196,4.8494,4.9348,4.9622,4.9784,4.9784,4.986,5.0011,5.0011,5.0011,5.0011,5.0011,5.0011,5.02,5.0838,5.0528,5.039,5.1028,5.058,5.0183,5.0183,5.008,5.0011,5.0011,5.0011,5.0011,5.0011,5.0011,5.0011,5.0011,5.0011,5.0011,5.0011,4.9683,4.9666,4.9935,4.9784,4.9784,4.9784,4.9784,4.959,4.929,4.9471,4.9411,1.0802,1.1475,1.2336,1.3307,1.4097,0.0,0.0,0.0,0.0,0.0,0.0,0.0,0.0,0.0,0.0,0.0,0.0,3.07,3.2188,3.2983,3.3575,0.0,0.0,3.6857,3.7347,3.7853,3.8223,3.8379,3.7921,3.8035,3.8937,3.8667,3.8802,3.9462,3.9174,3.9157,3.9478,3.9495,3.9831,4.0451,4.0221,4.007,4.007,4.007,4.007,4.007,0.0,4.0307,4.0747,4.1424,4.2185,4.2963,4.3673,4.4215,4.4587,4.4587,4.4587,4.4587,4.4587,4.4626,4.4682,4.4682,4.5009,4.5456,4.5813,4.6476,4.7316,4.8055,4.8319,4.8548,4.9401,4.959,4.959,4.959,4.9666,4.9742,4.9801,4.986,4.986,5.0011,5.0245,5.0565,5.1045,5.1434,5.1666,5.1615,5.1365,5.1003,5.0548,5.0194,5.0011,5.0011,5.0011,4.9935,4.986,4.9935,5.0011,5.0011,4.9935,4.9801,4.9742,4.9666,4.9666,4.9742,4.9725,4.9708,4.9708,4.9649,4.9693,4.9858,4.992,5.0062,1.0467,1.1204,1.2134,0.0,0.0,0.0,0.0,0.0,0.0,0.0,0.0,0.0,0.0,0.0,0.0,0.0,3.0071,3.2102,3.3496,3.3698,3.4206,3.5442,3.5774,3.6349,3.7533,3.711,3.7094,3.7838,3.7043,3.7161,3.865,3.8396,3.8362,3.8717,3.8565,3.8565,3.8734,3.8734,3.9191,4.007,4.007,4.007,4.007,4.007,4.007,4.007,4.007,4.0409,4.095,4.1136,4.188,4.2929,4.3284,4.3893,4.4587,4.4587,4.4587,4.4587,4.4587,4.4587,4.4587,4.4587,4.5072,4.5671,4.5913,4.6811,4.7878,4.8201,4.8439,4.8652,4.9274,4.9428,4.9428,4.9428,4.9488,4.9599,4.9829,4.9786,4.9828,5.0324,5.0566,5.0944,5.1443,5.218,5.2563,5.1998,5.188,5.1571,5.09,5.0282,5.0004,5.0135,5.0039,4.986,4.9649,4.9801,4.9877,4.9877,4.9666,4.959,4.9547,4.959,4.959,4.9547,4.959,4.9735,4.9864,4.9744,5.0032,5.0595,5.0595,5.082,1.0244,1.038,1.0733,1.1977,0.0,0.0,0.0,0.0,0.0,0.0,0.0,0.0,0.0,0.0,2.7724,2.8605,3.1021,3.3176,3.4376,0.0,3.4905,3.5515,3.6265,3.6738,3.6857,3.6806,3.7094,3.7838,3.6535,3.6366,3.7905,3.6637,3.6518,3.7939,3.7313,3.728,3.7973,3.799,3.8684,4.007,4.007,4.007,4.007,4.007,4.007,4.007,4.007,4.0104,4.0206,4.0916,4.1271,4.1491,4.2878,4.3893,4.4587,4.4587,4.4587,4.4587,4.4587,4.4587,4.4587,4.4587,4.4621,4.4981,4.6295,4.6786,4.7158,4.8528,4.8934,4.8995,4.9152,4.9229,4.9229,4.9229,4.935,4.9676,5.0393,4.9983,4.9898,5.1298,5.1059,5.1059,5.2426,5.217,5.1777,5.1725,5.1145,5.0683,5.0632,5.0069,4.9923,5.0522,5.0078,4.9666,4.9547,4.9547,4.9547,4.9547,4.935,4.935,4.9649,4.9411,4.9411,4.9708,4.959,4.9769,5.0362,5.0317,5.0612,5.1133,5.1133,5.1166,0.9911,1.0508,1.1377,0.0,0.0,0.0,0.0,0.0,0.0,0.0,0.0,0.0,0.0,0.0,2.7264,2.8042,3.0354,3.2466,3.3801,3.436,3.4911,3.5532,3.5876,3.6062,3.6062,3.6062,3.618,3.6468,3.5943,3.6079,3.7144,3.6654,3.6603,3.7195,3.6924,3.6924,3.7195,3.7212,3.7956,3.9411,3.9411,3.9648,4.007,4.007,4.007,4.007,4.007,4.007,4.0104,4.0392,4.0781,4.1356,4.2844,4.3893,4.4587,4.4587,4.4587,4.4587,4.4587,4.4587,4.4587,4.4587,4.4891,4.5466,4.6481,4.7124,4.7716,4.8714,4.9001,4.9001,4.9063,4.9063,4.9063,4.9063,4.9124,4.9253,4.9664,4.9869,5.0237,5.0861,5.1446,5.1924,5.2055,5.2554,5.2456,5.1123,5.1134,5.1083,5.0577,5.0376,5.0368,5.0598,4.9871,4.9411,4.9488,4.9307,4.9246,4.929,4.9229,4.9511,5.011,5.0005,5.0226,5.081,5.0765,5.0839,5.1065,5.0939,5.1248,5.1894,5.1894,5.2164,0.9683,1.0435,1.148,0.0,0.0,0.0,0.0,0.0,0.0,0.0,0.0,0.0,0.0,0.0,0.0,0.0,2.9311,3.1482,3.2773,3.3389,3.4088,3.5098,3.5224,3.5287,3.5487,3.5549,3.5549,3.5503,3.5549,3.5768,3.6308,3.6388,3.6388,3.6388,3.6388,3.6388,3.6388,3.6342,3.7084,3.8601,3.8601,3.9091,4.007,4.007,4.007,4.007,4.007,4.007,4.007,4.007,4.0663,4.1644,4.2675,4.369,4.4587,4.4587,4.4587,4.4587,4.4587,4.4587,4.4587,4.4587,4.4925,4.5483,4.6227,4.6972,4.7716,4.846,4.8832,4.9001,4.9001,4.9001,4.9001,4.9001,4.9001,4.9069,4.9413,4.9933,5.0442,5.1043,5.1898,5.2445,5.2303,5.3054,5.2989,5.0968,5.1354,5.1605,5.0764,5.0788,5.0827,5.0588,4.9909,4.9423,4.9324,4.9124,4.9165,4.9447,4.9447,4.9763,5.0368,5.0606,5.0963,5.1473,5.149,5.1592,5.1766,5.162,5.1944,5.2689,5.2689,5.2976,0.9692,1.0017,0.0,0.0,0.0,0.0,0.0,0.0,0.0,0.0,0.0,0.0,0.0,0.0,0.0,2.5672,2.8067,3.0387,3.1418,3.1706,3.2408,3.417,3.435,3.4625,3.5211,3.5383,3.5429,3.5291,3.5446,3.5463,3.5308,3.5463,3.5508,3.5508,3.5492,3.5492,3.5492,3.5354,3.6092,3.7696,3.7713,3.8569,4.007,4.007,4.007,4.0087,4.007,4.007,4.0087,4.0087,4.095,4.2286,4.2286,4.3217,4.457,4.457,4.457,4.457,4.457,4.457,4.457,4.4587,4.4587,4.4722,4.5483,4.621,4.6938,4.7699,4.8443,4.9001,4.9001,4.9001,4.9001,4.9001,4.9001,4.9204,4.9915,5.0084,5.0524,5.1995,5.23,5.2553,5.3348,5.3501,5.2993,5.1454,5.1843,5.2046,5.1319,5.1363,5.1218,5.0487,5.0243,4.9796,4.9086,4.9018,4.9323,5.005,5.0101,5.0181,5.0419,5.1116,5.149,5.1507,5.1507,5.18,5.2317,5.2317,5.2723,5.3501,5.3501,5.3501,1.0137,1.1397,0.0,0.0,0.0,0.0,0.0,0.0,0.0,0.0,0.0,0.0,0.0,0.0,0.0,2.627,2.7855,2.9288,3.0092,3.0627,3.1341,3.2289,3.2418,3.2673,3.3234,3.371,3.4163,3.4504,3.5522,3.6142,3.6078,3.6125,3.6125,3.6125,3.5622,3.5354,3.5354,3.581,3.6547,3.755,3.8086,3.8925,3.9935,3.9935,3.9884,3.9816,3.9935,3.9884,3.9833,3.9833,4.0387,4.1328,4.194,4.2694,4.3496,4.3592,4.3592,4.3608,4.3592,4.3703,4.3859,4.4401,4.4587,4.4722,4.5483,4.5855,4.6295,4.7564,4.8071,4.8359,4.8883,4.9001,4.9001,4.9001,4.9001,4.9069,4.9272,4.9729,5.0371,5.1352,5.1961,5.2384,5.2604,5.3129,5.2993,5.1454,5.1843,5.2232,5.2012,5.2061,5.1959,5.1756,5.0773,5.0219,5.0541,5.0067,5.0084,5.0828,5.1369,5.164,5.1722,5.1942,5.2315,5.289,5.2907,5.3009,5.3145,5.3145,5.3264,5.3501,5.3501,5.3501,1.0551,0.0,0.0,0.0,0.0,0.0,0.0,0.0,0.0,0.0,0.0,0.0,0.0,2.4353,0.0,2.61,2.7115,2.8144,2.9053,2.9536,3.013,3.1031,3.1112,3.1357,3.1851,3.2578,3.3127,3.3367,3.4706,3.5612,3.5861,3.5856,3.6,3.63,3.5582,3.5332,3.5632,3.6035,3.6769,3.787,3.8338,3.894,3.9746,3.9798,3.9798,3.9729,3.9781,3.9781,3.9677,3.9677,4.0113,4.0833,4.1392,4.1997,4.2596,4.2635,4.2707,4.2702,4.3043,4.3199,4.3389,4.4148,4.4457,4.4581,4.4997,4.5392,4.5957,4.7141,4.7682,4.8088,4.8815,4.9001,4.9001,4.9001,4.9001,4.9001,4.9001,4.9576,5.0321,5.1065,5.1809,5.2401,5.2723,5.3179,5.3078,5.1826,5.2029,5.2418,5.2739,5.2503,5.23,5.23,5.098,5.0388,5.115,5.0524,5.0541,5.1589,5.2063,5.2435,5.2756,5.279,5.301,5.3501,5.3501,5.3501,5.3501,5.3501,5.3501,5.3501,5.3501,5.3501,0.0,0.0,0.0,0.0,0.0,0.0,0.0,0.0,0.0,0.0,0.0,0.0,2.3824,2.3987,2.4364,2.5466,2.6191,2.7039,2.8256,2.845,2.8921,3.0022,3.0135,3.0339,3.0874,3.1702,3.2196,3.2111,3.3382,3.4459,3.5072,3.507,3.5345,3.6073,3.5376,3.5326,3.599,3.5959,3.6688,3.8285,3.8284,3.8716,3.9501,3.9642,3.9677,3.9677,3.9677,3.9677,3.9677,3.9677,4.0079,4.0645,4.0766,4.1184,4.177,4.177,4.177,4.1887,4.2624,4.2892,4.3026,4.3846,4.4212,4.431,4.431,4.4855,4.5696,4.6422,4.7166,4.7926,4.8714,4.8951,4.9001,4.9001,4.9001,4.9001,4.9001,4.9526,5.0219,5.098,5.1708,5.2435,5.3162,5.3348,5.3145,5.2418,5.23,5.2587,5.3399,5.2807,5.2334,5.2401,5.1082,5.0524,5.1352,5.0727,5.0896,5.2317,5.2418,5.2739,5.3467,5.3501,5.3501,5.3501,5.3501,5.3501,5.3501,5.3501,5.3501,5.3501,5.3501,5.3501,0.0,0.0,0.0,0.0,0.0,0.0,0.0,0.0,0.0,0.0,0.0,2.2748,2.3297,2.3389,2.3763,2.4944,2.5675,2.6316,2.701,2.7528,2.7895,2.8167,2.8182,2.8369,2.8881,3.008,3.0982,3.1334,3.3149,3.451,3.5053,3.4699,3.4736,3.5326,3.4658,3.4381,3.4528,3.5065,3.6004,3.7401,3.7482,3.8192,3.9325,3.9484,3.9537,3.9537,3.9432,3.9432,3.9537,3.9432,3.9478,3.9677,4.0404,4.0683,4.0707,4.0855,4.0871,4.0988,4.1705,4.2028,4.2356,4.3662,4.4097,4.4155,4.4155,4.4272,4.4615,4.5337,4.6118,4.6995,4.7754,4.85,4.9001,4.9001,4.9001,4.9001,4.9001,4.912,4.9458,5.0185,5.093,5.1505,5.1674,5.2181,5.2503,5.2334,5.23,5.2587,5.3399,5.2807,5.2536,5.3179,5.1894,5.1539,5.2892,5.2283,5.2232,5.3179,5.3247,5.3315,5.3501,5.3501,5.3501,5.3501,5.3501,5.3501,5.3501,5.3501,5.3501,5.3501,5.3501,5.3501,0.0,0.0,0.0,0.0,0.0,0.0,0.0,0.0,0.0,0.0,2.1053,2.2239,2.2698,2.2804,2.3204,2.4403,2.4819,2.5412,2.6529,2.6997,2.7255,2.7575,2.7625,2.7846,2.8399,2.9407,3.0228,3.0766,3.2415,3.3693,3.4295,3.3994,3.4054,3.4723,3.4066,3.3858,3.421,3.483,3.5873,3.7219,3.7568,3.816,3.8827,3.9202,3.9379,3.9379,3.9325,3.9325,3.9379,3.9325,3.9272,3.9375,3.9794,3.9943,3.9906,3.9943,4.0014,4.0109,4.1172,4.1594,4.1899,4.3381,4.3939,4.3998,4.3998,4.4056,4.4248,4.4968,4.5513,4.6126,4.7234,4.7883,4.8315,4.881,4.894,4.9001,4.9001,4.9001,4.9221,4.9949,5.0405,5.0794,5.115,5.1539,5.1775,5.1775,5.1775,5.1928,5.235,5.1725,5.1674,5.2807,5.1572,5.1437,5.3348,5.2756,5.2638,5.345,5.3501,5.3501,5.3501,5.3501,5.3501,5.3501,5.3501,5.3501,5.3501,5.3501,5.3501,5.3501,5.3501,5.3501,0.0,0.0,0.0,0.0,0.0,0.0,0.0,0.0,0.0,1.9824,2.0757,2.1601,2.2137,2.2192,2.2498,2.3595,2.3865,2.4529,2.6183,2.6563,2.6893,2.7408,2.7524,2.7844,2.8532,2.9205,2.9834,3.0447,3.1556,3.2532,3.327,3.3045,3.3253,3.3943,3.3392,3.3323,3.3889,3.4526,3.5435,3.6761,3.7584,3.8052,3.8165,3.8843,3.9148,3.9148,3.9272,3.9272,3.9272,3.9272,3.9272,3.9272,3.9272,3.9272,3.9272,3.9272,3.9272,3.9471,4.0912,4.1326,4.1508,4.3098,4.3621,4.3656,4.3789,4.3939,4.4173,4.4758,4.5026,4.5503,4.6815,4.7312,4.7596,4.8539,4.8815,4.894,4.9001,4.9001,4.9187,4.9779,4.9898,5.0135,5.0896,5.0913,5.0879,5.0997,5.1133,5.1217,5.1217,5.0676,5.0811,5.2164,5.1082,5.115,5.3315,5.2892,5.279,5.3467,5.3501,5.3501,5.3501,5.3501,5.3501,5.3501,5.3501,5.3501,5.3501,5.3501,5.3501,5.3501,5.3501,5.3501,0.0,0.0,0.0,0.0,0.0,0.0,0.0,0.0,0.0,0.0,1.9661,2.0527,2.1472,2.1224,2.1288,2.2457,2.3017,2.3768,2.5066,2.6082,2.6736,2.6841,2.7306,2.7844,2.8532,2.9205,2.9834,3.0447,3.1192,3.1898,3.2521,3.2012,3.1996,3.2616,3.2539,3.2468,3.2364,3.2653,3.3372,3.4541,3.5966,3.6959,3.7546,3.8165,3.8407,3.8463,3.9023,3.9272,3.9272,3.9272,3.9272,3.9272,3.9272,3.9272,3.9272,3.9272,3.9272,3.9471,4.0912,4.1011,4.0862,4.2949,4.3197,4.28,4.3429,4.3628,4.3704,4.3803,4.4404,4.5223,4.6057,4.6803,4.7579,4.8379,4.8547,4.8673,4.894,4.9001,4.9035,4.9137,4.9154,4.9373,5.0118,4.9712,4.9509,5.0152,5.0794,5.1217,5.1217,5.1133,5.1386,5.2215,5.1555,5.1725,5.3365,5.3399,5.3399,5.3501,5.3501,5.3501,5.3501,5.3501,5.3501,5.3501,5.3501,5.3501,5.3501,5.3501,5.3501,5.3501,5.3501,5.3501,0.0,0.0,0.0,0.0,0.0,0.0,0.0,0.0,1.7975,1.8247,1.8602,1.9182,2.0424,2.0654,2.1079,2.2232,2.2617,2.3285,2.4772,2.5314,2.5837,2.6616,2.6826,2.7445,2.8866,2.9277,2.9803,3.0787,3.1187,3.1509,3.1781,3.1467,3.1409,3.1781,3.1739,3.1625,3.1552,3.197,3.2998,3.474,3.6146,3.6773,3.6723,3.7472,3.7764,3.7822,3.8479,3.8717,3.8717,3.8717,3.8952,3.9272,3.9272,3.9272,3.9272,3.9272,3.9272,3.9421,4.0464,4.063,4.0613,4.1955,4.2452,4.2585,4.2916,4.3297,4.3628,4.3628,4.4202,4.4992,4.574,4.6533,4.7328,4.8125,4.8356,4.842,4.8673,4.8815,4.8894,4.9001,4.9001,4.9103,4.9424,4.9221,4.912,4.9424,4.9763,4.9982,4.9982,4.9982,5.0422,5.1572,5.1403,5.1826,5.3382,5.3501,5.3501,5.3501,5.3501,5.3501,5.3501,5.3501,5.3501,5.3501,5.3501,5.3501,5.3501,5.3501,5.3501,5.3501,5.3501,5.3501,0.0,0.0,0.0,0.0,0.0,0.0,0.0,0.0,1.7468,0.0,1.79,1.8409,1.9462,2.0167,2.1017,2.2224,2.2528,2.3047,2.453,2.4694,2.5007,2.6014,2.6122,2.6837,2.8799,2.9013,2.9628,3.0984,3.1176,3.1234,3.1234,3.1132,3.1132,3.1234,3.1132,3.1087,3.1014,3.1632,3.2868,3.4668,3.5753,3.6183,3.5879,3.6646,3.6935,3.689,3.7706,3.8051,3.8051,3.8051,3.8367,3.8805,3.8805,3.8914,3.9023,3.9023,3.9148,3.9388,4.0117,4.0266,4.0249,4.1127,4.1789,4.227,4.2452,4.3048,4.3628,4.3628,4.4141,4.4854,4.5599,4.6344,4.7073,4.7932,4.8179,4.8227,4.842,4.8627,4.8769,4.894,4.8956,4.894,4.9001,4.9001,4.9001,4.9001,4.9171,4.9221,4.9018,4.9171,4.9779,5.1082,5.1217,5.1826,5.3382,5.3501,5.3501,5.3501,5.3501,5.3501,5.3501,5.3501,5.3501,5.3501,5.3501,5.3501,5.3501,5.3501,5.3501,5.3501,5.3501,5.3501,0.0,0.0,0.0,0.0,0.0,0.0,0.0,0.0,0.0,1.7134,1.7946,1.8612,1.8669,1.9641,2.0874,2.2299,2.2776,2.3179,2.3859,2.4261,2.4509,2.4624,2.5119,2.6218,2.8083,2.8268,2.9045,3.0984,3.1087,3.1132,3.1132,3.1073,3.1087,3.1132,3.1073,3.1014,3.0821,3.1465,3.2247,3.3111,3.3839,3.446,3.5001,3.5672,3.5752,3.5394,3.6829,3.7429,3.7429,3.7429,3.7488,3.7488,3.7488,3.7838,3.8351,3.8351,3.8772,3.9388,4.0117,3.9918,3.9553,4.0961,4.1442,4.1607,4.2303,4.3048,4.3628,4.3628,4.4141,4.4854,4.5599,4.6344,4.709,4.7819,4.8001,4.8131,4.842,4.8483,4.8547,4.8769,4.8786,4.8832,4.9001,4.9001,4.9001,4.9001,4.9593,4.9779,4.9086,4.961,5.0338,5.1133,5.1217,5.1826,5.3382,5.3501,5.3501,5.3501,5.3501,5.3501,5.3501,5.3501,5.3501,5.3501,5.3501,5.3501,5.3501,5.3501,5.3501,5.3501,5.3501,5.3501,0.0,0.0,0.0,0.0,0.0,0.0,0.0,1.5735,1.624,1.625,1.6977,1.7712,1.824,1.9668,2.1001,2.1857,2.247,2.3103,2.361,2.3747,2.3956,2.4452,2.4509,2.5162,2.6717,2.7207,2.8029,2.9457,3.0021,3.0447,3.0895,3.0821,3.0821,3.0895,3.0821,3.0762,3.0702,3.1267,3.2046,3.2845,3.3539,3.4185,3.475,3.5118,3.5133,3.4883,3.5544,3.6102,3.6616,3.6723,3.6951,3.7251,3.737,3.7531,3.7706,3.7706,3.7895,3.8173,3.8844,3.8874,3.8809,3.9748,4.0368,4.0815,4.1074,4.2002,4.2974,4.2974,4.3805,4.4854,4.5599,4.6344,4.709,4.7819,4.8001,4.8001,4.8179,4.8244,4.8356,4.8564,4.8627,4.869,4.8832,4.8894,4.8894,4.9001,4.9221,4.9306,4.9035,4.9238,4.9864,5.1082,5.1217,5.1826,5.3382,5.3501,5.3501,5.3501,5.3501,5.3501,5.3501,5.3501,5.3501,5.3501,5.3501,5.3501,5.3501,5.3501,5.3501,5.3518,5.3991,5.4211,0.0,0.0,0.0,0.0,0.0,0.0,1.4029,0.0,1.555,1.568,1.6539,1.7417,1.7903,1.9463,2.0819,2.1343,2.2147,2.277,2.3135,2.3258,2.3497,2.4002,2.3884,2.436,2.5827,2.6377,2.7176,2.8566,2.9059,0.0,2.9979,3.019,3.0387,3.0702,3.0447,3.0387,3.0568,3.1206,3.1922,3.2733,3.3346,3.3988,3.4631,3.4668,3.475,3.4698,3.4817,3.5198,3.5752,3.5864,3.6117,3.6477,3.6585,3.6829,3.7071,3.7071,3.7191,3.7488,3.7879,3.8155,3.8386,3.8884,3.9654,4.0427,4.0388,4.1294,4.2253,4.2253,4.3249,4.4493,4.5271,4.6399,4.7388,4.7885,4.8001,4.8001,4.8001,4.8049,4.8179,4.8356,4.842,4.8483,4.8627,4.8707,4.8753,4.8894,4.9159,4.9328,4.9373,4.9593,5.0219,5.1454,5.1589,5.2097,5.3399,5.3501,5.3501,5.3501,5.3501,5.3501,5.3501,5.3501,5.3501,5.3501,5.3501,5.3501,5.3501,5.3501,5.3636,5.3873,5.4363,5.4854,0.0,0.0,0.0,0.0,0.0,0.0,1.3364,0.0,1.4634,1.5516,1.6698,1.7647,1.7668,1.902,2.0204,2.0794,2.1741,2.2372,2.2372,2.2811,2.3078,2.3078,2.3078,2.3796,2.5579,2.5759,2.6483,2.8319,2.8478,2.8492,2.8492,2.9156,2.987,3.0507,2.9931,2.987,3.0568,3.1116,3.1768,3.2527,3.3151,3.379,3.4414,3.4414,3.4481,3.4698,3.4698,3.475,3.4868,3.4935,3.5001,3.5228,3.5213,3.5703,3.6368,3.6368,3.6784,3.737,3.737,3.7828,3.8367,3.8399,3.9298,4.0322,4.0354,4.0923,4.1459,4.1459,4.2453,4.3733,4.4556,4.6372,4.7935,4.7935,4.7935,4.7935,4.7935,4.8001,4.8066,4.8163,4.8163,4.8227,4.8483,4.8483,4.8564,4.8803,4.9443,4.9961,5.0135,5.076,5.1488,5.2232,5.23,5.2638,5.3433,5.3501,5.3501,5.3501,5.3501,5.3501,5.3501,5.3501,5.3501,5.3501,5.3501,5.3518,5.3534,5.3534,5.3907,5.4583,5.4634,5.5429,1.0484,0.0,0.0,0.0,0.0,0.0,1.2613,1.3122,1.3811,1.4944,1.5783,1.6587,1.7544,1.8312,1.9061,1.953,2.1037,2.2175,2.2175,2.2689,2.3078,2.3078,2.3078,2.3475,2.438,2.4824,2.5653,0.0,2.7564,2.7986,2.8492,2.8684,2.8889,2.9079,2.8889,2.9156,2.987,3.004,3.0945,3.2513,3.2701,3.3354,3.4414,3.4414,3.4414,3.4481,3.4481,3.4481,3.4549,3.4802,3.4883,3.4831,3.5082,3.5344,3.5524,3.5733,3.5861,3.6085,3.6554,3.6785,3.7111,3.8103,3.8676,3.9025,3.9497,4.0186,4.0805,4.0805,4.1768,4.309,4.431,4.5527,4.634,4.634,4.6759,4.7118,4.7118,4.7555,4.8001,4.8066,4.8066,4.8115,4.8227,4.8292,4.854,4.9284,4.9698,5.0082,5.0669,5.1034,5.1488,5.2232,5.23,5.2638,5.3433,5.3501,5.3501,5.3501,5.3501,5.3501,5.3501,5.3501,5.3501,5.3501,5.3501,5.3754,5.4296,5.4296,5.4397,5.4617,5.5683,5.6697,0.0,0.0,0.0,0.0,0.0,0.0,1.231,1.28,1.3484,1.4764,1.5421,1.6016,1.6977,1.7522,1.7978,1.8433,1.9902,2.1047,2.1255,2.2051,2.2689,2.2689,2.2944,2.3364,2.3941,2.4506,2.5228,2.6193,2.6773,2.7351,2.8051,2.7802,2.792,2.8492,2.8247,2.8441,2.9156,2.9342,3.0367,3.2112,3.2291,3.3082,3.4414,3.4414,3.4414,3.4414,3.4414,3.4414,3.4414,3.4601,3.4683,3.4698,3.4898,3.5016,3.5082,3.5294,3.5359,3.5424,3.5846,3.6386,3.6964,3.774,3.8378,3.8864,3.9313,3.9681,4.0066,4.0355,4.1657,4.32,4.4294,4.5107,4.5697,4.5697,4.6253,4.6742,4.6394,4.6965,4.7638,4.7935,4.8001,4.81,4.853,4.858,4.8878,4.9809,5.0325,5.076,5.1245,5.1764,5.2184,5.2606,5.2724,5.2993,5.3467,5.3501,5.3501,5.3501,5.3501,5.3501,5.3501,5.3501,5.3653,5.3957,5.3957,5.4465,5.5513,5.4888,5.4905,5.5547,5.6714,5.7492,0.0,0.0,0.0,0.0,1.1336,0.0,1.2249,1.2692,1.3246,1.4518,1.5063,1.5526,1.6084,1.6547,1.6939,1.739,1.8416,1.9412,2.003,2.1175,2.2051,2.2113,2.2616,2.3255,2.4029,2.4531,2.5059,2.5649,2.6163,2.6782,2.7351,2.685,2.704,2.8247,2.7736,2.7802,2.8363,2.8958,2.9968,3.1377,3.1884,3.2925,3.4264,3.4264,3.4346,3.4414,3.4414,3.4414,3.4414,3.4414,3.4481,3.4698,3.4698,3.475,3.4868,3.5148,3.5213,3.5228,3.5514,3.6357,3.733,3.7479,3.8332,3.932,3.9394,3.9424,3.9574,4.0307,4.1895,4.3514,4.4189,4.4887,4.5405,4.5405,4.5969,4.6394,4.5697,4.6182,4.6913,4.767,4.777,4.7951,4.8693,4.8892,4.9292,5.0206,5.1023,5.1541,5.1745,5.2553,5.311,5.3025,5.3264,5.3501,5.3501,5.3501,5.3501,5.3501,5.3501,5.3551,5.3619,5.3619,5.3974,5.4702,5.4786,5.553,5.6917,5.5513,5.5564,5.6934,5.7577,5.7932,0.0,0.0,0.0,0.0,1.1677,0.0,1.1887,1.1808,1.1979,1.321,1.328,1.3487,1.4634,1.5186,1.5634,1.5991,1.7206,1.8516,1.9901,2.0805,2.1491,2.2051,2.2237,2.2885,2.4493,2.4757,2.5222,2.6214,2.6402,2.6589,2.6714,2.6589,2.6589,2.6905,2.7145,2.7421,2.767,2.8641,2.9638,3.0528,3.1046,3.2068,3.3437,3.3437,3.3811,3.4414,3.4414,3.4414,3.4414,3.4414,3.4414,3.4481,3.4631,3.4698,3.4765,3.5082,3.5213,3.5302,3.6037,3.6462,3.6836,3.7868,3.8377,3.8691,3.9245,3.9424,3.9664,4.0846,4.1896,4.2724,4.3386,4.363,4.3786,4.3786,4.4358,4.4871,4.4737,4.5332,4.6144,4.6789,4.651,4.6351,4.7052,4.77,4.8562,4.9847,5.0905,5.1499,5.149,5.235,5.2731,5.2224,5.2784,5.3332,5.3501,5.3501,5.3501,5.3501,5.3501,5.3771,5.4346,5.438,5.4735,5.548,5.6072,5.6799,5.7679,5.6799,5.6816,5.7679,5.7814,5.822,0.0,0.0,0.0,1.2115,1.1925,0.0,0.0,1.1991,1.2111,1.2927,1.2905,1.3047,1.3936,1.4286,1.4592,1.5219,1.6279,1.7352,1.8416,1.9726,2.0741,2.1037,2.1428,2.2079,2.3327,2.3698,2.4508,2.5937,2.6302,2.6533,2.6533,2.6533,2.6533,2.6533,2.6992,2.7354,2.7396,2.8439,2.9424,3.021,3.0711,3.1559,3.2648,3.3003,3.3227,3.3325,3.4045,3.4182,3.3811,3.4264,3.4414,3.4414,3.4481,3.4563,3.4616,3.4949,3.5274,3.5666,3.629,3.6911,3.7539,3.8182,3.8616,3.8975,3.932,3.9873,4.0606,4.1594,4.2342,4.3,4.3643,4.3584,4.3329,4.3329,4.3927,4.4373,4.4004,4.451,4.5164,4.5465,4.5249,4.5557,4.741,4.8036,4.8701,4.9773,5.0295,5.0814,5.1203,5.1769,5.2148,5.2274,5.2433,5.2951,5.3803,5.3276,5.3054,5.3422,5.3439,5.359,5.3958,5.4326,5.4862,5.5599,5.7105,5.7847,5.7792,5.7792,5.8144,5.8981,5.8626,5.8846,0.0,0.0,0.0,0.0,1.2278,1.2092,0.0,0.0,0.0,1.2887,1.293,1.3023,0.0,0.0,0.0,1.4322,0.0,0.0,0.0,1.8333,0.0,1.9823,2.0322,2.1019,2.2027,2.2766,2.3847,2.5406,2.5884,2.6271,2.6452,2.6533,2.6533,2.6533,2.7105,2.7394,2.7281,2.8486,2.9327,2.9878,3.0423,3.1132,3.1856,3.2506,3.2506,3.2146,3.3395,3.3604,3.3073,3.3825,3.4182,3.4182,3.4346,3.4414,3.4414,3.4802,3.5333,3.599,3.6477,3.7419,3.8407,3.8542,3.896,3.9424,3.9424,4.0337,4.1489,4.2028,4.2731,4.3449,4.3988,4.3733,4.3329,4.3329,4.3771,4.4066,4.3394,4.3877,4.4462,4.4524,4.4616,4.5414,4.7807,4.8373,4.8765,4.9473,4.9726,4.9978,5.0554,5.0935,5.1311,5.1842,5.1868,5.2342,5.3695,5.297,5.2646,5.3296,5.3255,5.3321,5.3544,5.4237,5.482,5.5457,5.743,5.8163,5.7635,5.8131,5.8927,5.9835,5.9,5.9194,0.0,0.0,0.0,0.0,1.2877,1.2757,1.2462,0.0,1.2431,1.2494,0.0,1.2503,0.0,0.0,0.0,0.0,0.0,0.0,1.4791,1.6616,1.8175,1.8818,1.8929,1.981,2.2029,2.3168,2.414,2.5272,2.5038,2.5301,2.6427,2.6533,2.6533,2.6533,2.7469,2.777,2.7293,2.8888,2.9517,2.9001,2.9656,3.0355,3.1044,3.1106,3.1476,3.2074,3.2304,3.2304,3.229,3.3017,3.3367,3.3437,3.4113,3.4414,3.4414,3.4802,3.5333,3.6049,3.6954,3.7778,3.8497,3.9095,3.9349,3.9424,3.9424,4.0337,4.1399,4.1474,4.2387,4.3344,4.3419,4.3389,4.3329,4.3329,4.3409,4.3409,4.3329,4.3873,4.4473,4.505,4.5678,4.6142,4.653,4.7247,4.7935,4.8615,4.9343,4.9583,4.8953,4.9503,4.9805,4.9311,5.0422,5.1389,5.1965,5.2421,5.2792,5.3139,5.3139,5.3431,5.408,5.4777,5.5263,5.5345,5.6206,5.6905,5.7439,5.7453,5.7919,5.8847,5.792,5.8379,0.0,0.0,0.0,0.0,0.0,0.0,1.2817,0.0,1.2663,1.244,0.0,0.0,0.0,0.0,0.0,0.0,1.404,1.474,0.0,0.0,1.6819,1.7605,0.0,0.0,2.0472,2.1444,2.2531,2.3845,2.372,2.4266,2.5857,2.5852,2.6173,2.6929,2.7695,2.8147,2.8235,2.9264,2.9666,2.9428,2.9679,2.9921,3.0279,3.0683,3.0833,3.0797,3.1723,3.1856,3.1476,3.2218,3.2577,3.2648,3.3381,3.3977,3.4414,3.4683,3.5516,3.6566,3.7124,3.8038,3.9035,3.9334,3.9424,3.9484,3.9873,4.0651,4.1534,4.2297,4.291,4.3419,4.3808,4.3614,4.3329,4.3329,4.3329,4.3329,4.3329,4.3554,4.4047,4.5095,4.5529,4.5978,4.6756,4.7202,4.7531,4.7819,4.8172,4.8407,4.8573,4.8872,4.9337,4.9875,4.9925,5.0499,5.206,5.1726,5.1692,5.2396,5.286,5.3403,5.4023,5.521,5.5663,5.5176,5.6675,5.7383,5.7269,5.7611,5.7996,5.842,5.8055,5.8592,1.3733,0.0,0.0,0.0,0.0,0.0,0.0,0.0,0.0,1.2783,1.3014,0.0,0.0,0.0,0.0,0.0,0.0,1.4392,0.0,1.5119,0.0,0.0,0.0,0.0,0.0,1.961,2.0707,2.211,2.2128,2.2881,2.4713,2.5002,2.5691,2.6959,2.7748,2.8373,2.8925,2.9503,2.9792,2.9792,2.9792,2.9792,2.9792,3.0343,3.0279,2.9869,3.1009,3.1145,3.0696,3.1415,3.1783,3.1856,3.2577,3.3241,3.3825,3.4481,3.5571,3.6866,3.7089,3.8162,3.9424,3.9424,3.9544,3.9768,4.0247,4.0995,4.1848,4.2791,4.3195,4.3449,4.3928,4.3688,4.3329,4.3329,4.3329,4.3329,4.3329,4.3479,4.3943,4.508,4.5454,4.5948,4.71,4.7309,4.7309,4.7309,4.7309,4.7538,4.8172,4.8256,4.8736,4.9968,4.9294,4.9641,5.1899,5.1236,5.11,5.2172,5.2659,5.3145,5.3648,5.4915,5.528,5.47,5.6629,5.7344,5.6757,5.7494,5.7856,5.784,5.7899,5.8453,0.0,0.0,0.0,1.4572,0.0,0.0,0.0,0.0,1.3947,0.0,0.0,0.0,0.0,0.0,0.0,0.0,0.0,0.0,0.0,0.0,0.0,1.6358,1.7417,0.0,0.0,1.8384,1.9192,2.0224,2.0313,2.1072,2.2796,2.3958,2.5081,2.6142,2.7432,2.8373,2.8925,2.9503,2.9792,2.9792,2.9792,2.9792,2.9792,2.9792,2.9792,2.9792,2.9869,2.9869,2.9856,3.062,3.097,3.1044,3.1856,3.2146,3.2376,3.4045,3.5517,3.6684,3.7089,3.8162,3.9424,3.9424,3.9843,4.0367,4.0382,4.1309,4.2419,4.2387,4.2851,4.3329,4.3359,4.3344,4.3329,4.3329,4.3329,4.3329,4.3329,4.3838,4.4481,4.517,4.5828,4.6516,4.7189,4.7309,4.7309,4.7309,4.7309,4.7309,4.7309,4.7294,4.7635,4.8295,4.8355,4.9057,5.0938,5.1029,5.1483,5.2606,5.2667,5.2683,5.2713,5.3451,5.3805,5.3714,5.51,5.5779,5.5794,5.6503,5.6858,5.6842,5.6827,5.737,0.0,0.0,1.4872,1.5,0.0,0.0,0.0,0.0,0.0,0.0,0.0,0.0,0.0,0.0,0.0,0.0,0.0,0.0,0.0,1.4805,1.578,1.6277,1.6732,0.0,0.0,0.0,1.7717,1.912,1.9051,1.9966,2.2108,2.3037,2.4495,2.655,2.733,2.8359,2.949,2.9691,2.9792,2.9792,2.9792,2.9792,2.9792,2.9792,2.9792,2.9792,2.9792,2.9792,2.9792,3.0075,3.0203,3.0279,3.0983,3.1492,3.2062,3.3716,3.4996,3.6115,3.7853,3.8892,3.9424,3.9424,3.9858,4.0487,4.092,4.1669,4.2447,4.288,4.3165,4.3329,4.3329,4.3329,4.3329,4.3329,4.3329,4.3449,4.3883,4.4152,4.4646,4.5753,4.6157,4.6531,4.7189,4.7309,4.7309,4.7309,4.7309,4.7459,4.7893,4.7578,4.7893,4.9419,4.8805,4.8999,5.0879,5.1254,5.1812,5.2667,5.2713,5.2914,5.336,5.4037,5.4591,5.5022,5.593,5.6407,5.6407,5.6638,5.6761,5.6761,5.6761,5.7186,1.536,1.5326,0.0,1.5394,1.5052,0.0,1.4521,0.0,1.4418,0.0,0.0,0.0,0.0,0.0,0.0,0.0,0.0,0.0,0.0,1.4955,1.5551,1.5708,1.594,1.6305,1.6956,1.6468,1.6601,1.7814,1.8039,1.8977,0.0,2.2072,2.3765,2.596,2.7049,2.8154,2.9287,2.9624,2.9792,2.9792,2.9792,2.9792,2.9792,2.9792,2.9792,2.9792,2.9792,2.9792,2.9792,2.9792,2.9792,2.9869,3.0343,3.0829,3.1474,3.3131,3.4615,3.6168,3.8047,3.8958,3.9424,3.9424,4.0023,4.0831,4.125,4.1998,4.2791,4.321,4.3329,4.3329,4.3329,4.3329,4.3329,4.3329,4.3329,4.3509,4.4167,4.4317,4.4721,4.6067,4.6322,4.6531,4.7189,4.7504,4.7578,4.7339,4.7504,4.7803,4.8237,4.8117,4.8566,5.0077,4.9269,4.9254,5.0909,5.1557,5.2147,5.2683,5.2929,5.3268,5.3698,5.4591,5.5391,5.6053,5.653,5.6884,5.7115,5.6884,5.6761,5.6761,5.7008,5.7485]},{"header":{"parameterUnit":"m.s-1","parameterCategory":1,"la1":30.6,"la2":29.2853,"lo1":-89.7004,"lo2":-87.6739,"dy":0.0162,"dx":0.0183,"nx":112,"ny":82,"refTime":"2024-02-22T06:00:00:Z","depth":0,"parameterNumber":3,"parameterNumberName":"V-component_of_WINDS"},"data":[0.0,0.0,0.0,0.0,0.0,0.0,0.0,0.0,0.0,0.0,0.0,0.0,0.0,0.0,0.0,0.0,0.0,0.0,0.0,0.0,0.0,0.0,0.0,0.0,0.0,0.0,0.0,0.0,0.0,0.0,0.0,0.0,0.0,0.0,0.0,0.0,0.0,0.0,0.0,0.0,0.0,0.0,0.0,0.0,0.0,0.0,0.0,0.0,0.0,0.0,0.0,0.0,0.0,0.0,0.0,0.0,0.0,0.0,0.0,0.0,0.0,0.0,0.0,0.0,0.0,0.0,0.0,0.0,0.0,0.0,0.0,0.0,0.0,0.0,0.0,0.0,0.0,0.0,0.0,0.0,0.0,0.0,0.0,0.0,0.0,0.0,0.0,0.0,0.0,0.0,-0.7613,-0.782,-0.7302,-0.6717,-0.6288,-0.5928,-0.5384,-0.4555,0.0,0.0,0.0,0.0,0.0,0.0,0.0,0.0,0.0,0.0,0.0,0.0,0.0,0.0,0.0,0.0,0.0,0.0,0.0,0.0,0.0,0.0,0.0,0.0,0.0,0.0,0.0,0.0,0.0,0.0,0.0,0.0,0.0,0.0,0.0,0.0,0.0,0.0,0.0,0.0,0.0,0.0,0.0,0.0,0.0,0.0,0.0,0.0,0.0,0.0,0.0,0.0,0.0,0.0,0.0,0.0,0.0,0.0,0.0,0.0,0.0,0.0,0.0,0.0,0.0,0.0,0.0,0.0,0.0,0.0,0.0,0.0,0.0,0.0,0.0,0.0,0.0,0.0,0.0,0.0,0.0,0.0,0.0,0.0,0.0,0.0,0.0,0.0,0.0,0.0,0.0,0.0,0.0,0.0,0.0,0.0,0.0,0.0,0.0,0.0,0.0,0.0,0.0,0.0,-0.7692,-0.877,-0.8265,-0.8054,-0.8377,-0.7579,-0.6727,-0.5778,0.0,0.0,0.0,0.0,0.0,0.0,0.0,0.0,0.0,0.0,0.0,0.0,0.0,0.0,0.0,0.0,0.0,0.0,0.0,0.0,0.0,0.0,0.0,0.0,0.0,0.0,0.0,0.0,0.0,0.0,0.0,0.0,0.0,0.0,0.0,0.0,0.0,0.0,0.0,0.0,0.0,0.0,0.0,0.0,0.0,0.0,0.0,0.0,0.0,0.0,0.0,0.0,0.0,0.0,0.0,0.0,0.0,0.0,0.0,0.0,0.0,0.0,0.0,0.0,0.0,0.0,0.0,0.0,0.0,0.0,0.0,0.0,0.0,0.0,0.0,0.0,0.0,0.0,0.0,0.0,0.0,0.0,0.0,0.0,0.0,0.0,0.0,0.0,0.0,0.0,0.0,0.0,0.0,0.0,0.0,0.0,0.0,0.0,0.0,0.0,0.0,0.0,0.0,-0.7333,-0.7876,-0.8567,-0.8353,-0.8226,-0.8441,-0.7832,-0.6971,-0.5927,-0.5342,0.0,0.0,0.0,0.0,0.0,0.0,0.0,0.0,0.0,0.0,0.0,0.0,0.0,0.0,0.0,0.0,0.0,0.0,0.0,0.0,0.0,0.0,0.0,0.0,0.0,0.0,0.0,0.0,0.0,0.0,0.0,0.0,0.0,0.0,0.0,0.0,0.0,0.0,0.0,0.0,0.0,0.0,0.0,0.0,0.0,0.0,0.0,0.0,0.0,0.0,0.0,0.0,0.0,0.0,0.0,0.0,0.0,0.0,0.0,0.0,0.0,0.0,0.0,0.0,0.0,0.0,0.0,0.0,0.0,0.0,0.0,0.0,0.0,0.0,0.0,0.0,0.0,0.0,0.0,0.0,0.0,0.0,0.0,0.0,0.0,0.0,0.0,0.0,0.0,0.0,0.0,0.0,0.0,0.0,0.0,0.0,0.0,0.0,0.0,0.0,0.0,0.0,-0.7768,-0.8183,-0.8447,-0.8463,-0.8419,-0.8419,-0.8016,-0.7336,-0.6267,-0.6019,0.0,0.0,0.0,0.0,0.0,0.0,0.0,0.0,0.0,0.0,0.0,0.0,0.0,0.0,0.0,0.0,0.0,0.0,0.0,0.0,0.0,0.0,0.0,0.0,0.0,0.0,0.0,0.0,0.0,0.0,0.0,0.0,0.0,0.0,0.0,0.0,0.0,0.0,0.0,0.0,0.0,0.0,0.0,0.0,0.0,0.0,0.0,0.0,0.0,0.0,0.0,0.0,0.0,0.0,0.0,0.0,0.0,0.0,0.0,0.0,0.0,0.0,0.0,0.0,0.0,0.0,0.0,0.0,0.0,0.0,0.0,0.0,0.0,0.0,0.0,0.0,0.0,0.0,0.0,0.0,0.0,0.0,0.0,0.0,0.0,0.0,0.0,0.0,0.0,0.0,0.0,0.0,0.0,0.0,0.0,0.0,0.0,0.0,0.0,0.0,0.0,0.0,-0.8196,-0.8723,-0.8986,-0.9274,-0.939,-0.939,-0.917,-0.8659,-0.7768,-0.6967,0.0,0.0,0.0,0.0,0.0,0.0,0.0,0.0,0.0,0.0,0.0,0.0,0.0,0.0,0.0,0.0,0.0,0.0,0.0,0.0,0.0,0.0,0.0,0.0,0.0,0.0,0.0,0.0,0.0,0.0,0.0,0.0,0.0,0.0,0.0,0.0,0.0,0.0,0.0,0.0,0.0,0.0,0.0,0.0,0.0,0.0,0.0,0.0,0.0,0.0,0.0,0.0,0.0,0.0,0.0,0.0,0.0,0.0,0.0,0.0,0.0,0.0,0.0,0.0,0.0,0.0,0.0,0.0,0.0,0.0,0.0,0.0,0.0,0.0,0.0,0.0,0.0,0.0,0.0,0.0,0.0,0.0,0.0,0.0,0.0,0.0,0.0,0.0,0.0,0.0,0.0,0.0,0.0,0.0,0.0,0.0,0.0,0.0,0.0,0.0,0.0,0.0,-0.81,-0.8597,-0.9083,-0.9316,-0.9484,-0.9484,-0.9388,-0.8951,-0.7984,0.0,0.0,0.0,0.0,0.0,0.0,0.0,0.0,0.0,0.0,0.0,0.0,0.0,0.0,0.0,0.0,0.0,0.0,0.0,0.0,0.0,0.0,0.0,0.0,0.0,0.0,0.0,0.0,0.0,0.0,0.0,0.0,0.0,0.0,0.0,0.0,0.0,0.0,0.0,0.0,0.0,0.0,0.0,0.0,0.0,0.0,0.0,0.0,0.0,0.0,0.0,0.0,0.0,0.0,0.0,0.0,0.0,0.0,0.0,0.0,0.0,0.0,0.0,0.0,0.0,0.0,0.0,0.0,0.0,0.0,0.0,0.0,0.0,0.0,0.0,0.0,0.0,0.0,0.0,0.0,0.0,0.0,0.0,0.0,0.0,0.0,0.0,0.0,0.0,0.0,0.0,0.0,0.0,0.0,0.0,0.0,0.0,0.0,0.0,0.0,0.0,0.0,-0.7617,-0.8214,-0.8705,-0.9154,-0.937,-0.9484,-0.9484,-0.9406,-0.903,-0.8227,0.0,0.0,0.0,0.0,0.0,0.0,0.0,0.0,0.0,0.0,0.0,0.0,0.0,0.0,0.0,0.0,0.0,0.0,0.0,0.0,0.0,0.0,0.0,0.0,0.0,0.0,0.0,0.0,0.0,0.0,0.0,0.0,0.0,0.0,0.0,0.0,0.0,0.0,0.0,0.0,0.0,0.0,0.0,0.0,0.0,0.0,0.0,0.0,0.0,0.0,0.0,0.0,0.0,0.0,0.0,0.0,0.0,0.0,0.0,0.0,0.0,0.0,0.0,0.0,0.0,0.0,0.0,0.0,0.0,0.0,0.0,0.0,0.0,0.0,0.0,0.0,0.0,0.0,0.0,0.0,0.0,0.0,0.0,0.0,0.0,0.0,0.0,0.0,0.0,0.0,0.0,0.0,0.0,0.0,0.0,0.0,0.0,0.0,0.0,0.0,0.0,0.0,-0.7871,-0.8585,-0.9172,-0.9454,-0.9484,-0.9484,-0.9484,-0.9232,-0.8956,0.0,0.0,0.0,0.0,0.0,0.0,0.0,0.0,0.0,0.0,0.0,0.0,0.0,0.0,0.0,0.0,0.0,0.0,0.0,0.0,0.0,0.0,0.0,0.0,0.0,0.0,0.0,0.0,0.0,0.0,0.0,0.0,0.0,0.0,0.0,0.0,0.0,0.0,0.0,0.0,0.0,0.0,0.0,0.0,0.0,0.0,0.0,0.0,0.0,0.0,0.0,0.0,0.0,0.0,0.0,0.0,0.0,0.0,0.0,0.0,0.0,0.0,0.0,0.0,0.0,0.0,0.0,0.0,0.0,0.0,0.0,0.0,0.0,0.0,0.0,0.0,0.0,0.0,0.0,0.0,0.0,0.0,0.0,0.0,0.0,0.0,0.0,0.0,0.0,0.0,0.0,0.0,0.0,0.0,0.0,0.0,0.0,0.0,0.0,0.0,0.0,0.0,0.0,-0.8117,-0.8699,-0.9172,-0.9454,-0.9484,-0.9484,-0.9484,-0.9406,-0.9166,-0.8705,0.0,0.0,0.0,0.0,0.0,0.0,0.0,0.0,0.0,0.0,0.0,0.0,0.0,0.0,0.0,0.0,0.0,0.0,0.0,0.0,0.0,0.0,0.0,0.0,0.0,0.0,0.0,0.0,0.0,0.0,0.0,0.0,0.0,0.0,0.0,0.0,0.0,0.0,0.0,0.0,0.0,0.0,0.0,0.0,0.0,0.0,0.0,0.0,0.0,0.0,0.0,0.0,0.0,0.0,0.0,0.0,0.0,0.0,0.0,0.0,0.0,0.0,0.0,0.0,0.0,0.0,0.0,0.0,0.0,0.0,0.0,0.0,0.0,0.0,0.0,0.0,0.0,0.0,0.0,0.0,0.0,0.0,0.0,0.0,0.0,0.0,0.0,0.0,0.0,0.0,0.0,0.0,0.0,0.0,0.0,0.0,0.0,0.0,0.0,0.0,0.0,0.0,-0.8249,-0.8843,-0.9298,-0.9466,-0.9484,-0.9484,-0.9484,-0.958,-0.9406,-0.8867,0.0,0.0,0.0,0.0,0.0,0.0,0.0,0.0,0.0,0.0,0.0,0.0,0.0,0.0,0.0,0.0,0.0,0.0,0.0,0.0,0.0,0.0,0.0,0.0,0.0,0.0,0.0,0.0,0.0,0.0,0.0,0.0,0.0,0.0,0.0,0.0,0.0,0.0,0.0,0.0,0.0,0.0,0.0,0.0,0.0,0.0,0.0,0.0,0.0,0.0,0.0,0.0,0.0,0.0,0.0,0.0,0.0,0.0,0.0,0.0,0.0,0.0,0.0,0.0,0.0,0.0,0.0,0.0,0.0,0.0,0.0,0.0,0.0,0.0,0.0,0.0,0.0,0.0,0.0,0.0,0.0,0.0,0.0,0.0,0.0,0.0,0.0,0.0,0.0,0.0,0.0,0.0,0.0,0.0,0.0,0.0,0.0,0.0,0.0,0.0,0.0,0.0,-0.8321,-0.9004,-0.9484,-0.9484,-0.9508,-0.952,-0.952,-0.976,-0.9688,-0.9234,0.0,0.0,0.0,0.0,0.0,0.0,0.0,0.0,0.0,0.0,0.0,0.0,0.0,0.0,0.0,0.0,0.0,0.0,0.0,0.0,0.0,0.0,0.0,0.0,0.0,0.0,0.0,0.0,0.0,0.0,0.0,0.0,0.0,0.0,0.0,0.0,0.0,0.0,0.0,0.0,0.0,0.0,0.0,0.0,0.0,0.0,0.0,0.0,0.0,0.0,0.0,0.0,0.0,0.0,0.0,0.0,0.0,0.0,0.0,0.0,-0.4374,-0.4023,0.0,0.0,0.0,0.0,0.0,0.0,0.0,0.0,0.0,0.0,0.0,0.0,0.0,0.0,0.0,0.0,0.0,0.0,0.0,0.0,0.0,0.0,0.0,0.0,0.0,0.0,0.0,0.0,0.0,0.0,0.0,0.0,0.0,0.0,0.0,0.0,0.0,0.0,0.0,0.0,-0.8567,-0.9118,-0.9484,-0.9484,-0.967,-0.979,-0.979,-1.003,-1.0109,-0.9718,-0.97,0.0,0.0,0.0,0.0,0.0,0.0,0.0,0.0,0.0,0.0,0.0,0.0,0.0,0.0,0.0,0.0,0.0,0.0,0.0,0.0,0.0,0.0,0.0,0.0,0.0,0.0,0.0,0.0,0.0,0.0,0.0,0.0,0.0,0.0,0.0,0.0,0.0,0.0,0.0,0.0,0.0,0.0,0.0,0.0,0.0,0.0,0.0,0.0,0.0,0.0,0.0,0.0,0.0,0.0,0.0,0.0,0.0,0.0,0.0,-0.465,-0.4472,0.0,0.0,0.0,0.0,0.0,0.0,0.0,0.0,0.0,0.0,0.0,0.0,0.0,0.0,0.0,0.0,0.0,0.0,0.0,0.0,0.0,0.0,0.0,0.0,0.0,0.0,0.0,0.0,0.0,0.0,0.0,0.0,0.0,0.0,0.0,0.0,0.0,0.0,0.0,0.0,-0.9028,-0.9532,-0.9856,-0.9856,-0.9976,-1.006,-1.006,-1.0363,-1.0405,-1.0146,-1.006,0.0,0.0,0.0,0.0,0.0,0.0,0.0,0.0,0.0,0.0,0.0,0.0,0.0,0.0,0.0,0.0,0.0,0.0,0.0,0.0,0.0,0.0,0.0,0.0,0.0,0.0,0.0,0.0,0.0,0.0,0.0,0.0,0.0,0.0,0.0,0.0,0.0,0.0,0.0,0.0,0.0,0.0,0.0,0.0,0.0,0.0,0.0,0.0,0.0,0.0,0.0,0.0,0.0,-0.3709,-0.3977,-0.4747,-0.4415,-0.4691,-0.5362,-0.4962,-0.5067,-0.5466,-0.48,0.0,0.0,0.0,0.0,0.0,0.0,0.0,0.0,0.0,0.0,0.0,0.0,0.0,0.0,0.0,0.0,0.0,0.0,0.0,0.0,0.0,0.0,0.0,0.0,-0.9622,-0.9496,-0.9046,0.0,0.0,0.0,0.0,0.0,0.0,0.0,0.0,0.0,0.0,0.0,-0.952,-0.9964,-1.0327,-1.0327,-1.0369,-1.0399,-1.0399,-1.0641,-1.0695,-1.0478,-1.0466,-1.0369,0.0,0.0,0.0,0.0,0.0,0.0,0.0,0.0,0.0,0.0,0.0,0.0,0.0,0.0,0.0,0.0,0.0,0.0,0.0,0.0,0.0,0.0,0.0,0.0,0.0,0.0,0.0,0.0,0.0,0.0,0.0,0.0,-0.3035,-0.3255,0.0,0.0,0.0,0.0,0.0,0.0,0.0,0.0,0.0,0.0,0.0,0.0,0.0,-0.3654,-0.3712,-0.3988,-0.4217,-0.4406,-0.4762,-0.5223,-0.5732,-0.5839,-0.6154,-0.656,-0.6317,0.0,-0.6077,-0.5967,0.0,0.0,0.0,0.0,0.0,0.0,0.0,0.0,0.0,0.0,0.0,0.0,0.0,0.0,0.0,0.0,0.0,0.0,0.0,0.0,0.0,0.0,-0.9748,-1.0077,-1.0155,-1.0206,0.0,-0.97,-0.937,-0.9334,-0.9328,0.0,0.0,0.0,0.0,0.0,0.0,0.0,-0.9814,-1.0077,-1.0327,-1.0327,-1.0532,-1.0671,-1.0671,-1.0906,-1.1045,-1.1009,-1.1009,-1.0997,-1.096,-1.0737,0.0,0.0,0.0,0.0,0.0,0.0,0.0,0.0,0.0,0.0,0.0,0.0,0.0,0.0,0.0,0.0,0.0,0.0,0.0,0.0,0.0,0.0,0.0,0.0,0.0,0.0,0.0,0.0,0.0,-0.3111,-0.3679,-0.377,-0.3868,-0.3893,0.0,0.0,0.0,0.0,0.0,0.0,0.0,0.0,0.0,-0.3731,-0.3862,-0.3968,-0.4045,-0.4628,-0.5048,-0.518,-0.5486,-0.594,-0.6416,-0.5959,-0.5996,-0.6366,-0.6142,-0.6108,-0.632,-0.6326,-0.6174,-0.5927,0.0,0.0,0.0,0.0,-0.6029,-0.6152,-0.6281,-0.6846,-0.7415,-0.7313,0.0,0.0,0.0,0.0,0.0,0.0,0.0,0.0,0.0,0.0,-1.0043,-1.0453,-1.055,-1.0592,-1.0737,-1.0592,-1.0297,0.0,-0.97,-0.9616,-0.9346,0.0,0.0,0.0,0.0,-1.0212,-1.0357,-1.0604,-1.0767,-1.0767,-1.087,-1.0936,-1.0936,-1.1045,-1.1111,-1.1111,-1.1111,-1.1184,-1.1341,-1.1238,-1.1232,0.0,0.0,0.0,0.0,0.0,0.0,0.0,0.0,0.0,0.0,0.0,0.0,0.0,0.0,0.0,0.0,0.0,0.0,0.0,0.0,0.0,0.0,0.0,0.0,0.0,0.0,0.0,0.0,-0.3678,-0.4026,-0.4177,-0.4178,-0.4117,0.0,0.0,0.0,0.0,0.0,0.0,-0.3971,-0.393,-0.4066,-0.4344,-0.4518,-0.4687,-0.4917,-0.5628,-0.6057,-0.6121,-0.6224,-0.652,-0.6823,-0.5996,-0.579,-0.6093,-0.6028,-0.6155,-0.6392,-0.6462,-0.6339,-0.6095,-0.64,-0.6384,-0.6257,-0.6314,-0.6431,-0.6571,-0.6728,-0.7318,-0.8027,-0.8027,-0.8201,-0.8375,-0.8485,0.0,0.0,0.0,0.0,-0.9444,-0.9904,-1.0018,-1.0254,-1.0713,-1.0822,-1.0876,-1.1069,-1.1111,-1.0936,0.0,-1.0236,-1.0089,-0.9826,0.0,0.0,0.0,0.0,-1.0598,-1.0797,-1.0991,-1.1111,-1.1111,-1.1178,-1.122,-1.122,-1.128,-1.1317,-1.1317,-1.1317,-1.1413,-1.1624,-1.163,-1.1661,-1.1727,0.0,0.0,0.0,0.0,0.0,0.0,0.0,0.0,0.0,0.0,0.0,0.0,0.0,0.0,0.0,0.0,0.0,0.0,0.0,0.0,0.0,0.0,0.0,0.0,0.0,0.0,0.0,0.0,0.0,-0.4177,-0.4362,0.0,0.0,0.0,0.0,-0.4019,-0.3966,-0.4141,-0.4426,-0.444,-0.4911,-0.5883,-0.5903,-0.6203,-0.6864,-0.7126,-0.732,-0.7325,-0.7102,-0.7049,-0.7046,-0.6491,-0.6244,-0.625,-0.6824,-0.6832,-0.6373,-0.6408,-0.6688,-0.7088,-0.6686,-0.6468,-0.6482,-0.6688,-0.6768,-0.6829,-0.7277,-0.8083,-0.8829,-0.8829,-0.9247,-0.9662,-0.9495,-0.942,0.0,0.0,-0.9462,-0.991,-1.0242,-1.0496,-1.0749,-1.1027,-1.1093,-1.1093,-1.1105,-1.1111,-1.1099,0.0,-1.1051,-1.0966,-1.0707,0.0,-1.0954,-1.0719,-1.09,-1.1075,-1.1087,-1.1099,-1.1111,-1.1111,-1.1353,-1.151,-1.151,-1.1739,-1.1878,-1.1878,-1.1878,-1.189,-1.1902,-1.1902,-1.2023,-1.227,-1.1787,0.0,0.0,0.0,0.0,0.0,0.0,0.0,0.0,0.0,0.0,0.0,0.0,0.0,0.0,0.0,0.0,0.0,0.0,0.0,0.0,0.0,0.0,0.0,0.0,0.0,0.0,0.0,0.0,-0.4358,-0.4351,0.0,-0.4382,-0.4385,-0.4362,-0.4307,-0.4487,-0.4643,-0.4752,-0.4755,-0.5159,-0.5988,-0.6108,-0.6476,-0.7144,-0.7288,-0.7297,-0.7103,-0.6985,-0.6867,-0.6683,-0.673,-0.6644,-0.6437,-0.6891,-0.702,-0.6765,-0.6777,-0.6897,-0.707,-0.7112,-0.7125,-0.7135,-0.7215,-0.737,-0.7604,-0.7961,-0.858,-0.9288,-0.965,-0.9978,-1.0136,-1.0207,-1.0225,-1.0243,-1.039,-1.0545,-1.0713,-1.081,-1.09,-1.0997,-1.1087,-1.1111,-1.1111,-1.1111,-1.1409,-1.1558,-1.1186,-1.1111,-1.1156,-1.1506,-1.1267,-1.1141,-1.1232,-1.1323,-1.1443,-1.1612,-1.163,-1.163,-1.163,-1.1721,-1.1781,-1.1781,-1.1872,-1.192,-1.192,-1.192,-1.1999,-1.2168,-1.2174,-1.2294,-1.256,-1.2379,-1.2168,0.0,0.0,0.0,0.0,0.0,0.0,0.0,0.0,0.0,0.0,0.0,0.0,0.0,0.0,0.0,0.0,0.0,0.0,0.0,0.0,0.0,0.0,0.0,0.0,0.0,0.0,-0.428,-0.4582,-0.4535,-0.4531,-0.4674,-0.4646,-0.4616,-0.4616,-0.5036,-0.5301,-0.5355,-0.5655,-0.6141,-0.6952,-0.7159,-0.7423,-0.7792,-0.7885,-0.7688,-0.7154,-0.6957,-0.6891,-0.6958,-0.6944,-0.697,-0.7023,-0.7292,-0.7499,-0.7659,-0.7526,-0.753,-0.7582,-0.7503,-0.7521,-0.7521,-0.7652,-0.7771,-0.8011,-0.8569,-0.9087,-0.961,-1.0361,-1.0592,-1.0622,-1.0797,-1.0852,-1.0888,-1.1063,-1.1111,-1.1111,-1.1111,-1.1111,-1.1111,-1.1111,-1.126,-1.1335,-1.1111,-1.1633,-1.1996,-1.1621,-1.1471,-1.1452,-1.1506,-1.1273,-1.1141,-1.1244,-1.1335,-1.1449,-1.1624,-1.1733,-1.1793,-1.1793,-1.195,-1.2053,-1.2053,-1.2053,-1.2089,-1.218,-1.2101,-1.2174,-1.2433,-1.2361,-1.2397,-1.2566,-1.2487,-1.2312,-1.2053,0.0,0.0,0.0,0.0,0.0,0.0,0.0,0.0,0.0,0.0,0.0,0.0,0.0,0.0,0.0,0.0,0.0,0.0,0.0,0.0,0.0,0.0,0.0,-0.418,-0.4382,-0.4592,-0.4897,-0.4928,-0.4982,-0.5125,-0.5009,-0.4928,-0.4931,-0.5658,-0.61,-0.6287,-0.7099,-0.8012,-0.8907,-0.9157,-0.9162,-0.8918,-0.9013,-0.8592,-0.7695,-0.714,-0.7322,-0.7997,-0.7017,-0.7131,-0.8138,-0.8101,-0.8421,-0.8964,-0.8546,-0.8481,-0.8594,-0.7826,-0.7531,-0.7531,-0.7862,-0.7945,-0.8064,-0.9257,-0.9628,-0.9818,-1.0804,-1.1111,-1.1111,-1.1111,-1.1111,-1.1111,-1.1111,-1.1111,-1.1111,-1.1111,-1.1111,-1.1111,-1.1111,-1.1564,-1.1868,-1.1273,-1.1784,-1.2439,-1.2439,-1.2218,-1.1797,-1.0876,-1.0966,-1.1051,-1.0803,-1.0985,0.0,-1.116,-1.1401,-1.1564,-1.1558,-1.2017,-1.2324,-1.2312,-1.2318,-1.2433,-1.2687,-1.2469,-1.2439,-1.2693,-1.2457,-1.233,-1.2337,-1.2083,-1.2077,-1.2337,0.0,0.0,0.0,0.0,0.0,0.0,0.0,0.0,0.0,0.0,0.0,0.0,0.0,0.0,0.0,0.0,0.0,0.0,0.0,0.0,0.0,-0.4141,-0.4355,-0.4399,-0.4629,-0.4904,-0.5203,-0.5138,-0.5131,-0.5284,-0.5608,-0.5939,-0.6125,-0.6833,-0.7394,-0.7664,-0.7862,-0.8403,-0.9173,-0.8684,-0.8609,-0.9029,-0.8042,-0.7694,-0.799,-0.7266,-0.7388,-0.8155,-0.861,-0.8802,-0.8852,-0.9543,-0.9579,-0.9108,-0.8771,-0.8453,-0.8174,-0.7812,-0.7692,-0.776,-0.8158,-0.8811,-0.9608,-1.0162,-1.0548,-1.0713,-1.1013,-1.1111,-1.1111,-1.1111,-1.1111,-1.1111,-1.1111,-1.1111,-1.1111,-1.1111,-1.1409,-1.1632,-1.1186,-1.1709,-1.2088,-1.149,-1.2092,-1.2674,-1.2739,-1.3071,-1.3074,-1.2383,-1.2344,-1.2433,-1.2555,-1.2638,0.0,-1.2984,-1.2667,-1.2312,-1.2119,-1.2397,-1.2518,-1.233,-1.2487,-1.2626,-1.2699,-1.2638,-1.2626,-1.2699,-1.2638,-1.2693,-1.2898,-1.2626,-1.2626,0.0,0.0,0.0,0.0,0.0,0.0,0.0,0.0,0.0,0.0,0.0,0.0,0.0,0.0,0.0,0.0,0.0,0.0,0.0,0.0,0.0,0.0,-0.4565,-0.4789,-0.4918,-0.5033,-0.5237,-0.5599,-0.5504,-0.5471,-0.5627,-0.5909,-0.625,-0.6755,-0.7482,-0.8151,-0.8629,-0.9004,-0.9275,-0.9351,-0.9016,-0.8655,-0.8341,-0.7856,-0.7642,-0.7704,-0.7711,-0.8065,-0.8771,-0.9341,-0.9574,-0.9642,-0.9997,-1.003,-0.9777,-0.9219,-0.899,0.0,0.0,0.0,0.0,0.0,-0.9466,-1.0164,-1.0487,-1.0689,-1.0887,-1.1037,-1.1111,-1.1111,-1.1111,-1.1111,-1.1111,-1.1111,-1.1111,-1.1186,-1.1409,-1.1646,-1.174,-1.1658,-1.2094,-1.246,-1.2154,-1.2771,-1.3373,-1.3433,-1.3863,0.0,-1.3316,-1.3267,-1.3265,-1.3002,-1.3026,-1.3089,-1.294,-1.2726,-1.2481,-1.233,-1.2548,-1.2693,-1.2656,-1.2681,0.0,0.0,0.0,-1.288,-1.288,-1.296,0.0,0.0,0.0,-1.293,-1.3127,0.0,0.0,0.0,-1.2789,-1.2687,0.0,0.0,0.0,0.0,0.0,0.0,0.0,0.0,0.0,0.0,0.0,0.0,0.0,0.0,0.0,0.0,-0.4901,-0.5291,-0.5665,-0.559,-0.5586,-0.5983,-0.5911,-0.5881,-0.6017,-0.6037,-0.6376,-0.7103,-0.7895,-0.8705,-0.9542,-1.0223,0.0,0.0,0.0,-0.906,-0.7533,-0.8303,-0.8303,-0.7533,-0.8406,-0.915,-0.9661,-0.9715,-0.998,-1.0395,-1.0072,-1.0271,-1.0737,-1.0014,-0.9946,-1.0187,-0.8981,-0.8591,-0.8711,-0.9432,-0.9891,-1.0216,-1.0513,0.0,0.0,-1.0962,-1.1111,-1.1111,-1.1111,-1.1135,-1.116,-1.116,-1.1178,-1.1277,-1.1877,-1.1847,-1.1725,-1.2248,-1.2628,-1.2922,-1.2988,-1.3622,-1.4321,-1.4469,-1.462,-1.465,-1.4153,-1.4028,-1.3731,-1.2848,-1.2877,-1.2801,-1.2327,-1.2298,-1.2355,-1.2355,0.0,0.0,-1.3097,-1.3003,-1.3088,-1.3574,-1.3385,-1.3258,-1.3258,-1.3422,-1.3405,-1.293,-1.3102,-1.3244,-1.326,-1.3489,-1.3817,-1.3936,-1.3218,-1.3019,0.0,0.0,0.0,0.0,0.0,0.0,0.0,0.0,0.0,0.0,0.0,0.0,0.0,0.0,0.0,-0.5225,-0.5353,-0.5745,-0.6343,-0.6138,-0.5932,-0.602,-0.6003,-0.5996,-0.6027,-0.6977,-0.7789,-0.8166,-0.9408,-1.0469,-1.1047,-1.046,-1.0391,-1.1059,-0.9687,-0.9059,-0.9396,-0.8908,-0.8908,-0.9396,-0.9776,0.0,-1.0822,-1.1254,-1.1385,-1.131,-1.1444,-1.1444,-1.1294,-1.0906,-1.0753,-1.0778,-0.975,-0.9564,-0.9895,-1.0188,-1.0587,-1.0896,-1.0944,-1.0962,-1.1037,-1.1037,-1.1111,-1.1111,-1.1111,-1.1268,0.0,-1.1449,-1.1606,-1.1763,-1.1921,-1.2201,-1.2482,-1.208,-1.3007,-1.3777,-1.3284,-1.3926,-1.4809,-1.5306,-1.544,-1.565,-1.6064,-1.5216,-1.4448,-1.431,-1.3861,-1.3734,-1.4407,-1.3355,-1.2717,-1.2886,-1.3219,-1.3399,-1.3454,-1.3787,-1.4021,-1.4134,-1.409,-1.4065,-1.4065,-1.4148,-1.4141,-1.3952,-1.422,-1.4259,-1.4069,-1.4508,-1.4754,-1.4512,-1.4157,-1.4014,0.0,0.0,0.0,0.0,0.0,0.0,0.0,0.0,0.0,0.0,0.0,-0.4577,-0.4467,0.0,-0.5503,-0.5599,-0.5891,-0.628,-0.6747,-0.6645,-0.6442,-0.6442,-0.6294,-0.637,-0.6817,-0.7414,-0.8213,-0.9134,-0.9881,-1.0593,-1.1229,-1.0942,-1.0713,-1.0713,-0.994,-0.9423,-0.9311,-0.9311,-0.9539,-0.9922,-1.0545,-1.0994,-1.1129,-1.1679,-1.1703,-1.1335,-1.1612,-1.1655,-1.1462,-1.1431,-1.1485,-1.1376,-1.0958,-1.086,-1.1036,-1.1159,-1.1201,-1.1323,-1.1323,-1.1323,-1.1323,-1.1323,-1.1323,-1.1347,-1.1479,-1.1522,-1.1558,-1.1691,-1.1823,-1.2,-1.224,-1.2419,-1.2606,-1.2998,-1.3546,-1.409,-1.4413,-1.4871,-1.5401,-1.6064,-1.6237,-1.6291,-1.6468,-1.5903,-1.5481,-1.5481,-1.5227,-1.5113,-1.544,-1.4929,-1.4663,-1.4749,-1.471,-1.4681,-1.4827,-1.476,-1.4657,-1.4657,-1.4657,-1.4657,-1.4657,-1.4836,-1.4814,-1.4678,-1.4954,-1.4924,-1.4688,-1.4981,-1.4987,-1.4885,-1.4783,-1.4688,0.0,0.0,0.0,0.0,0.0,0.0,0.0,0.0,-0.4365,-0.4562,-0.4797,-0.4924,-0.4924,-0.5485,-0.5971,-0.6073,-0.646,-0.6853,-0.7164,-0.7104,-0.7102,-0.7297,-0.6887,-0.6945,-0.7706,-0.7936,-0.8565,-0.9905,-1.0144,-1.0562,-1.1264,-1.1307,-1.0987,-1.0291,-1.0274,-0.9942,-0.9224,-0.9953,-1.0286,-1.0291,-1.1241,-1.154,-1.1286,-1.183,-1.1805,-1.1359,-1.1642,-1.1757,-1.1775,-1.1986,-1.2077,-1.2077,-1.2077,-1.2077,-1.2065,-1.1962,-1.1787,-1.1606,-1.1606,-1.1606,-1.1606,-1.1606,-1.1606,-1.1648,-1.186,-1.1811,-1.1727,-1.1938,-1.2035,-1.2158,-1.2643,-1.2644,-1.2806,-1.3872,-1.4144,-1.4405,-1.5484,-1.5816,-1.6064,-1.6566,-1.6794,-1.6763,-1.6537,-1.6637,-1.6682,-1.6425,-1.6253,-1.6169,-1.6235,-1.6352,-1.6463,-1.6522,-1.6181,-1.5951,-1.607,-1.5591,-1.5274,-1.5274,-1.5274,-1.5274,-1.5274,-1.5452,-1.5452,-1.5172,-1.5452,-1.5452,-1.5083,-1.5178,-1.5178,-1.5172,-1.5178,-1.5178,-0.5697,-0.4967,-0.4566,-0.4617,-0.4357,-0.4168,0.0,0.0,-0.4884,-0.5026,-0.5346,-0.5684,-0.5752,-0.6281,-0.6787,-0.6884,-0.7129,-0.7411,-0.7697,-0.7473,-0.7736,-0.8677,-0.8267,-0.7855,-0.7783,-0.9074,-1.0003,-1.0213,-1.0939,-1.1534,-1.2155,-1.1039,-1.083,-1.1665,-1.0762,-1.0573,-1.1177,-1.1479,-1.1677,-1.1677,-1.202,-1.2089,-1.1854,-1.2373,-1.2457,-1.2192,-1.2457,-1.2572,-1.2572,-1.2602,-1.2614,-1.2614,-1.2614,-1.2614,-1.256,-1.2095,-1.1902,-1.1878,-1.1878,-1.1878,-1.1878,-1.1878,-1.1878,-1.1884,-1.1914,-1.2065,-1.2234,-1.2264,-1.2439,-1.262,-1.2699,-1.3153,-1.36,-1.3685,-1.4629,-1.5484,-1.565,-1.6147,-1.6566,-1.6656,-1.7,-1.7231,-1.7186,-1.7782,-1.7889,-1.6915,-1.6213,-1.6228,-1.7414,-1.6969,-1.6462,-1.6476,-1.6414,-1.6274,-1.5846,-1.571,-1.5737,-1.5737,-1.5737,-1.5737,-1.5737,-1.5737,-1.5642,-1.5445,-1.5642,-1.5553,-1.5083,-1.5547,-1.5635,-1.5445,-1.5642,-1.5458,-0.6417,-0.5696,-0.5246,0.0,-0.4978,-0.4738,-0.5125,-0.5264,-0.5348,-0.5491,-0.5828,-0.6126,-0.6126,-0.6738,-0.7219,0.0,-0.756,-0.7745,-0.7918,-0.812,-0.8422,-0.869,-0.9241,-0.9601,-0.9588,-1.0051,-1.0547,-1.1111,-1.1591,-1.2026,-1.2251,-1.1938,-1.1802,-1.2086,-1.1715,-1.1588,-1.1757,-1.1866,-1.192,-1.1926,-1.2192,-1.2252,-1.2161,-1.2536,-1.2644,-1.2548,-1.2656,-1.2705,-1.2705,-1.2705,-1.2705,-1.2705,-1.2705,-1.2705,-1.2681,-1.2457,-1.2282,-1.2149,-1.2149,-1.2149,-1.2149,-1.2149,-1.2149,-1.218,-1.233,-1.2343,-1.2343,-1.2499,-1.262,-1.279,-1.3222,-1.3592,-1.4097,-1.4692,-1.5602,-1.642,-1.6584,-1.703,-1.7334,-1.7334,-1.7461,-1.7714,-1.8191,-1.8608,-1.8773,-1.8791,-1.8459,-1.8314,-1.8799,-1.8994,-1.9036,-1.8731,-1.8747,-1.8438,-1.7576,-1.7591,-1.7311,-1.6669,-1.6669,-1.6393,-1.5825,-1.5832,-1.573,-1.5635,-1.573,-1.5737,-1.5553,-1.5737,-1.573,-1.5635,-1.573,-1.5737,-0.7052,0.0,0.0,-0.6032,-0.5555,-0.5148,-0.5555,-0.5681,-0.5739,-0.5913,-0.6096,-0.6247,-0.647,-0.6927,-0.7261,-0.7375,-0.7797,-0.8135,-0.8277,-0.8747,-0.9066,-0.9175,-1.0058,-1.0791,-1.1058,-1.0917,-1.1051,-1.174,-1.2107,-1.2304,-1.238,-1.2681,-1.2726,-1.2531,-1.2462,-1.2304,-1.2116,-1.2101,-1.2137,-1.2137,-1.233,-1.2421,-1.2427,-1.2614,-1.2705,-1.2705,-1.2705,-1.2705,-1.2705,-1.2705,-1.2747,-1.2819,-1.2819,-1.2819,-1.2831,-1.2904,-1.2711,-1.2421,-1.2421,-1.2421,-1.2421,-1.2421,-1.2475,-1.2554,-1.2668,-1.2681,-1.2668,-1.2789,-1.3046,-1.3361,-1.3799,-1.4456,-1.5078,-1.5801,-1.6533,-1.7177,-1.7375,-1.7604,-1.7771,-1.7771,-1.8025,-1.8353,-1.8879,-1.9279,-1.9706,-2.0249,-2.0321,-2.0243,-2.0059,-2.0447,-2.0718,-2.0339,-2.0068,-1.9613,-1.888,-1.8788,-1.8519,-1.7785,-1.7692,-1.7232,-1.6298,-1.6204,-1.6109,-1.5832,-1.5832,-1.5832,-1.5832,-1.5832,-1.5832,-1.5832,-1.5832,-1.5832,-0.7499,0.0,-0.5824,-0.668,-0.6137,-0.5426,-0.5728,-0.5911,-0.6017,-0.6236,-0.6169,-0.6176,-0.6771,-0.6908,-0.6973,-0.7194,-0.7825,-0.8488,-0.8909,-0.902,-0.9542,-1.0703,-1.0645,-1.0851,0.0,-1.1663,-1.1687,-1.2094,-1.24,-1.2673,-1.2946,-1.2978,-1.2978,-1.2972,-1.2814,-1.2649,-1.2643,-1.2638,-1.2681,-1.2681,-1.2687,-1.2693,-1.2693,-1.2699,-1.2705,-1.2705,-1.2705,-1.2705,-1.2705,-1.2705,-1.2868,-1.3109,-1.3109,-1.3109,-1.3145,-1.3399,-1.3151,-1.2693,-1.2693,-1.2693,-1.2693,-1.2693,-1.288,-1.3049,-1.2783,-1.3067,-1.3429,-1.3181,-1.3824,-1.4565,-1.4565,-1.563,-1.669,-1.677,-1.7311,-1.7763,-1.7755,-1.7763,-1.7771,-1.7771,-1.8402,-1.901,-1.9018,-2.0107,-2.0799,-2.0374,-2.1096,-2.1445,-2.0997,-2.0619,-2.0339,-2.0339,-1.943,-1.8788,-1.8788,-1.8788,-1.8796,-1.8788,-1.8788,-1.8334,-1.7326,-1.7232,-1.6763,-1.5825,-1.5832,-1.5832,-1.5832,-1.5832,-1.5832,-1.5832,-1.5832,-1.5832,-0.8274,-0.7799,-0.7275,-0.7474,-0.7061,-0.6573,-0.6353,-0.6294,-0.6228,-0.6268,-0.6239,-0.6281,-0.6529,-0.6702,-0.6873,-0.7122,-0.8086,-0.885,-0.902,-1.0062,-1.079,-1.0467,-1.1016,0.0,0.0,0.0,0.0,-1.2553,-1.2798,-1.3093,-1.3382,-1.3406,-1.3426,-1.3426,-1.3258,-1.3174,-1.3174,-1.3178,-1.3137,-1.3137,-1.3052,-1.2881,-1.2705,-1.2705,-1.2705,-1.2705,-1.2705,-1.2813,-1.2982,-1.2982,-1.3139,-1.3387,-1.3387,-1.3387,-1.3393,-1.3483,-1.3399,-1.3242,-1.3242,-1.3242,-1.3242,-1.3242,-1.3308,-1.3363,-1.3272,-1.3369,-1.3586,-1.3944,-1.434,-1.486,-1.5828,-1.6603,-1.716,-1.7381,-1.7951,-1.8497,-1.862,-1.849,-1.8651,-1.9371,-1.947,-1.9644,-2.0176,-2.0729,-2.1087,-2.1195,-2.1275,-2.1275,-2.1454,-2.1365,-2.1266,-2.1266,-2.0907,-2.0727,-2.0727,-2.0727,-2.0167,-1.888,-1.8788,-1.8056,-1.6393,-1.6298,-1.6109,-1.5832,-1.5832,-1.5832,-1.5832,-1.5832,-1.5925,-1.6126,-1.6126,-1.6226,-0.9092,-0.8829,-0.8474,-0.8518,-0.8107,-0.7624,-0.7134,-0.69,-0.6655,-0.6419,-0.6211,-0.6149,-0.619,-0.6297,-0.6527,-0.6891,-0.789,-0.8851,-0.9153,-1.0517,-1.1365,-1.0969,-1.1618,-1.1991,0.0,0.0,0.0,-1.2795,-1.3227,-1.3561,-1.3641,-1.3952,-1.4038,-1.3828,-1.3749,-1.3671,-1.3483,-1.3483,-1.3398,-1.3398,-1.3307,-1.3137,-1.296,-1.296,-1.2875,-1.2875,-1.2875,-1.2893,-1.2982,-1.3085,-1.3278,-1.3525,-1.3622,-1.3652,-1.3664,-1.3761,-1.3737,-1.364,-1.355,-1.3513,-1.3513,-1.3513,-1.3574,-1.364,-1.3544,-1.3823,-1.4235,-1.4682,-1.5177,-1.5889,-1.6876,-1.7492,-1.7879,-1.8111,-1.8675,-1.9131,-1.9167,-1.9298,-1.9563,-2.0201,-2.0192,-2.0266,-2.0907,-2.1177,-2.1365,-2.1642,-2.1454,-2.1365,-2.1651,-2.1741,-2.1741,-2.1741,-2.1741,-2.1741,-2.1741,-2.1741,-2.1186,-1.9894,-1.9803,-1.9155,-1.749,-1.7397,-1.7268,-1.7101,-1.7108,-1.7165,-1.728,-1.6903,-1.7008,-1.7588,-1.7204,-1.7309,-1.0091,-0.9774,-0.9379,-0.9769,-0.9368,-0.8709,-0.7938,-0.7605,-0.7269,-0.6527,-0.6089,-0.5875,0.0,0.0,-0.6062,-0.6453,-0.7404,-0.845,-0.9556,-1.0467,-1.1372,0.0,0.0,0.0,0.0,0.0,0.0,-1.2889,0.0,-1.3968,-1.3619,-1.4496,-1.4703,-1.4128,-1.4216,-1.405,-1.3756,-1.3587,-1.3417,-1.3417,-1.3398,-1.3404,-1.3417,-1.3404,-1.3307,-1.3143,-1.3137,-1.2979,-1.2765,-1.3037,-1.3308,-1.358,-1.3827,-1.3924,-1.3954,-1.4208,-1.4141,-1.3888,-1.364,-1.3556,-1.3556,-1.3556,-1.3725,-1.3882,-1.3628,-1.4458,-1.538,-1.5206,-1.6337,-1.7692,-1.7785,-1.8257,-1.8827,-1.8827,-1.9279,-1.9637,-1.9646,-2.0011,-2.0292,-2.0382,-2.0736,-2.1087,-2.1087,-2.1374,-2.1741,-2.1741,-2.1741,-2.1741,-2.1741,-2.1741,-2.1741,-2.1741,-2.1741,-2.1741,-2.1741,-2.1741,-2.1651,-2.1642,-2.167,-2.1212,-2.0283,-2.03,-2.0012,-1.9415,-1.9423,-1.959,-2.0039,-1.8965,-1.8973,-1.9965,-1.889,-1.8996,-1.1549,-1.1616,-1.1361,-1.0556,-1.023,-0.9698,-0.8073,-0.7438,-0.7038,-0.6324,-0.6201,-0.6263,0.0,0.0,0.0,-0.7817,-0.8832,0.0,-1.0854,-1.2101,0.0,-1.2685,0.0,-1.2919,-1.2835,-1.3353,0.0,0.0,-1.3955,-1.4148,-1.4289,-1.4723,-1.4796,-1.4422,-1.4696,-1.4621,-1.4322,-1.4236,-1.4143,-1.397,-1.3749,-1.3677,-1.369,-1.3487,-1.3398,-1.3313,-1.3143,-1.3287,-1.3588,-1.3477,-1.3682,-1.4105,-1.4171,-1.4195,-1.4208,-1.4268,-1.4256,-1.4183,-1.4123,-1.4099,-1.4099,-1.4099,-1.4141,-1.4279,-1.4772,-1.5132,-1.5609,-1.675,-1.7345,-1.7878,-1.835,-1.9004,-1.9371,-1.9371,-1.9737,-2.0192,-2.0546,-2.0464,-2.0473,-2.1195,-2.1463,-2.1553,-2.1553,-2.1642,-2.1741,-2.1741,-2.1741,-2.1741,-2.1741,-2.1741,-2.1741,-2.1741,-2.1741,-2.1741,-2.1741,-2.1741,-2.1365,-2.0718,-2.0907,-2.0686,-1.9638,-1.9906,-1.9998,-1.9894,-1.9894,-1.9942,-2.0039,-1.9747,-1.9881,-2.0226,-1.923,-1.8962,-1.2906,-1.3147,-1.3084,-1.1803,-1.1518,-1.0987,-0.8822,-0.8183,-0.7686,-0.652,-0.6557,0.0,-0.6707,0.0,0.0,0.0,0.0,0.0,-1.1063,-1.2396,-1.322,0.0,-1.3407,0.0,-1.3527,-1.3981,-1.4329,0.0,-1.4589,-1.4676,-1.471,-1.511,-1.515,-1.473,-1.5003,-1.501,-1.4716,-1.4716,-1.4628,-1.4533,-1.4368,-1.4287,-1.4343,-1.4187,-1.4028,-1.3935,-1.3847,-1.3856,-1.4069,-1.4,-1.4229,-1.4514,-1.4447,-1.4496,-1.449,-1.4949,-1.5217,-1.5403,-1.528,-1.5408,-1.5396,-1.4617,-1.4484,-1.4867,-1.5248,-1.5994,-1.6936,-1.7777,-1.8434,-1.8896,-1.9371,-1.9646,-1.992,-1.992,-2.0283,-2.0645,-2.0907,-2.0916,-2.1105,-2.1553,-2.1741,-2.1741,-2.1741,-2.1741,-2.1741,-2.1741,-2.1741,-2.1741,-2.1741,-2.1741,-2.1741,-2.1741,-2.1741,-2.1741,-2.1741,-2.1896,-2.1717,-2.1245,-2.1534,-2.1558,-2.0977,-2.1181,-2.1377,-2.1539,-2.1539,-2.1624,-2.1884,-2.1295,-2.1403,-2.1994,-2.0986,-2.0788,-1.4356,-1.4607,-1.462,-1.3263,-1.284,-1.2121,-0.9774,-0.9191,-0.8646,-0.6956,0.0,-0.7316,-0.7149,-0.7345,-0.7769,-0.8399,0.0,-1.006,-1.0861,-1.2052,-1.3013,-1.3574,-1.3941,-1.4242,-1.4496,-1.4589,-1.4743,-1.5003,-1.5291,-1.5331,-1.5037,-1.5531,-1.5598,-1.5097,-1.5284,-1.5277,-1.5023,-1.5023,-1.5023,-1.5023,-1.4983,-1.4983,-1.5023,-1.4983,-1.4867,-1.4681,-1.4591,-1.452,-1.4391,-1.4635,-1.4756,-1.472,-1.4785,-1.479,-1.4879,-1.5933,-1.6491,-1.6587,-1.6599,-1.6894,-1.6912,-1.4961,-1.4892,-1.5668,-1.5629,-1.7052,-1.8582,-1.8627,-1.9455,-2.0292,-2.0292,-2.0417,-2.0443,-2.0391,-2.0771,-2.1149,-2.1096,-2.1365,-2.1741,-2.1741,-2.1741,-2.1741,-2.1741,-2.1741,-2.1741,-2.1741,-2.1741,-2.1741,-2.1741,-2.1741,-2.1741,-2.1741,-2.1786,-2.1814,-2.1814,-2.2181,-2.241,-2.241,-2.2804,-2.2939,-2.2939,-2.3088,-2.3272,-2.362,-2.362,-2.3794,-2.4152,-2.3238,-2.3238,-2.4152,-2.3038,-2.3038,-1.6081,-1.61,-1.5808,-1.4251,-1.3413,-1.2516,-1.0369,-0.9373,0.0,0.0,-0.751,-0.7883,-0.8116,-0.8131,-0.8525,-0.9968,0.0,0.0,0.0,0.0,-1.326,0.0,0.0,0.0,0.0,-1.4957,0.0,0.0,-1.5591,-1.5625,-1.5337,-1.5645,-1.5785,-1.5678,-1.5491,-1.5371,-1.5317,-1.5317,-1.5317,-1.5317,-1.5077,-1.509,-1.5311,-1.507,-1.4963,-1.4963,-1.4687,0.0,-1.4851,-1.4711,-1.4784,-1.5013,-1.5057,-1.4987,-1.5198,-1.6546,-1.649,-1.5869,-1.6753,-1.7322,-1.7204,-1.5229,-1.5588,-1.6868,-1.6899,-1.8145,-1.9646,-1.9912,-2.0102,-2.0292,-2.0292,-2.0798,-2.1322,-2.0987,-2.1518,-2.1944,-2.1626,-2.1642,-2.1741,-2.1741,-2.1741,-2.1741,-2.1741,-2.1741,-2.1741,-2.1741,-2.1741,-2.1741,-2.1741,-2.1741,-2.1741,-2.1741,-2.2034,-2.2226,-2.2226,-2.2602,-2.2841,-2.2841,-2.3217,-2.3446,-2.3446,-2.3767,-2.3978,-2.4051,-2.4051,-2.4079,-2.4152,-2.4044,-2.4053,-2.4152,-2.3038,-2.2627,-1.7287,-1.7184,-1.674,-1.5195,-1.4358,-1.3251,-1.0748,0.0,0.0,0.0,-0.7992,-0.8406,-0.86,0.0,0.0,0.0,0.0,0.0,0.0,0.0,0.0,0.0,0.0,0.0,0.0,-1.5003,-1.5297,-1.5598,-1.5752,-1.5765,-1.5631,-1.5752,-1.5832,-1.5832,-1.5698,-1.5618,-1.5618,-1.5618,-1.5618,-1.5618,-1.5478,-1.5484,-1.5618,-1.5478,-1.5418,-1.5411,-1.5319,-1.5299,-1.5424,-1.533,-1.5328,-1.5458,-1.5356,-1.5642,-1.6231,-1.7655,-1.7882,-1.7645,-1.8305,-1.8724,-1.8736,-1.6988,-1.7402,-1.8537,-1.8845,-1.9662,-2.054,-2.085,-2.1133,-2.1307,-2.1307,-2.1794,-2.2186,-2.1762,-2.1844,-2.197,-2.1777,-2.1896,-2.2043,-2.2043,-2.2217,-2.2281,-2.2281,-2.219,-2.2043,-2.2043,-2.2043,-2.2043,-2.2043,-2.2236,-2.2199,-2.2071,-2.2208,-2.241,-2.263,-2.3024,-2.3167,-2.3167,-2.3639,-2.3859,-2.3859,-2.4051,-2.4152,-2.4152,-2.4152,-2.4152,-2.4152,-2.4152,-2.4152,-2.4152,-2.3646,-2.3338,-1.8226,-1.8137,-1.7513,-1.6095,-1.5212,-1.3996,-1.1311,-1.0773,0.0,0.0,-0.8825,-0.918,-0.9249,0.0,0.0,0.0,0.0,0.0,0.0,0.0,0.0,0.0,0.0,0.0,0.0,-1.5023,0.0,-1.5792,-1.5832,-1.5832,-1.5832,-1.5832,-1.5832,-1.5832,-1.5832,-1.5832,-1.5832,-1.5832,-1.5832,-1.5832,-1.5832,-1.5832,-1.5832,-1.5832,-1.5832,-1.5832,-1.6015,-1.6015,-1.5825,-1.6015,-1.6015,-1.5832,-1.5987,-1.6476,-1.7363,-1.8995,-1.9605,-1.9638,-2.0119,-2.0556,-2.0608,-1.9353,-1.9411,-2.0231,-2.0342,-2.0848,-2.1364,-2.1695,-2.2052,-2.2346,-2.2437,-2.261,-2.2774,-2.2538,-2.2217,-2.1997,-2.1997,-2.2245,-2.2465,-2.2465,-2.2637,-2.2857,-2.2857,-2.2685,-2.2465,-2.2465,-2.2465,-2.2465,-2.2465,-2.2656,-2.2765,-2.2612,-2.2584,-2.2722,-2.2957,-2.3446,-2.3675,-2.3675,-2.3978,-2.4152,-2.4152,-2.4152,-2.4152,-2.4152,-2.4152,-2.4152,-2.4152,-2.4152,-2.4152,-2.4152,-2.4244,-2.429,-1.91,-1.8934,-1.8191,-1.6733,-1.5557,-1.4337,-1.2642,0.0,0.0,-1.0332,-1.0222,-1.0363,-1.0631,0.0,0.0,0.0,0.0,0.0,0.0,0.0,0.0,0.0,0.0,0.0,0.0,-1.5204,-1.5484,-1.5805,-1.5832,-1.5832,-1.5832,-1.5832,-1.5832,-1.5832,-1.5832,-1.5832,-1.5832,-1.5832,-1.5832,-1.5832,-1.5832,-1.5832,-1.5832,-1.5832,-1.5832,-1.5825,-1.6763,-1.6669,0.0,-1.677,-1.6574,-1.5947,-1.7163,-1.775,-1.8111,-2.0784,-2.1163,-2.0504,-2.1492,-2.2042,-2.2206,-2.1807,-2.1539,-2.1276,-2.0669,-2.1287,-2.2181,-2.2227,-2.2236,-2.241,-2.2701,-2.2829,-2.2848,-2.2811,-2.2774,-2.2747,-2.2747,-2.2774,-2.2802,-2.2802,-2.2829,-2.2857,-2.2857,-2.2829,-2.2802,-2.2802,-2.2802,-2.2802,-2.2802,-2.2838,-2.2984,-2.3391,-2.3428,-2.3446,-2.3483,-2.3859,-2.4097,-2.4097,-2.4134,-2.4152,-2.4152,-2.4152,-2.4152,-2.4152,-2.4152,-2.4152,-2.4152,-2.4152,-2.4152,-2.4161,-2.4546,-2.4721,-1.8834,-1.8837,-1.8382,-1.7232,-1.6181,-1.48,-1.263,0.0,0.0,-1.0295,-1.0221,-1.0462,-1.0545,-1.006,0.0,0.0,0.0,0.0,0.0,0.0,0.0,0.0,0.0,0.0,0.0,0.0,-1.5331,-1.5792,-1.5832,-1.5832,-1.5832,-1.5832,-1.5832,-1.5832,-1.5832,-1.5832,-1.5832,-1.5832,-1.5832,-1.5832,-1.5832,-1.5832,-1.5832,-1.5832,-1.6109,-1.6669,-1.6487,-1.648,0.0,-1.6487,-1.6686,-1.7141,-1.7647,-1.877,-2.0262,-2.165,-2.1739,-2.1378,-2.211,-2.2398,-2.2501,-2.2347,-2.2539,-2.2724,-2.2708,-2.27,-2.2749,-2.2988,-2.3052,-2.3098,-2.3263,-2.3308,-2.3308,-2.3308,-2.3125,-2.2857,-2.2857,-2.3048,-2.3308,-2.3308,-2.351,-2.3675,-2.3675,-2.3474,-2.3308,-2.3308,-2.3308,-2.3308,-2.3308,-2.3529,-2.3739,-2.3895,-2.3684,-2.3639,-2.3886,-2.406,-2.4152,-2.4152,-2.4152,-2.4152,-2.4152,-2.4152,-2.4152,-2.4152,-2.4152,-2.4152,-2.4152,-2.4152,-2.428,-2.4537,-2.4702,-2.4913,-1.8246,-1.8302,-1.7975,-1.7165,-1.6303,-1.4998,0.0,0.0,0.0,-1.0719,-1.0681,-1.0981,-1.0981,-1.0533,-1.0182,0.0,0.0,-0.9937,0.0,0.0,0.0,0.0,0.0,-1.4049,0.0,-1.5017,-1.5391,-1.5798,-1.5832,-1.5832,-1.5832,-1.5832,-1.5832,-1.5832,-1.5832,-1.592,-1.6204,-1.592,-1.592,-1.6204,-1.592,-1.5832,-1.5832,-1.6109,-1.6676,-1.7232,-1.685,-1.6943,0.0,-1.6679,-1.7025,-1.7897,-1.8275,-1.9774,-2.1777,-2.2337,-2.2512,-2.2652,-2.2933,-2.3029,-2.3029,-2.3029,-2.335,-2.3776,-2.406,-2.3593,-2.2939,-2.3428,-2.3629,-2.3703,-2.3574,-2.3629,-2.3694,-2.3574,-2.3519,-2.3501,-2.3501,-2.3804,-2.4088,-2.4088,-2.4317,-2.451,-2.451,-2.4271,-2.4088,-2.4088,-2.4088,-2.4042,-2.3923,-2.4161,-2.429,-2.417,-2.3895,-2.384,-2.4134,-2.4152,-2.4152,-2.4152,-2.4152,-2.4152,-2.4152,-2.4152,-2.4216,-2.4335,-2.4335,-2.44,-2.451,-2.451,-2.4666,-2.4959,-2.5078,-2.5344,-1.7442,-1.7303,-1.6788,-1.6309,-1.565,-1.4758,0.0,0.0,0.0,-1.1931,-1.2042,-1.2274,-1.2274,-1.1828,-1.1477,-1.1477,0.0,0.0,0.0,0.0,0.0,0.0,0.0,-1.4185,-1.4092,-1.5144,-1.5818,-1.5832,-1.5832,0.0,-1.5832,-1.5832,-1.5832,-1.5832,-1.5832,-1.6298,-1.7232,-1.6298,-1.6298,-1.7232,-1.6298,-1.5832,-1.5832,-1.6864,-1.7326,-1.7326,-1.8334,-1.8241,0.0,-1.7677,-1.7808,-1.8015,-1.9291,-2.0712,-2.223,-2.3141,-2.3804,-2.4152,-2.4152,-2.4152,-2.4152,-2.4152,-2.4152,-2.4143,-2.4152,-2.3593,-2.2939,-2.3428,-2.3831,-2.4051,-2.3648,-2.384,-2.4042,-2.3639,-2.417,-2.4757,-2.4757,-2.5069,-2.5353,-2.5353,-2.5353,-2.5362,-2.5362,-2.5353,-2.5353,-2.5353,-2.5353,-2.5216,-2.4821,-2.4776,-2.4611,-2.4198,-2.4251,-2.4143,-2.4152,-2.4152,-2.4152,-2.4152,-2.4152,-2.4152,-2.4152,-2.4152,-2.4345,-2.4766,-2.4776,-2.4968,-2.5362,-2.5362,-2.5362,-2.5372,-2.5766,-2.6169,-1.6589,-1.6629,-1.6526,-1.5811,-1.5222,-1.4444,-1.2979,0.0,0.0,-1.2029,-1.2371,-1.2842,-1.252,-1.1968,-1.156,-1.156,-1.1133,0.0,0.0,0.0,0.0,0.0,-1.4173,-1.507,0.0,0.0,-1.5978,-1.7188,-1.6574,-1.6116,-1.6305,-1.6936,-1.6842,-1.5832,-1.6662,-1.6951,-1.6595,-1.6951,-1.6951,-1.6595,-1.677,-1.6864,-1.6857,-1.7878,-1.8334,-1.8334,-1.7971,-1.7963,-1.8272,-1.7948,-1.8881,-2.0471,-2.1126,-2.229,-2.3547,-2.3861,-2.4042,-2.4152,-2.4152,-2.4152,-2.4152,-2.4152,-2.4152,-2.4152,-2.4152,-2.3978,-2.3804,-2.3923,-2.4051,-2.4125,-2.3996,-2.4271,-2.4546,-2.4418,-2.4794,-2.5188,-2.5188,-2.5289,-2.5372,-2.5372,-2.5372,-2.5372,-2.5372,-2.5372,-2.5372,-2.5372,-2.5372,-2.5326,-2.5197,-2.5188,-2.5133,-2.4996,-2.4986,-2.4757,-2.4198,-2.4418,-2.4583,-2.4583,-2.4583,-2.4702,-2.4977,-2.473,-2.4776,-2.5179,-2.5188,-2.5243,-2.5372,-2.5372,-2.5509,-2.5784,-2.6197,-2.6463,0.0,-1.5917,-1.5926,-1.5294,-1.4754,0.0,0.0,0.0,0.0,0.0,-1.2509,-1.2885,-1.2638,-1.2274,-1.2017,-1.2017,-1.1801,0.0,0.0,0.0,0.0,0.0,0.0,0.0,0.0,-1.6683,-1.6814,-1.7925,-1.6951,-1.6588,-1.7131,-1.7669,-1.7755,-1.7203,-1.7948,-1.8048,-1.7419,-1.7684,-1.7684,-1.7326,-1.7505,-1.7684,-1.8048,-1.9147,-1.9596,-1.9604,-1.8964,-1.9136,0.0,-1.902,-1.9965,-2.1987,-2.1987,-2.2948,-2.4332,-2.4076,-2.4024,-2.4152,-2.4152,-2.4152,-2.4152,-2.4152,-2.4152,-2.4125,-2.3969,-2.4033,-2.4152,-2.4152,-2.4271,-2.439,-2.439,-2.4693,-2.5005,-2.5005,-2.5307,-2.5592,-2.5592,-2.572,-2.583,-2.583,-2.583,-2.583,-2.583,-2.583,-2.583,-2.583,-2.583,-2.5775,-2.561,-2.5592,-2.5537,-2.539,-2.5372,-2.5161,-2.4656,-2.4858,-2.5005,-2.5005,-2.5005,-2.5115,-2.5362,-2.5133,-2.5188,-2.5582,-2.5592,-2.5665,-2.583,-2.583,-2.5958,-2.6197,-2.6463,-2.6591,0.0,-1.5215,-1.5092,-1.4777,-1.4287,-1.3779,0.0,0.0,0.0,0.0,0.0,-1.2751,-1.2783,-1.2774,-1.2774,-1.2774,-1.2852,0.0,0.0,0.0,0.0,0.0,-1.6942,0.0,-1.77,-1.785,-1.7995,-1.818,-1.7296,-1.7124,-1.8095,-1.8203,-1.8672,-1.9588,-1.9679,-1.9687,-1.9438,-1.8596,-1.8495,-1.9155,-1.8495,-1.858,-1.9314,-2.0503,-2.1042,0.0,-2.1042,-2.1165,-2.152,-2.0517,-2.1242,-2.284,-2.2162,-2.2973,-2.4492,-2.3818,-2.392,-2.4251,-2.4251,-2.4251,-2.4251,-2.4251,-2.4251,-2.4177,-2.3703,-2.3849,-2.426,-2.4189,-2.4482,-2.4785,-2.4812,-2.5115,-2.5408,-2.5408,-2.572,-2.6004,-2.6004,-2.6316,-2.6591,-2.6591,-2.6591,-2.6591,-2.6591,-2.6591,-2.6591,-2.6591,-2.6591,-2.6444,-2.605,-2.6004,-2.5867,-2.55,-2.5454,-2.5454,-2.5454,-2.5427,-2.5408,-2.5408,-2.5408,-2.5427,-2.5454,-2.5427,-2.5601,-2.5995,-2.6004,-2.6197,-2.6591,-2.6591,-2.6591,-2.6591,-2.6591,-2.6591,-1.6087,0.0,-1.4842,-1.4526,-1.4185,-1.3779,0.0,0.0,0.0,0.0,0.0,-1.3928,-1.3939,-1.361,-1.3382,-1.3382,-1.3382,-1.3484,-1.384,0.0,0.0,-1.5783,-1.7106,-1.84,-1.9245,-1.8303,-1.8465,-2.0254,-1.891,-1.831,-1.9198,-2.0257,-2.0962,-2.115,-2.1863,-2.1141,-1.8703,-1.9861,-1.9852,-1.8611,-1.9778,-2.0404,-2.0593,-2.1606,-2.1695,-2.1042,-2.1042,-2.1006,-2.1139,-2.1547,-2.2389,-2.3579,-2.4026,-2.4459,-2.4824,-2.4632,-2.466,-2.4735,-2.4538,-2.4538,-2.4735,-2.4538,-2.444,-2.4421,-2.4131,-2.4079,-2.4216,-2.4537,-2.4702,-2.4849,-2.5161,-2.5527,-2.5821,-2.5821,-2.6142,-2.6444,-2.6444,-2.6518,-2.6591,-2.6591,-2.6591,-2.6591,-2.6591,-2.6591,-2.6591,-2.6591,-2.6591,-2.6554,-2.6454,-2.6444,-2.6408,-2.6316,-2.6307,-2.6307,-2.6307,-2.6013,-2.5821,-2.5821,-2.5821,-2.5968,-2.6289,-2.5995,-2.6013,-2.6435,-2.6444,-2.649,-2.6591,-2.6591,-2.6691,-2.689,-2.6691,-2.6691,-1.6612,-1.5879,-1.5104,-1.4672,-1.4337,-1.4013,-1.3573,0.0,0.0,0.0,0.0,0.0,-1.4255,-1.4071,0.0,-1.3879,-1.4013,0.0,0.0,0.0,0.0,-1.7323,-1.8647,-2.0026,0.0,-1.9964,-1.9841,-2.1268,-1.9886,-1.9437,-2.0483,-2.1309,-2.1872,-2.2325,-2.2872,-2.205,-1.9977,-2.0962,-2.0863,-1.9695,-2.0782,-2.1507,-2.1872,-2.2422,-2.2422,-2.1952,-2.1952,-2.2165,-2.2628,-2.2797,-2.3626,-2.4669,-2.4746,-2.4965,-2.5039,-2.4941,-2.4932,-2.4833,-2.4735,-2.4735,-2.4805,-2.4519,-2.4478,-2.4501,-2.4324,-2.443,-2.4674,-2.4813,-2.4913,-2.5142,-2.5537,-2.594,-2.6252,-2.6252,-2.6417,-2.6591,-2.6591,-2.6591,-2.6591,-2.6591,-2.6591,-2.6591,-2.6591,-2.6738,-2.6857,-2.6857,-2.6857,-2.6857,-2.6857,-2.6701,-2.6591,-2.6591,-2.6591,-2.6591,-2.6591,-2.638,-2.6252,-2.6252,-2.6252,-2.6353,-2.6582,-2.647,-2.6559,-2.6781,-2.6691,-2.6591,-2.6591,-2.6591,-2.6691,-2.6989,-2.689,-2.689,-1.7052,-1.647,-1.571,-1.5058,-1.4756,-1.4525,0.0,0.0,0.0,0.0,0.0,0.0,0.0,0.0,0.0,0.0,0.0,0.0,-1.6304,-1.7422,-1.8447,-1.9111,-2.0459,0.0,-2.2256,-2.156,-2.1332,-2.1762,-2.0527,-2.0386,-2.1762,-2.1725,-2.2114,-2.3047,-2.3076,-2.2629,-2.1872,-2.1872,-2.1695,-2.1338,-2.1695,-2.2236,-2.2891,-2.3057,-2.3135,-2.3135,0.0,0.0,-2.4199,-2.3975,-2.4541,-2.5421,-2.4996,-2.5025,-2.5333,-2.5137,-2.503,-2.503,-2.503,-2.503,-2.4875,-2.4534,-2.4551,-2.4581,-2.4503,-2.4909,-2.5282,-2.5127,-2.531,-2.566,-2.6056,-2.6424,-2.6691,-2.6691,-2.6591,-2.6591,-2.6591,-2.6591,-2.6591,-2.6591,-2.6591,-2.6609,-2.6664,-2.6903,-2.7105,-2.7169,-2.7123,-2.7086,-2.7086,-2.6793,-2.6591,-2.6591,-2.6591,-2.6591,-2.6591,-2.6591,-2.6591,-2.6591,-2.6591,-2.6591,-2.6591,-2.6899,-2.6989,-2.6989,-2.6791,-2.6691,-2.6691,-2.6691,-2.6791,-2.7098,-2.7098,-2.7206,-1.7216,-1.6917,-1.6432,-1.5609,-1.549,-1.5468,0.0,0.0,0.0,0.0,0.0,0.0,0.0,0.0,0.0,0.0,0.0,-1.6713,0.0,0.0,-1.9004,-1.8769,0.0,-2.1689,-2.1455,-2.1222,-2.1481,-2.2341,-2.1079,-2.0854,-2.2322,-2.2013,-2.2233,-2.3028,-2.2793,-2.2687,-2.2862,-2.2872,-2.2511,-2.1606,-2.2511,-2.296,-2.3047,-2.3057,-2.3135,-2.3135,0.0,-2.3213,-2.3389,-2.4043,-2.4443,-2.4687,-2.5275,-2.5577,-2.5635,-2.5635,-2.5538,-2.5538,-2.5538,-2.544,-2.5226,-2.5168,-2.5187,-2.5194,-2.5391,-2.5462,-2.5708,-2.6324,-2.6578,-2.6605,-2.6794,-2.6943,-2.689,-2.689,-2.6791,-2.6591,-2.6591,-2.6591,-2.6591,-2.6591,-2.6591,-2.6692,-2.7031,-2.6866,-2.6793,-2.7132,-2.6894,-2.6683,-2.6683,-2.6628,-2.6591,-2.6591,-2.6591,-2.6591,-2.6591,-2.6591,-2.6591,-2.6591,-2.6591,-2.6591,-2.6591,-2.7116,-2.7107,-2.6691,-2.689,-2.689,-2.689,-2.689,-2.7206,-2.7745,-2.7422,-2.753,-1.7455,-1.7419,-1.7375,-1.7264,-1.6726,0.0,0.0,0.0,0.0,0.0,0.0,0.0,0.0,0.0,0.0,0.0,0.0,-1.7725,-1.8584,-1.9043,-1.9385,0.0,0.0,-2.1279,-2.1562,-2.1307,-2.1406,-2.2158,-2.1345,-2.1301,-2.248,-2.2324,-2.2402,-2.2783,-2.2617,-2.2607,-2.2793,-2.2803,-2.265,-2.2422,-2.2872,-2.3135,-2.3135,-2.3135,-2.3135,-2.3135,0.0,-2.3271,-2.3525,-2.3916,-2.4355,-2.4805,-2.5215,-2.5527,-2.5742,-2.5742,-2.5742,-2.5742,-2.5742,-2.5635,-2.5538,-2.5538,-2.5595,-2.5718,-2.592,-2.6295,-2.6634,-2.6912,-2.6921,-2.6911,-2.7103,-2.7206,-2.7206,-2.7206,-2.7107,-2.7008,-2.6899,-2.6791,-2.6791,-2.6591,-2.6857,-2.717,-2.7141,-2.7492,-2.7761,-2.7734,-2.7455,-2.7262,-2.716,-2.6829,-2.6591,-2.6591,-2.6591,-2.6691,-2.6791,-2.6691,-2.6591,-2.6591,-2.6691,-2.6899,-2.7008,-2.7107,-2.7107,-2.7008,-2.6999,-2.6989,-2.6989,-2.7098,-2.7545,-2.8208,-2.81,-2.8324,-1.7681,-1.7757,-1.7989,0.0,0.0,0.0,0.0,0.0,0.0,0.0,0.0,0.0,0.0,0.0,0.0,0.0,-1.9065,-1.9194,-1.9829,-1.9949,-2.0048,-2.0566,-2.0654,-2.0986,-2.167,-2.1426,-2.1416,-2.1846,-2.1387,-2.1455,-2.2314,-2.2168,-2.2148,-2.2353,-2.2266,-2.2266,-2.2363,-2.2363,-2.2627,-2.3135,-2.3135,-2.3135,-2.3135,-2.3135,-2.3135,-2.3135,-2.3135,-2.333,-2.3643,-2.375,-2.418,-2.4785,-2.499,-2.5342,-2.5742,-2.5742,-2.5742,-2.5742,-2.5742,-2.5742,-2.5742,-2.5742,-2.5761,-2.5971,-2.6374,-2.689,-2.7226,-2.741,-2.7266,-2.7246,-2.7454,-2.7539,-2.7539,-2.7539,-2.7431,-2.7352,-2.7337,-2.7172,-2.7054,-2.704,-2.7455,-2.766,-2.7641,-2.8331,-2.8688,-2.838,-2.8022,-2.7855,-2.7781,-2.7159,-2.6728,-2.6938,-2.6746,-2.6791,-2.7098,-2.6899,-2.68,-2.68,-2.7107,-2.7206,-2.7323,-2.7206,-2.7206,-2.7323,-2.7206,-2.7144,-2.7356,-2.7573,-2.8019,-2.8771,-2.8771,-2.9046,-1.7833,-1.78,-1.7863,-1.8095,0.0,0.0,0.0,0.0,0.0,0.0,0.0,0.0,0.0,0.0,-2.0421,-2.107,-2.1621,-2.1959,-2.1795,0.0,-2.139,-2.0712,-2.0937,-2.1211,-2.1279,-2.125,-2.1416,-2.1846,-2.1094,-2.0996,-2.1885,-2.1152,-2.1084,-2.1904,-2.1543,-2.1523,-2.1924,-2.1934,-2.2334,-2.3135,-2.3135,-2.3135,-2.3135,-2.3135,-2.3135,-2.3135,-2.3135,-2.3154,-2.3213,-2.3623,-2.3828,-2.3955,-2.4756,-2.5342,-2.5742,-2.5742,-2.5742,-2.5742,-2.5742,-2.5742,-2.5742,-2.5742,-2.5762,-2.5839,-2.6728,-2.7012,-2.7226,-2.8018,-2.8252,-2.8145,-2.795,-2.7853,-2.7853,-2.7853,-2.7638,-2.7536,-2.7933,-2.7706,-2.7659,-2.8435,-2.8303,-2.8303,-2.906,-2.8918,-2.87,-2.8672,-2.835,-2.8094,-2.8066,-2.7469,-2.7247,-2.7861,-2.7332,-2.7107,-2.7323,-2.7323,-2.7323,-2.7323,-2.7638,-2.7638,-2.7098,-2.753,-2.753,-2.6989,-2.7206,-2.7729,-2.8349,-2.8468,-2.8781,-2.9521,-2.9521,-2.9541,-1.8065,-1.8109,-1.8386,0.0,0.0,0.0,0.0,0.0,0.0,0.0,0.0,0.0,0.0,0.0,-2.0452,-2.0845,-2.1551,-2.2002,-2.1534,-2.1784,-2.1603,-2.0722,-2.0713,-2.082,-2.082,-2.082,-2.0889,-2.1055,-2.0752,-2.083,-2.1445,-2.1162,-2.1133,-2.1475,-2.1318,-2.1318,-2.1475,-2.1484,-2.1914,-2.2754,-2.2754,-2.2891,-2.3135,-2.3135,-2.3135,-2.3135,-2.3135,-2.3135,-2.3154,-2.332,-2.3545,-2.3877,-2.4736,-2.5342,-2.5742,-2.5742,-2.5742,-2.5742,-2.5742,-2.5742,-2.5742,-2.5742,-2.5918,-2.625,-2.6836,-2.7207,-2.7549,-2.8125,-2.8291,-2.8291,-2.8184,-2.8184,-2.8184,-2.8184,-2.8077,-2.8008,-2.7956,-2.8071,-2.8134,-2.8338,-2.8811,-2.9079,-2.9003,-2.9432,-2.9527,-2.863,-2.849,-2.8461,-2.8325,-2.7924,-2.7776,-2.8047,-2.7787,-2.753,-2.7431,-2.7755,-2.7862,-2.7745,-2.7853,-2.787,-2.792,-2.8148,-2.8272,-2.8309,-2.843,-2.8617,-2.8891,-2.9114,-2.9439,-2.9961,-2.9961,-3.0117,-1.8211,-1.8444,-1.8918,0.0,0.0,0.0,0.0,0.0,0.0,0.0,0.0,0.0,0.0,0.0,0.0,0.0,-2.1888,-2.256,-2.221,-2.2415,-2.2243,-2.1298,-2.1165,-2.1098,-2.0799,-2.0731,-2.0731,-2.0809,-2.0731,-2.0859,-2.1174,-2.1115,-2.1115,-2.1115,-2.1115,-2.1115,-2.1115,-2.1194,-2.1627,-2.2399,-2.2399,-2.2683,-2.3135,-2.3135,-2.3135,-2.3135,-2.3135,-2.3135,-2.3135,-2.3135,-2.3477,-2.4043,-2.4639,-2.5225,-2.5742,-2.5742,-2.5742,-2.5742,-2.5742,-2.5742,-2.5742,-2.5742,-2.5937,-2.626,-2.6689,-2.7119,-2.7549,-2.7978,-2.8193,-2.8291,-2.8291,-2.8291,-2.8291,-2.8291,-2.8291,-2.833,-2.8242,-2.8394,-2.8684,-2.8732,-2.9363,-2.9823,-2.9441,-3.0017,-3.0132,-2.8983,-2.9055,-2.9048,-2.8868,-2.8588,-2.8319,-2.8186,-2.8237,-2.8105,-2.7764,-2.8077,-2.8242,-2.8261,-2.8261,-2.8298,-2.8497,-2.8632,-2.8834,-2.9122,-2.9132,-2.9189,-2.9437,-2.9653,-2.999,-3.042,-3.042,-3.0586,-1.8228,-1.8741,0.0,0.0,0.0,0.0,0.0,0.0,0.0,0.0,0.0,0.0,0.0,0.0,0.0,-2.1637,-2.3034,-2.4171,-2.4217,-2.4001,-2.3546,-2.251,-2.2414,-2.2059,-2.1262,-2.1051,-2.0974,-2.1205,-2.0984,-2.0994,-2.1215,-2.0994,-2.0916,-2.0916,-2.0906,-2.0906,-2.0906,-2.1138,-2.1579,-2.2205,-2.2215,-2.2493,-2.3135,-2.3135,-2.3135,-2.3144,-2.3135,-2.3135,-2.3144,-2.3144,-2.3643,-2.4414,-2.4414,-2.4951,-2.5732,-2.5732,-2.5732,-2.5732,-2.5732,-2.5732,-2.5732,-2.5742,-2.5742,-2.582,-2.626,-2.668,-2.71,-2.7539,-2.7969,-2.8291,-2.8291,-2.8291,-2.8291,-2.8291,-2.8291,-2.8408,-2.8818,-2.8916,-2.917,-3.0019,-3.0195,-3.0342,-3.0801,-3.0889,-3.0596,-2.9707,-2.9932,-3.0049,-2.9629,-2.9356,-2.8978,-2.8564,-2.8717,-2.875,-2.834,-2.8301,-2.8476,-2.8896,-2.8926,-2.8826,-2.8526,-2.892,-2.9132,-2.9141,-2.9141,-2.9456,-3.0205,-3.0205,-3.0439,-3.0889,-3.0889,-3.0889,-1.8965,-1.9941,0.0,0.0,0.0,0.0,0.0,0.0,0.0,0.0,0.0,0.0,0.0,0.0,0.0,-2.2141,-2.3167,-2.3823,-2.309,-2.329,-2.3086,-2.2192,-2.2072,-2.1728,-2.0969,-2.1167,-2.1141,-2.0732,-2.1238,-2.1609,-2.1678,-2.1599,-2.1599,-2.1599,-2.1298,-2.1138,-2.1138,-2.1517,-2.1959,-2.2451,-2.2772,-2.3043,-2.3406,-2.3406,-2.3493,-2.357,-2.3406,-2.3493,-2.358,-2.358,-2.3909,-2.4466,-2.4582,-2.5149,-2.5749,-2.5549,-2.5549,-2.5559,-2.5549,-2.5359,-2.5322,-2.5635,-2.5742,-2.582,-2.626,-2.6475,-2.6728,-2.7461,-2.7754,-2.792,-2.8223,-2.8291,-2.8291,-2.8291,-2.8291,-2.833,-2.8447,-2.8711,-2.9082,-2.9648,-3.0,-3.0244,-3.0371,-3.0674,-3.0596,-2.9707,-2.9932,-3.0156,-3.0029,-2.9906,-2.9848,-2.9731,-2.9167,-2.8994,-2.918,-2.8906,-2.8916,-2.9346,-2.9658,-2.9814,-2.9711,-2.9838,-3.0052,-3.0383,-3.0392,-3.0451,-3.0684,-3.0684,-3.0752,-3.0889,-3.0889,-3.0889,-1.974,0.0,0.0,0.0,0.0,0.0,0.0,0.0,0.0,0.0,0.0,0.0,0.0,-2.362,0.0,-2.2788,-2.3467,-2.3826,-2.3213,-2.3389,-2.3329,-2.2649,-2.2604,-2.2264,-2.1585,-2.1871,-2.1927,-2.1668,-2.2004,-2.2361,-2.2626,-2.208,-2.1845,-2.2028,-2.1592,-2.144,-2.1622,-2.1974,-2.2422,-2.2867,-2.315,-2.3513,-2.3764,-2.3677,-2.3677,-2.3754,-2.3667,-2.3667,-2.3841,-2.3841,-2.4102,-2.4535,-2.4626,-2.4985,-2.5468,-2.5365,-2.5282,-2.5405,-2.5481,-2.5446,-2.5431,-2.5875,-2.5927,-2.5869,-2.6241,-2.6339,-2.6533,-2.7217,-2.7529,-2.7764,-2.8184,-2.8291,-2.8291,-2.8291,-2.8291,-2.8291,-2.8291,-2.8623,-2.9053,-2.9482,-2.9912,-3.0254,-3.0439,-3.0703,-3.0644,-2.9922,-3.0039,-3.0264,-3.0449,-3.0312,-3.0195,-3.0195,-2.9434,-2.9092,-2.9531,-2.917,-2.918,-2.9785,-3.0059,-3.0273,-3.0459,-3.0478,-3.0605,-3.0889,-3.0889,-3.0889,-3.0889,-3.0889,-3.0889,-3.0889,-3.0889,-3.0889,0.0,0.0,0.0,0.0,0.0,0.0,0.0,0.0,0.0,0.0,0.0,0.0,-2.4996,-2.484,-2.447,-2.3437,-2.3686,-2.4027,-2.4026,-2.3978,-2.384,-2.3562,-2.3544,-2.328,-2.2534,-2.2822,-2.3072,-2.3223,-2.305,-2.3134,-2.3656,-2.245,-2.1979,-2.2323,-2.1891,-2.186,-2.2272,-2.247,-2.2925,-2.3461,-2.3576,-2.3842,-2.4206,-2.3937,-2.3841,-2.3841,-2.3841,-2.3841,-2.3841,-2.3841,-2.4082,-2.4543,-2.4494,-2.4746,-2.5098,-2.5098,-2.5098,-2.5168,-2.5611,-2.5772,-2.5852,-2.6345,-2.6304,-2.61,-2.61,-2.629,-2.6516,-2.6937,-2.7369,-2.781,-2.8125,-2.8262,-2.8291,-2.8291,-2.8291,-2.8291,-2.8291,-2.8594,-2.8994,-2.9434,-2.9853,-3.0273,-3.0693,-3.0801,-3.0684,-3.0264,-3.0195,-3.0361,-3.083,-3.0488,-3.0215,-3.0254,-2.9492,-2.917,-2.9648,-2.9287,-2.9385,-3.0205,-3.0264,-3.0449,-3.0869,-3.0889,-3.0889,-3.0889,-3.0889,-3.0889,-3.0889,-3.0889,-3.0889,-3.0889,-3.0889,-3.0889,0.0,0.0,0.0,0.0,0.0,0.0,0.0,0.0,0.0,0.0,0.0,-2.4825,-2.423,-2.4114,-2.4076,-2.3879,-2.3527,-2.3488,-2.4001,-2.3615,-2.3303,-2.3219,-2.3232,-2.2973,-2.2261,-2.2977,-2.3241,-2.2765,-2.3754,-2.4164,-2.3755,-2.396,-2.3873,-2.3382,-2.294,-2.2757,-2.2854,-2.3209,-2.3381,-2.3258,-2.4225,-2.4566,-2.4454,-2.4196,-2.411,-2.411,-2.4282,-2.4282,-2.411,-2.4282,-2.443,-2.4553,-2.4639,-2.4931,-2.519,-2.4913,-2.4923,-2.4995,-2.5432,-2.5503,-2.545,-2.6235,-2.6496,-2.64,-2.64,-2.647,-2.6543,-2.6973,-2.7302,-2.7544,-2.7989,-2.8143,-2.8291,-2.8291,-2.8291,-2.8291,-2.8291,-2.8359,-2.8555,-2.8975,-2.9404,-2.9736,-2.9834,-3.0127,-3.0312,-3.0215,-3.0195,-3.0361,-3.083,-3.0488,-3.0332,-3.0703,-2.9961,-2.9756,-3.0537,-3.0185,-3.0156,-3.0703,-3.0742,-3.0781,-3.0889,-3.0889,-3.0889,-3.0889,-3.0889,-3.0889,-3.0889,-3.0889,-3.0889,-3.0889,-3.0889,-3.0889,0.0,0.0,0.0,0.0,0.0,0.0,0.0,0.0,0.0,0.0,-2.4759,-2.4917,-2.4447,-2.4348,-2.4346,-2.4403,-2.4177,-2.401,-2.4097,-2.378,-2.3484,-2.3138,-2.3078,-2.3056,-2.2997,-2.3707,-2.4152,-2.4037,-2.4649,-2.4931,-2.4803,-2.4585,-2.4403,-2.42,-2.3743,-2.3597,-2.3843,-2.4388,-2.4425,-2.4055,-2.4984,-2.5258,-2.5094,-2.4615,-2.4368,-2.4368,-2.4454,-2.4454,-2.4368,-2.4454,-2.454,-2.4485,-2.4625,-2.4718,-2.4815,-2.4718,-2.4641,-2.482,-2.5478,-2.5614,-2.5676,-2.6584,-2.6794,-2.6699,-2.6699,-2.6602,-2.6587,-2.7019,-2.7212,-2.7442,-2.8101,-2.8346,-2.846,-2.8465,-2.8398,-2.8291,-2.8291,-2.8291,-2.8418,-2.8838,-2.9101,-2.9326,-2.9531,-2.9756,-2.9893,-2.9893,-2.9893,-2.998,-3.0225,-2.9863,-2.9834,-3.0488,-2.9775,-2.9697,-3.0801,-3.0459,-3.0391,-3.0859,-3.0889,-3.0889,-3.0889,-3.0889,-3.0889,-3.0889,-3.0889,-3.0889,-3.0889,-3.0889,-3.0889,-3.0889,-3.0889,-3.0889,0.0,0.0,0.0,0.0,0.0,0.0,0.0,0.0,0.0,-2.4811,-2.4957,-2.4958,-2.4694,-2.4539,-2.4552,-2.4864,-2.4822,-2.4637,-2.4416,-2.4234,-2.3897,-2.3305,-2.3198,-2.3364,-2.3941,-2.4506,-2.5034,-2.5548,-2.5554,-2.5646,-2.5877,-2.5015,-2.4606,-2.4888,-2.4484,-2.4545,-2.4962,-2.5315,-2.5392,-2.5029,-2.559,-2.5909,-2.5986,-2.5105,-2.47,-2.47,-2.454,-2.454,-2.454,-2.454,-2.454,-2.454,-2.454,-2.454,-2.454,-2.454,-2.454,-2.4664,-2.5564,-2.5823,-2.5937,-2.6931,-2.7125,-2.6884,-2.6965,-2.6794,-2.6673,-2.7026,-2.7188,-2.7341,-2.8268,-2.8428,-2.8599,-2.8734,-2.8611,-2.8398,-2.8291,-2.8291,-2.8398,-2.874,-2.8809,-2.8945,-2.9385,-2.9394,-2.9375,-2.9443,-2.9521,-2.957,-2.957,-2.9258,-2.9336,-3.0117,-2.9492,-2.9531,-3.0781,-3.0537,-3.0478,-3.0869,-3.0889,-3.0889,-3.0889,-3.0889,-3.0889,-3.0889,-3.0889,-3.0889,-3.0889,-3.0889,-3.0889,-3.0889,-3.0889,-3.0889,0.0,0.0,0.0,0.0,0.0,0.0,0.0,0.0,0.0,0.0,-2.4064,-2.3718,-2.3952,-2.3572,-2.354,-2.4615,-2.4362,-2.4399,-2.5507,-2.4751,-2.4073,-2.3956,-2.3424,-2.3364,-2.3941,-2.4506,-2.5034,-2.5548,-2.6058,-2.6062,-2.5408,-2.5923,-2.591,-2.5254,-2.5194,-2.5253,-2.5513,-2.5397,-2.5262,-2.5096,-2.5892,-2.6484,-2.6905,-2.5986,-2.5663,-2.5579,-2.4861,-2.454,-2.454,-2.454,-2.454,-2.454,-2.454,-2.454,-2.454,-2.454,-2.454,-2.4664,-2.5564,-2.5627,-2.5533,-2.6837,-2.6993,-2.6744,-2.7138,-2.7262,-2.7177,-2.7239,-2.7344,-2.7577,-2.8086,-2.8401,-2.8589,-2.8926,-2.9026,-2.8814,-2.8398,-2.8291,-2.831,-2.8369,-2.8379,-2.8506,-2.8935,-2.8701,-2.8584,-2.8955,-2.9326,-2.957,-2.957,-2.9521,-2.9668,-3.0146,-2.9766,-2.9863,-3.081,-3.083,-3.083,-3.0889,-3.0889,-3.0889,-3.0889,-3.0889,-3.0889,-3.0889,-3.0889,-3.0889,-3.0889,-3.0889,-3.0889,-3.0889,-3.0889,-3.0889,0.0,0.0,0.0,0.0,0.0,0.0,0.0,0.0,-2.5084,-2.4886,-2.4574,-2.4223,-2.3703,-2.3243,-2.3308,-2.4583,-2.4575,-2.4753,-2.5765,-2.5536,-2.4951,-2.4176,-2.3943,-2.4069,-2.4545,-2.4785,-2.5342,-2.6295,-2.6519,-2.644,-2.6082,-2.6521,-2.6589,-2.6082,-2.6164,-2.6302,-2.6358,-2.6589,-2.6721,-2.6657,-2.6869,-2.7335,-2.8051,-2.6976,-2.6565,-2.6483,-2.5589,-2.5263,-2.5263,-2.5263,-2.4935,-2.454,-2.454,-2.454,-2.454,-2.454,-2.454,-2.4633,-2.5285,-2.5388,-2.5378,-2.6216,-2.6527,-2.661,-2.6817,-2.7055,-2.7262,-2.7262,-2.7486,-2.7842,-2.8304,-2.8655,-2.9003,-2.9347,-2.9343,-2.9237,-2.8814,-2.8611,-2.8514,-2.8291,-2.8291,-2.835,-2.8535,-2.8418,-2.8359,-2.8535,-2.873,-2.8857,-2.8857,-2.8857,-2.9111,-2.9775,-2.9678,-2.9922,-3.082,-3.0889,-3.0889,-3.0889,-3.0889,-3.0889,-3.0889,-3.0889,-3.0889,-3.0889,-3.0889,-3.0889,-3.0889,-3.0889,-3.0889,-3.0889,-3.0889,-3.0889,0.0,0.0,0.0,0.0,0.0,0.0,0.0,0.0,-2.5416,0.0,-2.5329,-2.5107,-2.4249,-2.3718,-2.3756,-2.5009,-2.513,-2.5373,-2.6076,-2.6136,-2.5783,-2.4794,-2.4681,-2.4917,-2.5368,-2.5332,-2.5755,-2.6934,-2.6863,-2.6794,-2.6794,-2.6943,-2.6943,-2.6794,-2.6943,-2.7024,-2.7079,-2.7618,-2.7948,-2.8074,-2.8059,-2.8397,-2.9184,-2.8119,-2.7706,-2.7799,-2.6648,-2.6152,-2.6152,-2.6152,-2.5757,-2.52,-2.52,-2.5031,-2.4861,-2.4861,-2.47,-2.4612,-2.5068,-2.5161,-2.515,-2.5699,-2.6113,-2.6413,-2.6527,-2.69,-2.7262,-2.7262,-2.7583,-2.8028,-2.8493,-2.8959,-2.9415,-2.9661,-2.9669,-2.9554,-2.9237,-2.893,-2.8727,-2.8398,-2.8408,-2.8398,-2.8291,-2.8291,-2.8291,-2.8291,-2.8389,-2.8418,-2.8301,-2.8389,-2.874,-2.9492,-2.957,-2.9922,-3.082,-3.0889,-3.0889,-3.0889,-3.0889,-3.0889,-3.0889,-3.0889,-3.0889,-3.0889,-3.0889,-3.0889,-3.0889,-3.0889,-3.0889,-3.0889,-3.0889,-3.0889,0.0,0.0,0.0,0.0,0.0,0.0,0.0,0.0,0.0,-2.5642,-2.5869,-2.6093,-2.6052,-2.5253,-2.4987,-2.6109,-2.6085,-2.6199,-2.6849,-2.6592,-2.6283,-2.6176,-2.5673,-2.554,-2.6073,-2.6131,-2.6382,-2.6934,-2.7024,-2.6943,-2.6943,-2.7011,-2.7024,-2.6943,-2.7011,-2.7079,-2.7268,-2.7838,-2.828,-2.8656,-2.9157,-2.9693,-3.0292,-2.9406,-2.9341,-2.9831,-2.7879,-2.7069,-2.7069,-2.7069,-2.6987,-2.6987,-2.6987,-2.6494,-2.5746,-2.5746,-2.5179,-2.4612,-2.5068,-2.4943,-2.4716,-2.5595,-2.5896,-2.5999,-2.6434,-2.69,-2.7262,-2.7262,-2.7583,-2.8028,-2.8493,-2.8959,-2.9425,-2.988,-2.9994,-2.9784,-2.9237,-2.9132,-2.9026,-2.8727,-2.8737,-2.8621,-2.8291,-2.8291,-2.8291,-2.8291,-2.8633,-2.874,-2.834,-2.8643,-2.9062,-2.9521,-2.957,-2.9922,-3.082,-3.0889,-3.0889,-3.0889,-3.0889,-3.0889,-3.0889,-3.0889,-3.0889,-3.0889,-3.0889,-3.0889,-3.0889,-3.0889,-3.0889,-3.0889,-3.0889,-3.0889,0.0,0.0,0.0,0.0,0.0,0.0,0.0,-2.5059,-2.5248,-2.5264,-2.6143,-2.7016,-2.7299,-2.6338,-2.5819,-2.6633,-2.6426,-2.6344,-2.7041,-2.7078,-2.6841,-2.6336,-2.6283,-2.6284,-2.637,-2.6736,-2.7067,-2.7349,-2.763,-2.7656,-2.7214,-2.7268,-2.7268,-2.7214,-2.7268,-2.7335,-2.7403,-2.803,-2.8477,-2.8931,-2.9413,-2.998,-3.0609,-3.0126,-3.0139,-3.0457,-2.9561,-2.8846,-2.8223,-2.8051,-2.7718,-2.7313,-2.7151,-2.6894,-2.6648,-2.6648,-2.6412,-2.6113,-2.571,-2.5487,-2.5444,-2.6184,-2.6592,-2.7015,-2.8098,-2.8331,-2.8175,-2.8175,-2.8041,-2.8028,-2.8493,-2.8959,-2.9425,-2.988,-2.9994,-2.9994,-2.9669,-2.9564,-2.9343,-2.9036,-2.893,-2.8824,-2.8621,-2.8514,-2.8514,-2.8291,-2.8418,-2.8467,-2.831,-2.8428,-2.8789,-2.9492,-2.957,-2.9922,-3.082,-3.0889,-3.0889,-3.0889,-3.0889,-3.0889,-3.0889,-3.0889,-3.0889,-3.0889,-3.0889,-3.0889,-3.0889,-3.0889,-3.0889,-3.0898,-3.1172,-3.1299,0.0,0.0,0.0,0.0,0.0,0.0,-2.4421,0.0,-2.5129,-2.5094,-2.6468,-2.7739,-2.8102,-2.7668,-2.7378,-2.769,-2.7228,-2.7016,-2.7449,-2.7473,-2.7269,-2.6774,-2.6878,-2.7055,-2.7216,-2.7554,-2.7897,-2.8195,-2.8557,0.0,-2.8078,-2.7908,-2.7723,-2.7403,-2.7656,-2.7723,-2.7523,-2.8098,-2.8617,-2.9087,-2.9632,-3.0203,-3.0773,-3.0672,-3.0609,-3.0698,-3.0533,-3.0062,-2.9341,-2.9172,-2.8858,-2.8371,-2.8199,-2.7879,-2.7557,-2.7557,-2.7395,-2.6987,-2.64,-2.6346,-2.6629,-2.6975,-2.7509,-2.8176,-2.9209,-2.9319,-2.9176,-2.9176,-2.9172,-2.9171,-2.912,-2.9276,-2.9611,-2.9922,-2.9994,-2.9994,-2.9994,-2.9879,-2.9669,-2.9343,-2.9237,-2.9132,-2.893,-2.8834,-2.8717,-2.8514,-2.8525,-2.8623,-2.8506,-2.8633,-2.8994,-2.9707,-2.9785,-3.0078,-3.083,-3.0889,-3.0889,-3.0889,-3.0889,-3.0889,-3.0889,-3.0889,-3.0889,-3.0889,-3.0889,-3.0889,-3.0889,-3.0889,-3.0967,-3.1103,-3.1387,-3.167,0.0,0.0,0.0,0.0,0.0,0.0,-2.4614,0.0,-2.5605,-2.5196,-2.6853,-2.8379,-2.8412,-2.9148,-2.9673,-2.9287,-2.8591,-2.8125,-2.8125,-2.7795,-2.7625,-2.7625,-2.7625,-2.7862,-2.8533,-2.8608,-2.8901,-2.9454,-2.949,-2.9504,-2.9504,-2.8903,-2.8222,-2.759,-2.8157,-2.8222,-2.7523,-2.814,-2.873,-2.9287,-2.9849,-3.0424,-3.0986,-3.0986,-3.0911,-3.0698,-3.0698,-3.0609,-3.0444,-3.0368,-3.0292,-3.0088,-3.0075,-2.9431,-2.8542,-2.8542,-2.7971,-2.7151,-2.7151,-2.7483,-2.8004,-2.8027,-2.8683,-2.9565,-2.9589,-2.9869,-3.026,-3.026,-3.0986,-3.1483,-3.048,-3.0115,-3.0099,-3.0099,-3.0099,-3.0099,-3.0099,-2.9994,-2.9889,-2.9659,-2.9659,-2.9554,-2.9132,-2.9132,-2.9036,-2.8747,-2.9124,-2.9283,-2.8945,-2.9307,-2.9726,-3.0156,-3.0195,-3.0391,-3.085,-3.0889,-3.0889,-3.0889,-3.0889,-3.0889,-3.0889,-3.0889,-3.0889,-3.0889,-3.0889,-3.0898,-3.0908,-3.0908,-3.1123,-3.1514,-3.1543,-3.2002,-2.1615,0.0,0.0,0.0,0.0,0.0,-2.3974,-2.4167,-2.4411,-2.5244,-2.6267,-2.7334,-2.8213,-2.9022,-2.9633,-3.0074,-2.9088,-2.8255,-2.8255,-2.7894,-2.7625,-2.7625,-2.7625,-2.7853,-2.8545,-2.9065,-2.9381,0.0,-2.9949,-3.0011,-2.9504,-2.9317,-2.9142,-2.8953,-2.9142,-2.8903,-2.8222,-2.8383,-2.8731,-2.9274,-2.9444,-3.0032,-3.0986,-3.0986,-3.0986,-3.0911,-3.0911,-3.0911,-3.0836,-3.052,-3.0457,-3.0546,-3.0228,-2.9921,-2.9677,-2.9456,-2.93,-2.8961,-2.8303,-2.8226,-2.8476,-2.9237,-2.9677,-3.0216,-3.17,-3.168,-3.1169,-3.1169,-3.119,-3.1306,-3.1752,-3.2027,-3.2297,-3.2297,-3.1688,-3.1187,-3.1187,-3.0588,-2.9994,-2.9889,-2.9889,-2.9774,-2.9554,-2.9448,-2.9454,-2.9467,-2.9421,-2.9501,-2.9697,-2.9613,-2.9726,-3.0156,-3.0195,-3.0391,-3.085,-3.0889,-3.0889,-3.0889,-3.0889,-3.0889,-3.0889,-3.0889,-3.0889,-3.0889,-3.0889,-3.1035,-3.1348,-3.1348,-3.1406,-3.1533,-3.2148,-3.2734,0.0,0.0,0.0,0.0,0.0,0.0,-2.3273,-2.3453,-2.3833,-2.4693,-2.5414,-2.6264,-2.73,-2.8042,-2.8771,-2.9499,-2.8957,-2.8573,-2.8856,-2.8352,-2.7894,-2.7894,-2.771,-2.7844,-2.8532,-2.9205,-2.9669,-2.9868,-3.0529,-3.0644,-2.995,-3.0208,-3.0072,-2.9504,-2.9766,-2.958,-2.8903,-2.9215,-2.9454,-2.9684,-2.998,-3.0447,-3.0986,-3.0986,-3.0986,-3.0986,-3.0986,-3.0986,-3.0986,-3.0748,-3.0685,-3.0698,-3.047,-3.0305,-3.0228,-3.0011,-2.9934,-2.9856,-2.9287,-2.9334,-2.98,-3.0425,-3.094,-3.1612,-3.2696,-3.2711,-3.23,-3.2533,-3.24,-3.2406,-3.3227,-3.3377,-3.3201,-3.3201,-3.2387,-3.1677,-3.2185,-3.1381,-3.0495,-3.0099,-2.9994,-3.0056,-3.0031,-3.0062,-3.0099,-3.0225,-3.0238,-3.0349,-3.0488,-3.0339,-3.0433,-3.0679,-3.0594,-3.0596,-3.0869,-3.0889,-3.0889,-3.0889,-3.0889,-3.0889,-3.0889,-3.0889,-3.0976,-3.1152,-3.1152,-3.1445,-3.2051,-3.1689,-3.1699,-3.207,-3.2744,-3.3193,0.0,0.0,0.0,0.0,-2.3242,0.0,-2.2796,-2.3134,-2.3653,-2.4043,-2.458,-2.5212,-2.5992,-2.674,-2.7507,-2.8239,-2.8631,-2.9053,-2.9696,-2.9012,-2.8352,-2.8304,-2.7929,-2.7961,-2.8637,-2.9235,-2.9864,-3.0567,-3.118,-3.1219,-3.0644,-3.1161,-3.097,-2.9766,-3.0401,-3.0341,-2.9628,-3.0383,-3.0629,-3.0433,-3.106,-3.1245,-3.1123,-3.1123,-3.1061,-3.0986,-3.0986,-3.0986,-3.0986,-3.0986,-3.0911,-3.0698,-3.0698,-3.0609,-3.0444,-3.0152,-3.0075,-3.0088,-2.9932,-3.0507,-3.1323,-3.1449,-3.2164,-3.2993,-3.3056,-3.3081,-3.3206,-3.3822,-3.4077,-3.4304,-3.4836,-3.4288,-3.3598,-3.3598,-3.2789,-3.2185,-3.3201,-3.2488,-3.1494,-3.0662,-3.0433,-3.0548,-3.1021,-3.0998,-3.095,-3.122,-3.142,-3.1585,-3.14,-3.1421,-3.1441,-3.1546,-3.1218,-3.0889,-3.0889,-3.0889,-3.0889,-3.0889,-3.0889,-3.0918,-3.0957,-3.0957,-3.1162,-3.1582,-3.1631,-3.206,-3.2861,-3.2051,-3.208,-3.2871,-3.3242,-3.3447,0.0,0.0,0.0,0.0,-2.4075,0.0,-2.3972,-2.3554,-2.3511,-2.4586,-2.4459,-2.4457,-2.5605,-2.6437,-2.7216,-2.7979,-2.8921,-2.9632,-2.9783,-2.9303,-2.8779,-2.8352,-2.8207,-2.8514,-2.9319,-2.9505,-3.0058,-3.124,-3.1465,-3.1409,-3.1278,-3.1409,-3.1409,-3.1087,-3.1783,-3.1544,-3.0329,-3.1531,-3.1782,-3.1202,-3.187,-3.2068,-3.1869,-3.1869,-3.1529,-3.0986,-3.0986,-3.0986,-3.0986,-3.0986,-3.0986,-3.0911,-3.0773,-3.0698,-3.0622,-3.0228,-3.0075,-3.0151,-3.0372,-3.0595,-3.0909,-3.1775,-3.2202,-3.2466,-3.293,-3.3081,-3.3282,-3.4274,-3.4844,-3.5376,-3.5924,-3.5966,-3.5775,-3.5775,-3.4969,-3.4276,-3.4483,-3.3697,-3.2914,-3.322,-3.287,-3.2757,-3.3253,-3.263,-3.2295,-3.315,-3.2274,-3.2024,-3.3279,-3.2395,-3.1998,-3.2633,-3.1872,-3.1102,-3.0889,-3.0889,-3.0889,-3.0889,-3.0889,-3.1045,-3.1377,-3.1396,-3.1601,-3.2031,-3.2373,-3.2793,-3.3301,-3.2793,-3.2803,-3.3301,-3.3379,-3.3613,0.0,0.0,0.0,-2.484,-2.4585,0.0,0.0,-2.3789,-2.3641,-2.4184,-2.4018,-2.403,-2.5012,-2.551,-2.619,-2.7316,-2.8197,-2.8879,-2.9187,-2.9383,-2.9348,-2.9088,-2.8826,-2.8774,-2.8936,-2.9264,-2.9863,-3.0911,-3.1345,-3.1482,-3.1482,-3.1482,-3.1482,-3.1482,-3.2168,-3.2169,-3.1515,-3.2859,-3.3112,-3.2397,-3.3078,-3.3111,-3.2648,-3.229,-3.2087,-3.2042,-3.1334,-3.1185,-3.1529,-3.1123,-3.0986,-3.0986,-3.0911,-3.0849,-3.0761,-3.0381,-3.0394,-3.0597,-3.0586,-3.0972,-3.1499,-3.2039,-3.2403,-3.2704,-3.2993,-3.3458,-3.4073,-3.4901,-3.5529,-3.6081,-3.6621,-3.6571,-3.6358,-3.6358,-3.5571,-3.4981,-3.5475,-3.4775,-3.4343,-3.5361,-3.5352,-3.5115,-3.4762,-3.4264,-3.4101,-3.4851,-3.4406,-3.3953,-3.4213,-3.3459,-3.2903,-3.2664,-3.2446,-3.1973,-3.1534,-3.1696,-3.1878,-3.2099,-3.2109,-3.22,-3.2421,-3.2642,-3.2964,-3.3407,-3.347,-3.3905,-3.4725,-3.4725,-3.4592,-3.4053,-3.3848,-3.3975,0.0,0.0,0.0,0.0,-2.5173,-2.4655,0.0,0.0,0.0,-2.3984,-2.3938,-2.411,0.0,0.0,0.0,-2.6516,0.0,0.0,0.0,-2.9055,0.0,-2.9389,-2.9022,-2.8667,-2.8321,-2.9008,-2.9846,-3.082,-3.1261,-3.1447,-3.1524,-3.1482,-3.1482,-3.1482,-3.2302,-3.2647,-3.2512,-3.3948,-3.4337,-3.3623,-3.4236,-3.4124,-3.3422,-3.2791,-3.2791,-3.3143,-3.1969,-3.175,-3.2218,-3.1542,-3.1185,-3.1185,-3.1061,-3.0986,-3.0986,-3.052,-3.0714,-3.1148,-3.088,-3.1399,-3.2227,-3.234,-3.2692,-3.3081,-3.3081,-3.3847,-3.4813,-3.5265,-3.5855,-3.6458,-3.691,-3.6697,-3.6358,-3.6358,-3.5763,-3.5367,-3.625,-3.5849,-3.5685,-3.703,-3.7437,-3.7271,-3.6353,-3.5958,-3.592,-3.6441,-3.6294,-3.5979,-3.5234,-3.4681,-3.4123,-3.3346,-3.3523,-3.3507,-3.2743,-3.3099,-3.3539,-3.379,-3.3927,-3.3969,-3.3947,-3.4386,-3.4924,-3.516,-3.5021,-3.5468,-3.6541,-3.7034,-3.6465,-3.507,-3.5101,-3.5042,0.0,0.0,0.0,0.0,-2.6402,-2.6156,-2.5409,0.0,-2.5207,-2.5197,0.0,-2.5215,0.0,0.0,0.0,0.0,0.0,0.0,-2.7528,-2.8068,-2.8392,-2.7899,-2.78,-2.7901,-2.8196,-2.9388,-3.076,-3.2057,-3.1619,-3.1384,-3.1495,-3.1482,-3.1482,-3.1482,-3.2736,-3.3095,-3.2527,-3.4427,-3.5021,-3.4409,-3.5031,-3.492,-3.4177,-3.4095,-3.3754,-3.3213,-3.3017,-3.3017,-3.3003,-3.2304,-3.1942,-3.1869,-3.1259,-3.0986,-3.0986,-3.052,-3.0714,-3.1199,-3.1284,-3.17,-3.2303,-3.2805,-3.3018,-3.3081,-3.3081,-3.3847,-3.4738,-3.4801,-3.5567,-3.637,-3.6433,-3.6408,-3.6358,-3.6358,-3.6263,-3.6263,-3.6358,-3.6651,-3.7152,-3.7801,-3.8329,-3.8718,-3.8527,-3.7582,-3.7116,-3.7642,-3.6846,-3.6522,-3.7394,-3.663,-3.6185,-3.6823,-3.6466,-3.5983,-3.5216,-3.5692,-3.5945,-3.5675,-3.5675,-3.5871,-3.6306,-3.6774,-3.6926,-3.698,-3.7378,-3.7843,-3.838,-3.857,-3.7974,-3.6593,-3.7794,-3.7912,0.0,0.0,0.0,0.0,0.0,0.0,-2.6279,0.0,-2.5963,-2.5507,0.0,0.0,0.0,0.0,0.0,0.0,-2.7261,-2.7577,0.0,0.0,-2.7581,-2.8174,0.0,0.0,-2.8437,-2.8717,-2.9363,-3.052,-3.0913,-3.1059,-3.0953,-3.1641,-3.2034,-3.2093,-3.3006,-3.3544,-3.3649,-3.4876,-3.5355,-3.507,-3.537,-3.5344,-3.4986,-3.4528,-3.4394,-3.4505,-3.3575,-3.3422,-3.3754,-3.3073,-3.272,-3.2648,-3.1955,-3.1408,-3.0986,-3.0685,-3.101,-3.1647,-3.1567,-3.2059,-3.2754,-3.3006,-3.3081,-3.3131,-3.3458,-3.411,-3.4851,-3.5491,-3.6006,-3.6433,-3.6759,-3.6596,-3.6358,-3.6358,-3.6358,-3.6358,-3.6358,-3.6546,-3.696,-3.7839,-3.8203,-3.858,-3.9233,-3.891,-3.8662,-3.8896,-3.8489,-3.8161,-3.795,-3.7501,-3.7178,-3.7243,-3.7111,-3.6858,-3.6284,-3.6725,-3.7042,-3.703,-3.7185,-3.7567,-3.8179,-3.7945,-3.8078,-3.8814,-3.8951,-3.9438,-4.0286,-4.0716,-4.061,-3.9963,-3.9528,-3.915,-2.8157,0.0,0.0,0.0,0.0,0.0,0.0,0.0,0.0,-2.6209,-2.6683,0.0,0.0,0.0,0.0,0.0,0.0,-2.721,0.0,-2.6723,0.0,0.0,0.0,0.0,0.0,-2.8137,-2.8241,-2.934,-3.0179,-3.0642,-3.0654,-3.1573,-3.2298,-3.2704,-3.3216,-3.3814,-3.4472,-3.516,-3.5504,-3.5504,-3.5504,-3.5504,-3.5504,-3.4905,-3.4986,-3.5439,-3.4288,-3.4138,-3.4543,-3.3837,-3.3492,-3.3422,-3.272,-3.2101,-3.1542,-3.0911,-3.1332,-3.2047,-3.1818,-3.2306,-3.3081,-3.3081,-3.3181,-3.337,-3.3771,-3.4399,-3.5115,-3.5906,-3.6245,-3.6458,-3.686,-3.6659,-3.6358,-3.6358,-3.6358,-3.6358,-3.6358,-3.6483,-3.6872,-3.7826,-3.814,-3.8555,-3.9521,-3.9697,-3.9697,-3.9697,-3.9697,-3.9362,-3.8489,-3.8384,-3.8248,-3.7996,-3.8168,-3.8263,-3.8054,-3.826,-3.8507,-3.8605,-3.8965,-3.9326,-3.9697,-3.9351,-3.9613,-4.0476,-4.058,-4.1092,-4.1998,-4.2544,-4.2811,-4.2799,-4.149,-4.074,0.0,0.0,0.0,-2.9878,0.0,0.0,0.0,0.0,-2.8596,0.0,0.0,0.0,0.0,0.0,0.0,0.0,0.0,0.0,0.0,0.0,0.0,-2.6305,-2.6439,0.0,0.0,-2.7907,-2.8188,-2.9565,-2.9694,-3.0094,-3.0948,-3.1223,-3.1958,-3.331,-3.3427,-3.3814,-3.4472,-3.516,-3.5504,-3.5504,-3.5504,-3.5504,-3.5504,-3.5504,-3.5504,-3.5504,-3.5439,-3.5439,-3.5424,-3.461,-3.4245,-3.4177,-3.3422,-3.3143,-3.2946,-3.1334,-3.1423,-3.2313,-3.1818,-3.2306,-3.3081,-3.3081,-3.3432,-3.3872,-3.3884,-3.4663,-3.5437,-3.5567,-3.5956,-3.6358,-3.6383,-3.637,-3.6358,-3.6358,-3.6358,-3.6358,-3.6358,-3.6784,-3.7324,-3.7902,-3.8454,-3.9032,-3.9597,-3.9697,-3.9697,-3.9697,-3.9697,-3.9697,-3.9697,-3.9685,-3.9794,-4.0345,-4.0395,-4.062,-4.1065,-4.1139,-4.1135,-4.11,-4.1148,-4.116,-4.1184,-4.1573,-4.1849,-4.1966,-4.2856,-4.3383,-4.3395,-4.3947,-4.4223,-4.4211,-4.4199,-4.3428,0.0,0.0,-3.0492,-3.0756,0.0,0.0,0.0,0.0,0.0,0.0,0.0,0.0,0.0,0.0,0.0,0.0,0.0,0.0,0.0,-2.741,-2.747,-2.7224,-2.6647,0.0,0.0,0.0,-2.7153,-2.8214,-2.9058,-2.974,-3.029,-3.2149,-3.3408,-3.3983,-3.4513,-3.4864,-3.5145,-3.5385,-3.5504,-3.5504,-3.5504,-3.5504,-3.5504,-3.5504,-3.5504,-3.5504,-3.5504,-3.5504,-3.5504,-3.5213,-3.5052,-3.4986,-3.4259,-3.4218,-3.4382,-3.2845,-3.2635,-3.3093,-3.2905,-3.2924,-3.3081,-3.3081,-3.3445,-3.3972,-3.4336,-3.4964,-3.5617,-3.5981,-3.6219,-3.6358,-3.6358,-3.6358,-3.6358,-3.6358,-3.6358,-3.6458,-3.6822,-3.7048,-3.7462,-3.8391,-3.873,-3.9044,-3.9597,-3.9697,-3.9697,-3.9697,-3.9697,-3.9823,-4.0187,-3.9923,-4.0187,-4.1467,-4.0953,-4.0752,-4.1201,-4.0952,-4.0846,-4.1148,-4.1184,-4.1341,-4.1689,-4.2218,-4.2651,-4.2988,-4.3697,-4.407,-4.407,-4.4251,-4.4347,-4.4347,-4.4347,-4.4278,-3.1493,-3.1423,0.0,-3.1563,-3.0861,0.0,-2.9772,0.0,-2.9562,0.0,0.0,0.0,0.0,0.0,0.0,0.0,0.0,0.0,0.0,-2.8127,-2.8493,-2.8049,-2.7332,-2.7002,-2.7267,-2.6742,-2.6568,-2.7042,-2.8316,-2.9362,0.0,-3.2418,-3.4098,-3.4924,-3.5251,-3.5554,-3.5846,-3.5619,-3.5504,-3.5504,-3.5504,-3.5504,-3.5504,-3.5504,-3.5504,-3.5504,-3.5504,-3.5504,-3.5504,-3.5504,-3.5504,-3.5439,-3.4905,-3.5154,-3.5575,-3.401,-3.3574,-3.3727,-3.3809,-3.3569,-3.3081,-3.3081,-3.3583,-3.4261,-3.4613,-3.524,-3.5906,-3.6257,-3.6358,-3.6358,-3.6358,-3.6358,-3.6358,-3.6358,-3.6358,-3.6508,-3.7061,-3.7186,-3.7525,-3.8655,-3.8868,-3.9044,-3.9597,-3.986,-3.9923,-3.9722,-3.986,-4.0111,-4.0475,-4.0375,-4.0752,-4.202,-4.1342,-4.0964,-4.1225,-4.101,-4.0925,-4.116,-4.1353,-4.1617,-4.1954,-4.2651,-4.3277,-4.3794,-4.4166,-4.4443,-4.4623,-4.4443,-4.4347,-4.4347,-4.4539,-4.4912]}]]